Wetterdaten: Freitag, 16.09.2016
Datum Zeit Temp. A. Feuchte A. Luftdruck Regen Wind Richtung Richtung Sonnenschein ET UV Solar Taupunkt Windchill Windben Empfang
16.09.2016 00:00 17,4 C 88 % 1009,7 hPa 0,0 l/m 0,0 km/h (0 Bft) S-SW 192 0 min 0,000 mm 0,0 UV-I 0 W/m 15,4 C 17,4 C 0,0 km/h (0 Bft) 100,00 %
16.09.2016 00:02 17,3 C 89 % 1009,7 hPa 0,0 l/m 0,0 km/h (0 Bft) S-SW 192 0 min 0,000 mm 0,0 UV-I 0 W/m 15,5 C 17,3 C 1,6 km/h (1 Bft) 97,67 %
16.09.2016 00:04 17,3 C 89 % 1009,8 hPa 0,0 l/m 0,9 km/h (0 Bft) S-SW 192 0 min 0,000 mm 0,0 UV-I 0 W/m 15,5 C 17,3 C 1,6 km/h (1 Bft) 97,87 %
16.09.2016 00:06 17,3 C 89 % 1009,8 hPa 0,0 l/m 0,6 km/h (0 Bft) S-SW 192 0 min 0,000 mm 0,0 UV-I 0 W/m 15,5 C 17,3 C 1,6 km/h (1 Bft) 100,00 %
16.09.2016 00:08 17,3 C 89 % 1009,8 hPa 0,0 l/m 1,5 km/h (1 Bft) S-SW 192 0 min 0,000 mm 0,0 UV-I 0 W/m 15,5 C 17,3 C 3,2 km/h (1 Bft) 100,00 %
16.09.2016 00:10 17,3 C 89 % 1009,8 hPa 0,0 l/m 0,2 km/h (0 Bft) S-SW 192 0 min 0,000 mm 0,0 UV-I 0 W/m 15,5 C 17,3 C 1,6 km/h (1 Bft) 100,00 %
16.09.2016 00:12 17,2 C 89 % 1009,7 hPa 0,0 l/m 0,0 km/h (0 Bft) S-SW 192 0 min 0,000 mm 0,0 UV-I 0 W/m 15,4 C 17,2 C 0,0 km/h (0 Bft) 100,00 %
16.09.2016 00:14 17,1 C 89 % 1009,8 hPa 0,0 l/m 0,1 km/h (0 Bft) S-SW 192 0 min 0,000 mm 0,0 UV-I 0 W/m 15,3 C 17,1 C 1,6 km/h (1 Bft) 97,87 %
16.09.2016 00:16 17,1 C 89 % 1009,8 hPa 0,0 l/m 0,6 km/h (0 Bft) S-SW 192 0 min 0,000 mm 0,0 UV-I 0 W/m 15,3 C 17,1 C 1,6 km/h (1 Bft) 97,87 %
16.09.2016 00:18 17,0 C 90 % 1009,8 hPa 0,0 l/m 0,1 km/h (0 Bft) S-SW 192 0 min 0,000 mm 0,0 UV-I 0 W/m 15,3 C 17,0 C 1,6 km/h (1 Bft) 97,87 %
16.09.2016 00:20 16,9 C 90 % 1009,8 hPa 0,0 l/m 1,6 km/h (1 Bft) S-SW 192 0 min 0,000 mm 0,0 UV-I 0 W/m 15,2 C 16,9 C 3,2 km/h (1 Bft) 97,37 %
16.09.2016 00:22 16,9 C 90 % 1009,8 hPa 0,0 l/m 1,9 km/h (1 Bft) S-SW 192 0 min 0,000 mm 0,0 UV-I 0 W/m 15,2 C 16,9 C 3,2 km/h (1 Bft) 95,74 %
16.09.2016 00:24 16,9 C 91 % 1009,8 hPa 0,0 l/m 0,0 km/h (0 Bft) S-SW 192 0 min 0,000 mm 0,0 UV-I 0 W/m 15,4 C 16,9 C 0,0 km/h (0 Bft) 97,87 %
16.09.2016 00:26 17,1 C 91 % 1009,8 hPa 0,0 l/m 0,6 km/h (0 Bft) S-SW 192 0 min 0,000 mm 0,0 UV-I 0 W/m 15,6 C 17,1 C 1,6 km/h (1 Bft) 100,00 %
16.09.2016 00:28 17,2 C 90 % 1009,8 hPa 0,0 l/m 0,1 km/h (0 Bft) S-SW 192 0 min 0,000 mm 0,0 UV-I 0 W/m 15,5 C 17,2 C 1,6 km/h (1 Bft) 97,87 %
16.09.2016 00:30 17,3 C 90 % 1009,8 hPa 0,0 l/m 0,0 km/h (0 Bft) S-SW 192 0 min 0,000 mm 0,0 UV-I 0 W/m 15,6 C 17,3 C 0,0 km/h (0 Bft) 98,00 %
16.09.2016 00:32 17,2 C 90 % 1009,9 hPa 0,0 l/m 0,0 km/h (0 Bft) S-SW 192 0 min 0,000 mm 0,0 UV-I 0 W/m 15,5 C 17,2 C 0,0 km/h (0 Bft) 100,00 %
16.09.2016 00:34 17,1 C 89 % 1009,9 hPa 0,0 l/m 0,0 km/h (0 Bft) S-SW 192 0 min 0,000 mm 0,0 UV-I 0 W/m 15,3 C 17,1 C 0,0 km/h (0 Bft) 100,00 %
16.09.2016 00:36 17,1 C 89 % 1009,9 hPa 0,0 l/m 0,0 km/h (0 Bft) S-SW 192 0 min 0,000 mm 0,0 UV-I 0 W/m 15,3 C 17,1 C 0,0 km/h (0 Bft) 100,00 %
16.09.2016 00:38 16,9 C 90 % 1009,9 hPa 0,0 l/m 0,0 km/h (0 Bft) S-SW 192 0 min 0,000 mm 0,0 UV-I 0 W/m 15,2 C 16,9 C 0,0 km/h (0 Bft) 100,00 %
16.09.2016 00:40 16,9 C 90 % 1010,0 hPa 0,0 l/m 1,2 km/h (1 Bft) S-SW 192 0 min 0,000 mm 0,0 UV-I 0 W/m 15,2 C 16,9 C 3,2 km/h (1 Bft) 100,00 %
16.09.2016 00:42 16,8 C 90 % 1010,0 hPa 0,0 l/m 2,9 km/h (1 Bft) S-SW 192 0 min 0,000 mm 0,0 UV-I 0 W/m 15,1 C 16,8 C 3,2 km/h (1 Bft) 100,00 %
16.09.2016 00:44 16,8 C 91 % 1010,0 hPa 0,0 l/m 2,5 km/h (1 Bft) S-SW 192 0 min 0,000 mm 0,0 UV-I 0 W/m 15,3 C 16,8 C 3,2 km/h (1 Bft) 100,00 %
16.09.2016 00:46 16,7 C 91 % 1010,0 hPa 0,0 l/m 2,7 km/h (1 Bft) S-SW 192 0 min 0,000 mm 0,0 UV-I 0 W/m 15,2 C 16,7 C 3,2 km/h (1 Bft) 97,87 %
16.09.2016 00:48 16,7 C 91 % 1010,0 hPa 0,0 l/m 2,3 km/h (1 Bft) S-SW 192 0 min 0,000 mm 0,0 UV-I 0 W/m 15,2 C 16,7 C 3,2 km/h (1 Bft) 97,87 %
16.09.2016 00:50 16,6 C 90 % 1010,0 hPa 0,0 l/m 1,0 km/h (0 Bft) S-SW 192 0 min 0,000 mm 0,0 UV-I 0 W/m 15,0 C 16,6 C 3,2 km/h (1 Bft) 97,92 %
16.09.2016 00:52 16,4 C 90 % 1010,0 hPa 0,0 l/m 1,0 km/h (0 Bft) S-SW 192 0 min 0,000 mm 0,0 UV-I 0 W/m 14,8 C 16,4 C 1,6 km/h (1 Bft) 100,00 %
16.09.2016 00:54 16,4 C 91 % 1009,9 hPa 0,0 l/m 0,2 km/h (0 Bft) S-SW 192 0 min 0,000 mm 0,0 UV-I 0 W/m 14,9 C 16,4 C 1,6 km/h (1 Bft) 97,87 %
16.09.2016 00:56 16,3 C 91 % 1009,9 hPa 0,0 l/m 0,2 km/h (0 Bft) S-SW 192 0 min 0,000 mm 0,0 UV-I 0 W/m 14,8 C 16,3 C 1,6 km/h (1 Bft) 97,87 %
16.09.2016 00:58 16,3 C 92 % 1009,9 hPa 0,0 l/m 0,0 km/h (0 Bft) S-SW 192 0 min 0,000 mm 0,0 UV-I 0 W/m 15,0 C 16,3 C 0,0 km/h (0 Bft) 97,87 %
16.09.2016 01:00 16,3 C 92 % 1009,9 hPa 0,0 l/m 1,4 km/h (1 Bft) S-SW 192 0 min 0,000 mm 0,0 UV-I 0 W/m 15,0 C 16,3 C 3,2 km/h (1 Bft) 100,00 %
16.09.2016 01:02 16,4 C 92 % 1009,9 hPa 0,0 l/m 0,1 km/h (0 Bft) S-SW 192 0 min 0,000 mm 0,0 UV-I 0 W/m 15,1 C 16,4 C 1,6 km/h (1 Bft) 100,00 %
16.09.2016 01:04 16,4 C 92 % 1009,9 hPa 0,0 l/m 0,1 km/h (0 Bft) S-SW 192 0 min 0,000 mm 0,0 UV-I 0 W/m 15,1 C 16,4 C 3,2 km/h (1 Bft) 97,87 %
16.09.2016 01:06 16,6 C 92 % 1009,9 hPa 0,0 l/m 1,7 km/h (1 Bft) S-SW 192 0 min 0,000 mm 0,0 UV-I 0 W/m 15,3 C 16,6 C 3,2 km/h (1 Bft) 100,00 %
16.09.2016 01:08 16,6 C 92 % 1009,9 hPa 0,0 l/m 0,3 km/h (0 Bft) S-SW 192 0 min 0,000 mm 0,0 UV-I 0 W/m 15,3 C 16,6 C 1,6 km/h (1 Bft) 97,87 %
16.09.2016 01:10 16,6 C 91 % 1010,0 hPa 0,0 l/m 0,0 km/h (0 Bft) S-SW 192 0 min 0,000 mm 0,0 UV-I 0 W/m 15,1 C 16,6 C 0,0 km/h (0 Bft) 100,00 %
16.09.2016 01:12 16,7 C 91 % 1010,0 hPa 0,0 l/m 0,6 km/h (0 Bft) S-SW 192 0 min 0,000 mm 0,0 UV-I 0 W/m 15,2 C 16,7 C 3,2 km/h (1 Bft) 100,00 %
16.09.2016 01:14 16,7 C 91 % 1010,2 hPa 0,0 l/m 3,5 km/h (1 Bft) S-SW 192 0 min 0,000 mm 0,0 UV-I 0 W/m 15,2 C 16,7 C 4,8 km/h (1 Bft) 97,87 %
16.09.2016 01:16 16,6 C 91 % 1010,2 hPa 0,0 l/m 3,0 km/h (1 Bft) S-SW 192 0 min 0,000 mm 0,0 UV-I 0 W/m 15,1 C 16,6 C 4,8 km/h (1 Bft) 100,00 %
16.09.2016 01:18 16,4 C 91 % 1010,2 hPa 0,0 l/m 1,8 km/h (1 Bft) S-SW 192 0 min 0,000 mm 0,0 UV-I 0 W/m 14,9 C 16,4 C 3,2 km/h (1 Bft) 100,00 %
16.09.2016 01:20 16,3 C 91 % 1010,2 hPa 0,0 l/m 1,0 km/h (0 Bft) S-SW 192 0 min 0,000 mm 0,0 UV-I 0 W/m 14,8 C 16,3 C 1,6 km/h (1 Bft) 100,00 %
16.09.2016 01:22 16,3 C 91 % 1010,2 hPa 0,0 l/m 2,0 km/h (1 Bft) S-SW 192 0 min 0,000 mm 0,0 UV-I 0 W/m 14,8 C 16,3 C 3,2 km/h (1 Bft) 100,00 %
16.09.2016 01:24 16,3 C 92 % 1010,2 hPa 0,0 l/m 3,2 km/h (1 Bft) S-SW 192 0 min 0,000 mm 0,0 UV-I 0 W/m 15,0 C 16,3 C 4,8 km/h (1 Bft) 97,92 %
16.09.2016 01:26 16,3 C 92 % 1010,3 hPa 0,0 l/m 4,0 km/h (1 Bft) S-SW 192 0 min 0,000 mm 0,0 UV-I 0 W/m 15,0 C 16,3 C 4,8 km/h (1 Bft) 100,00 %
16.09.2016 01:28 16,3 C 92 % 1010,3 hPa 0,0 l/m 4,4 km/h (1 Bft) S-SW 192 0 min 0,000 mm 0,0 UV-I 0 W/m 15,0 C 16,3 C 4,8 km/h (1 Bft) 100,00 %
16.09.2016 01:30 16,3 C 92 % 1010,4 hPa 0,0 l/m 5,4 km/h (1 Bft) S-SW 192 0 min 0,000 mm 0,0 UV-I 0 W/m 15,0 C 16,3 C 6,4 km/h (2 Bft) 93,62 %
16.09.2016 01:32 16,3 C 93 % 1010,4 hPa 0,0 l/m 4,7 km/h (1 Bft) S-SW 192 0 min 0,000 mm 0,0 UV-I 0 W/m 15,2 C 16,3 C 6,4 km/h (2 Bft) 95,74 %
16.09.2016 01:34 16,3 C 93 % 1010,4 hPa 0,0 l/m 4,5 km/h (1 Bft) S-SW 192 0 min 0,000 mm 0,0 UV-I 0 W/m 15,2 C 16,3 C 6,4 km/h (2 Bft) 97,87 %
16.09.2016 01:36 16,3 C 93 % 1010,4 hPa 0,0 l/m 3,7 km/h (1 Bft) S 188 0 min 0,000 mm 0,0 UV-I 0 W/m 15,2 C 16,3 C 6,4 km/h (2 Bft) 95,74 %
16.09.2016 01:38 16,3 C 92 % 1010,4 hPa 0,0 l/m 1,8 km/h (1 Bft) S 172 0 min 0,000 mm 0,0 UV-I 0 W/m 15,0 C 16,3 C 3,2 km/h (1 Bft) 95,74 %
16.09.2016 01:40 16,2 C 92 % 1010,4 hPa 0,0 l/m 1,0 km/h (0 Bft) S 172 0 min 0,000 mm 0,0 UV-I 0 W/m 14,9 C 16,2 C 3,2 km/h (1 Bft) 98,00 %
16.09.2016 01:42 16,1 C 93 % 1010,4 hPa 0,0 l/m 3,6 km/h (1 Bft) S 172 0 min 0,000 mm 0,0 UV-I 0 W/m 15,0 C 16,1 C 8,0 km/h (2 Bft) 94,74 %
16.09.2016 01:44 16,2 C 93 % 1010,4 hPa 0,0 l/m 2,9 km/h (1 Bft) S 172 0 min 0,000 mm 0,0 UV-I 0 W/m 15,1 C 16,2 C 4,8 km/h (1 Bft) 97,87 %
16.09.2016 01:46 16,3 C 94 % 1010,5 hPa 0,0 l/m 3,3 km/h (1 Bft) S 172 0 min 0,000 mm 0,0 UV-I 0 W/m 15,3 C 16,3 C 4,8 km/h (1 Bft) 95,74 %
16.09.2016 01:48 16,4 C 93 % 1010,5 hPa 0,0 l/m 3,7 km/h (1 Bft) S 173 0 min 0,000 mm 0,0 UV-I 0 W/m 15,3 C 16,4 C 4,8 km/h (1 Bft) 95,74 %
16.09.2016 01:50 16,4 C 93 % 1010,5 hPa 0,0 l/m 4,2 km/h (1 Bft) S 174 0 min 0,000 mm 0,0 UV-I 0 W/m 15,3 C 16,4 C 4,8 km/h (1 Bft) 97,87 %
16.09.2016 01:52 16,3 C 93 % 1010,5 hPa 0,0 l/m 3,1 km/h (1 Bft) S 175 0 min 0,000 mm 0,0 UV-I 0 W/m 15,2 C 16,3 C 4,8 km/h (1 Bft) 97,87 %
16.09.2016 01:54 16,2 C 93 % 1010,5 hPa 0,0 l/m 4,5 km/h (1 Bft) S 182 0 min 0,000 mm 0,0 UV-I 0 W/m 15,1 C 16,2 C 6,4 km/h (2 Bft) 97,87 %
16.09.2016 01:56 16,2 C 93 % 1010,5 hPa 0,0 l/m 3,5 km/h (1 Bft) S 182 0 min 0,000 mm 0,0 UV-I 0 W/m 15,1 C 16,2 C 4,8 km/h (1 Bft) 98,00 %
16.09.2016 01:58 16,3 C 94 % 1010,5 hPa 0,0 l/m 3,8 km/h (1 Bft) S 179 0 min 0,000 mm 0,0 UV-I 0 W/m 15,3 C 16,3 C 4,8 km/h (1 Bft) 97,87 %
16.09.2016 02:00 16,3 C 93 % 1010,5 hPa 0,0 l/m 3,2 km/h (1 Bft) S 178 0 min 0,000 mm 0,0 UV-I 0 W/m 15,2 C 16,3 C 4,8 km/h (1 Bft) 97,87 %
16.09.2016 02:02 16,2 C 93 % 1010,6 hPa 0,0 l/m 4,0 km/h (1 Bft) S 179 0 min 0,000 mm 0,0 UV-I 0 W/m 15,1 C 16,2 C 4,8 km/h (1 Bft) 93,62 %
16.09.2016 02:04 16,2 C 93 % 1010,6 hPa 0,0 l/m 3,9 km/h (1 Bft) S 179 0 min 0,000 mm 0,0 UV-I 0 W/m 15,1 C 16,2 C 4,8 km/h (1 Bft) 97,87 %
16.09.2016 02:06 16,3 C 94 % 1010,6 hPa 0,0 l/m 4,2 km/h (1 Bft) S 186 0 min 0,000 mm 0,0 UV-I 0 W/m 15,3 C 16,3 C 6,4 km/h (2 Bft) 97,92 %
16.09.2016 02:08 16,5 C 93 % 1010,5 hPa 0,0 l/m 3,8 km/h (1 Bft) S 184 0 min 0,000 mm 0,0 UV-I 0 W/m 15,4 C 16,5 C 8,0 km/h (2 Bft) 98,00 %
16.09.2016 02:10 16,6 C 93 % 1010,5 hPa 0,0 l/m 3,6 km/h (1 Bft) S 169 0 min 0,000 mm 0,0 UV-I 0 W/m 15,5 C 16,6 C 6,4 km/h (2 Bft) 100,00 %
16.09.2016 02:12 16,6 C 93 % 1010,5 hPa 0,0 l/m 4,3 km/h (1 Bft) S 169 0 min 0,000 mm 0,0 UV-I 0 W/m 15,5 C 16,6 C 6,4 km/h (2 Bft) 100,00 %
16.09.2016 02:14 16,5 C 92 % 1010,5 hPa 0,0 l/m 2,0 km/h (1 Bft) S 169 0 min 0,000 mm 0,0 UV-I 0 W/m 15,2 C 16,5 C 6,4 km/h (2 Bft) 97,87 %
16.09.2016 02:16 16,5 C 92 % 1010,4 hPa 0,0 l/m 1,6 km/h (1 Bft) S 169 0 min 0,000 mm 0,0 UV-I 0 W/m 15,2 C 16,5 C 3,2 km/h (1 Bft) 100,00 %
16.09.2016 02:18 16,5 C 92 % 1010,5 hPa 0,0 l/m 2,7 km/h (1 Bft) S 169 0 min 0,000 mm 0,0 UV-I 0 W/m 15,2 C 16,5 C 6,4 km/h (2 Bft) 100,00 %
16.09.2016 02:20 16,6 C 92 % 1010,5 hPa 0,0 l/m 3,9 km/h (1 Bft) S 169 0 min 0,000 mm 0,0 UV-I 0 W/m 15,3 C 16,6 C 8,0 km/h (2 Bft) 98,00 %
16.09.2016 02:22 16,6 C 91 % 1010,6 hPa 0,0 l/m 4,9 km/h (1 Bft) S 169 0 min 0,000 mm 0,0 UV-I 0 W/m 15,1 C 16,6 C 8,0 km/h (2 Bft) 100,00 %
16.09.2016 02:24 16,6 C 91 % 1010,5 hPa 0,0 l/m 3,0 km/h (1 Bft) S 169 0 min 0,000 mm 0,0 UV-I 0 W/m 15,1 C 16,6 C 6,4 km/h (2 Bft) 100,00 %
16.09.2016 02:26 16,6 C 91 % 1010,6 hPa 0,0 l/m 3,6 km/h (1 Bft) S 190 0 min 0,000 mm 0,0 UV-I 0 W/m 15,1 C 16,6 C 6,4 km/h (2 Bft) 100,00 %
16.09.2016 02:28 16,6 C 91 % 1010,6 hPa 0,0 l/m 3,4 km/h (1 Bft) S-SW 194 0 min 0,000 mm 0,0 UV-I 0 W/m 15,1 C 16,6 C 4,8 km/h (1 Bft) 95,74 %
16.09.2016 02:30 16,4 C 90 % 1010,7 hPa 0,0 l/m 4,3 km/h (1 Bft) S-SW 198 0 min 0,000 mm 0,0 UV-I 0 W/m 14,8 C 16,4 C 6,4 km/h (2 Bft) 97,87 %
16.09.2016 02:32 16,2 C 91 % 1010,7 hPa 0,0 l/m 4,6 km/h (1 Bft) S-SW 198 0 min 0,000 mm 0,0 UV-I 0 W/m 14,7 C 16,2 C 6,4 km/h (2 Bft) 100,00 %
16.09.2016 02:34 16,1 C 91 % 1010,7 hPa 0,0 l/m 4,2 km/h (1 Bft) S-SW 198 0 min 0,000 mm 0,0 UV-I 0 W/m 14,6 C 16,1 C 6,4 km/h (2 Bft) 97,87 %
16.09.2016 02:36 16,0 C 92 % 1010,6 hPa 0,0 l/m 3,5 km/h (1 Bft) S 189 0 min 0,000 mm 0,0 UV-I 0 W/m 14,7 C 16,0 C 6,4 km/h (2 Bft) 100,00 %
16.09.2016 02:38 16,0 C 92 % 1010,6 hPa 0,0 l/m 2,6 km/h (1 Bft) S 185 0 min 0,000 mm 0,0 UV-I 0 W/m 14,7 C 16,0 C 4,8 km/h (1 Bft) 100,00 %
16.09.2016 02:40 16,1 C 92 % 1010,6 hPa 0,0 l/m 2,9 km/h (1 Bft) S 185 0 min 0,000 mm 0,0 UV-I 0 W/m 14,8 C 16,1 C 4,8 km/h (1 Bft) 97,87 %
16.09.2016 02:42 16,2 C 91 % 1010,6 hPa 0,0 l/m 2,7 km/h (1 Bft) S 185 0 min 0,000 mm 0,0 UV-I 0 W/m 14,7 C 16,2 C 4,8 km/h (1 Bft) 97,87 %
16.09.2016 02:44 16,2 C 91 % 1010,6 hPa 0,0 l/m 0,7 km/h (0 Bft) S 185 0 min 0,000 mm 0,0 UV-I 0 W/m 14,7 C 16,2 C 1,6 km/h (1 Bft) 100,00 %
16.09.2016 02:46 16,3 C 91 % 1010,5 hPa 0,0 l/m 1,0 km/h (0 Bft) S 185 0 min 0,000 mm 0,0 UV-I 0 W/m 14,8 C 16,3 C 1,6 km/h (1 Bft) 97,92 %
16.09.2016 02:48 16,3 C 90 % 1010,6 hPa 0,0 l/m 1,1 km/h (1 Bft) S 185 0 min 0,000 mm 0,0 UV-I 0 W/m 14,7 C 16,3 C 3,2 km/h (1 Bft) 97,87 %
16.09.2016 02:50 16,4 C 90 % 1010,6 hPa 0,0 l/m 1,6 km/h (1 Bft) S 185 0 min 0,000 mm 0,0 UV-I 0 W/m 14,8 C 16,4 C 4,8 km/h (1 Bft) 97,87 %
16.09.2016 02:52 16,4 C 90 % 1010,6 hPa 0,0 l/m 3,3 km/h (1 Bft) S 185 0 min 0,000 mm 0,0 UV-I 0 W/m 14,8 C 16,4 C 4,8 km/h (1 Bft) 97,87 %
16.09.2016 02:54 16,4 C 89 % 1010,5 hPa 0,0 l/m 1,7 km/h (1 Bft) S 185 0 min 0,000 mm 0,0 UV-I 0 W/m 14,6 C 16,4 C 3,2 km/h (1 Bft) 97,96 %
16.09.2016 02:56 16,4 C 89 % 1010,6 hPa 0,0 l/m 3,0 km/h (1 Bft) S 185 0 min 0,000 mm 0,0 UV-I 0 W/m 14,6 C 16,4 C 4,8 km/h (1 Bft) 97,87 %
16.09.2016 02:58 16,4 C 89 % 1010,6 hPa 0,0 l/m 2,4 km/h (1 Bft) S 185 0 min 0,000 mm 0,0 UV-I 0 W/m 14,6 C 16,4 C 3,2 km/h (1 Bft) 100,00 %
16.09.2016 03:00 16,3 C 89 % 1010,6 hPa 0,0 l/m 3,2 km/h (1 Bft) S 185 0 min 0,000 mm 0,0 UV-I 0 W/m 14,5 C 16,3 C 4,8 km/h (1 Bft) 100,00 %
16.09.2016 03:02 16,3 C 90 % 1010,6 hPa 0,0 l/m 3,9 km/h (1 Bft) S 182 0 min 0,000 mm 0,0 UV-I 0 W/m 14,7 C 16,3 C 6,4 km/h (2 Bft) 100,00 %
16.09.2016 03:04 16,3 C 90 % 1010,7 hPa 0,0 l/m 4,6 km/h (1 Bft) S 179 0 min 0,000 mm 0,0 UV-I 0 W/m 14,7 C 16,3 C 6,4 km/h (2 Bft) 100,00 %
16.09.2016 03:06 16,3 C 90 % 1010,6 hPa 0,0 l/m 6,7 km/h (2 Bft) S 180 0 min 0,000 mm 0,0 UV-I 0 W/m 14,7 C 16,2 C 8,0 km/h (2 Bft) 100,00 %
16.09.2016 03:08 16,3 C 90 % 1010,7 hPa 0,0 l/m 7,1 km/h (2 Bft) S 186 0 min 0,000 mm 0,0 UV-I 0 W/m 14,7 C 15,9 C 9,7 km/h (2 Bft) 100,00 %
16.09.2016 03:10 16,4 C 90 % 1010,6 hPa 0,0 l/m 6,4 km/h (2 Bft) S-SW 194 0 min 0,000 mm 0,0 UV-I 0 W/m 14,8 C 16,4 C 9,7 km/h (2 Bft) 100,00 %
16.09.2016 03:12 16,4 C 90 % 1010,7 hPa 0,0 l/m 5,9 km/h (2 Bft) S-SW 192 0 min 0,000 mm 0,0 UV-I 0 W/m 14,8 C 16,4 C 8,0 km/h (2 Bft) 100,00 %
16.09.2016 03:14 16,5 C 89 % 1010,7 hPa 0,0 l/m 6,4 km/h (2 Bft) S-SW 198 0 min 0,000 mm 0,0 UV-I 0 W/m 14,7 C 16,5 C 8,0 km/h (2 Bft) 97,96 %
16.09.2016 03:16 16,4 C 89 % 1010,8 hPa 0,0 l/m 4,7 km/h (1 Bft) S-SW 202 0 min 0,000 mm 0,0 UV-I 0 W/m 14,6 C 16,4 C 6,4 km/h (2 Bft) 97,87 %
16.09.2016 03:18 16,4 C 89 % 1010,8 hPa 0,0 l/m 5,4 km/h (1 Bft) SW 217 0 min 0,000 mm 0,0 UV-I 0 W/m 14,6 C 16,4 C 8,0 km/h (2 Bft) 100,00 %
16.09.2016 03:20 16,4 C 89 % 1010,8 hPa 0,0 l/m 7,9 km/h (2 Bft) S-SW 213 0 min 0,000 mm 0,0 UV-I 0 W/m 14,6 C 15,6 C 11,3 km/h (2 Bft) 98,00 %
16.09.2016 03:22 16,4 C 89 % 1010,8 hPa 0,0 l/m 7,9 km/h (2 Bft) SW 232 0 min 0,000 mm 0,0 UV-I 0 W/m 14,6 C 15,6 C 12,9 km/h (3 Bft) 100,00 %
16.09.2016 03:24 16,4 C 89 % 1010,9 hPa 0,0 l/m 9,1 km/h (2 Bft) S-SW 196 0 min 0,000 mm 0,0 UV-I 0 W/m 14,6 C 15,1 C 12,9 km/h (3 Bft) 100,00 %
16.09.2016 03:26 16,5 C 89 % 1010,9 hPa 0,0 l/m 9,9 km/h (2 Bft) W-SW 248 0 min 0,000 mm 0,0 UV-I 0 W/m 14,7 C 14,8 C 14,5 km/h (3 Bft) 100,00 %
16.09.2016 03:28 16,7 C 89 % 1010,8 hPa 0,0 l/m 9,1 km/h (2 Bft) SW 220 0 min 0,000 mm 0,0 UV-I 0 W/m 14,9 C 15,4 C 14,5 km/h (3 Bft) 100,00 %
16.09.2016 03:30 16,8 C 88 % 1010,9 hPa 0,0 l/m 9,6 km/h (2 Bft) W-SW 247 0 min 0,000 mm 0,0 UV-I 0 W/m 14,8 C 15,3 C 17,7 km/h (3 Bft) 100,00 %
16.09.2016 03:32 16,9 C 87 % 1010,8 hPa 0,0 l/m 9,6 km/h (2 Bft) SW 224 0 min 0,000 mm 0,0 UV-I 0 W/m 14,7 C 15,4 C 16,1 km/h (3 Bft) 100,00 %
16.09.2016 03:34 17,1 C 87 % 1010,8 hPa 0,0 l/m 7,4 km/h (2 Bft) W-SW 254 0 min 0,000 mm 0,0 UV-I 0 W/m 14,9 C 16,6 C 11,3 km/h (2 Bft) 100,00 %
16.09.2016 03:36 17,1 C 87 % 1010,8 hPa 0,0 l/m 7,1 km/h (2 Bft) SW 229 0 min 0,000 mm 0,0 UV-I 0 W/m 14,9 C 16,7 C 11,3 km/h (2 Bft) 100,00 %
16.09.2016 03:38 17,2 C 87 % 1010,8 hPa 0,0 l/m 7,7 km/h (2 Bft) S 178 0 min 0,000 mm 0,0 UV-I 0 W/m 15,0 C 16,6 C 11,3 km/h (2 Bft) 97,37 %
16.09.2016 03:40 17,3 C 86 % 1010,8 hPa 0,0 l/m 7,2 km/h (2 Bft) S 178 0 min 0,000 mm 0,0 UV-I 0 W/m 14,9 C 16,9 C 11,3 km/h (2 Bft) 97,87 %
16.09.2016 03:42 17,3 C 86 % 1010,8 hPa 0,0 l/m 7,0 km/h (2 Bft) S-SW 197 0 min 0,000 mm 0,0 UV-I 0 W/m 14,9 C 17,0 C 11,3 km/h (2 Bft) 97,92 %
16.09.2016 03:44 17,3 C 86 % 1010,8 hPa 0,0 l/m 7,4 km/h (2 Bft) S-SW 206 0 min 0,000 mm 0,0 UV-I 0 W/m 14,9 C 16,8 C 11,3 km/h (2 Bft) 97,87 %
16.09.2016 03:46 17,3 C 86 % 1010,8 hPa 0,0 l/m 8,8 km/h (2 Bft) S 186 0 min 0,000 mm 0,0 UV-I 0 W/m 14,9 C 16,2 C 11,3 km/h (2 Bft) 92,00 %
16.09.2016 03:48 17,3 C 86 % 1010,8 hPa 0,0 l/m 7,4 km/h (2 Bft) S-SW 213 0 min 0,000 mm 0,0 UV-I 0 W/m 14,9 C 16,8 C 9,7 km/h (2 Bft) 97,87 %
16.09.2016 03:50 17,2 C 86 % 1010,9 hPa 0,0 l/m 9,3 km/h (2 Bft) S-SW 196 0 min 0,000 mm 0,0 UV-I 0 W/m 14,8 C 15,8 C 12,9 km/h (3 Bft) 97,87 %
16.09.2016 03:52 17,2 C 87 % 1010,8 hPa 0,0 l/m 7,5 km/h (2 Bft) S-SW 211 0 min 0,000 mm 0,0 UV-I 0 W/m 15,0 C 16,7 C 11,3 km/h (2 Bft) 97,96 %
16.09.2016 03:54 17,2 C 87 % 1010,9 hPa 0,0 l/m 8,5 km/h (2 Bft) S 188 0 min 0,000 mm 0,0 UV-I 0 W/m 15,0 C 16,2 C 11,3 km/h (2 Bft) 97,37 %
16.09.2016 03:56 17,1 C 87 % 1010,9 hPa 0,0 l/m 6,7 km/h (2 Bft) S 175 0 min 0,000 mm 0,0 UV-I 0 W/m 14,9 C 17,0 C 9,7 km/h (2 Bft) 95,74 %
16.09.2016 03:58 17,0 C 87 % 1010,9 hPa 0,0 l/m 6,7 km/h (2 Bft) SW 216 0 min 0,000 mm 0,0 UV-I 0 W/m 14,8 C 16,9 C 9,7 km/h (2 Bft) 98,11 %
16.09.2016 04:00 17,0 C 87 % 1010,9 hPa 0,0 l/m 7,4 km/h (2 Bft) SW 221 0 min 0,025 mm 0,0 UV-I 0 W/m 14,8 C 16,5 C 11,3 km/h (2 Bft) 97,87 %
16.09.2016 04:02 16,9 C 87 % 1010,9 hPa 0,0 l/m 6,7 km/h (2 Bft) S-SW 201 0 min 0,000 mm 0,0 UV-I 0 W/m 14,7 C 16,8 C 9,7 km/h (2 Bft) 97,22 %
16.09.2016 04:04 16,9 C 87 % 1010,9 hPa 0,0 l/m 7,5 km/h (2 Bft) S-SW 196 0 min 0,000 mm 0,0 UV-I 0 W/m 14,7 C 16,3 C 9,7 km/h (2 Bft) 97,22 %
16.09.2016 04:06 16,8 C 87 % 1010,9 hPa 0,0 l/m 6,8 km/h (2 Bft) S 190 0 min 0,000 mm 0,0 UV-I 0 W/m 14,6 C 16,6 C 9,7 km/h (2 Bft) 95,74 %
16.09.2016 04:08 16,8 C 88 % 1010,9 hPa 0,0 l/m 6,8 km/h (2 Bft) S-SW 208 0 min 0,000 mm 0,0 UV-I 0 W/m 14,8 C 16,6 C 9,7 km/h (2 Bft) 96,00 %
16.09.2016 04:10 16,8 C 88 % 1011,0 hPa 0,0 l/m 7,4 km/h (2 Bft) SW 226 0 min 0,000 mm 0,0 UV-I 0 W/m 14,8 C 16,3 C 11,3 km/h (2 Bft) 95,74 %
16.09.2016 04:12 16,8 C 88 % 1011,0 hPa 0,0 l/m 6,8 km/h (2 Bft) S 185 0 min 0,000 mm 0,0 UV-I 0 W/m 14,8 C 16,6 C 9,7 km/h (2 Bft) 100,00 %
16.09.2016 04:14 16,8 C 88 % 1011,0 hPa 0,0 l/m 7,8 km/h (2 Bft) S 183 0 min 0,000 mm 0,0 UV-I 0 W/m 14,8 C 16,1 C 11,3 km/h (2 Bft) 100,00 %
16.09.2016 04:16 16,7 C 87 % 1011,1 hPa 0,0 l/m 8,5 km/h (2 Bft) W-SW 242 0 min 0,000 mm 0,0 UV-I 0 W/m 14,5 C 15,6 C 12,9 km/h (3 Bft) 97,87 %
16.09.2016 04:18 16,7 C 87 % 1011,1 hPa 0,0 l/m 7,5 km/h (2 Bft) SW 229 0 min 0,000 mm 0,0 UV-I 0 W/m 14,5 C 16,1 C 12,9 km/h (3 Bft) 100,00 %
16.09.2016 04:20 16,7 C 87 % 1011,0 hPa 0,0 l/m 7,1 km/h (2 Bft) S-SW 203 0 min 0,000 mm 0,0 UV-I 0 W/m 14,5 C 16,3 C 11,3 km/h (2 Bft) 100,00 %
16.09.2016 04:22 16,7 C 87 % 1011,0 hPa 0,0 l/m 6,5 km/h (2 Bft) SW 232 0 min 0,000 mm 0,0 UV-I 0 W/m 14,5 C 16,7 C 8,0 km/h (2 Bft) 100,00 %
16.09.2016 04:24 16,7 C 87 % 1011,0 hPa 0,0 l/m 5,6 km/h (1 Bft) S-SW 198 0 min 0,000 mm 0,0 UV-I 0 W/m 14,5 C 16,7 C 8,0 km/h (2 Bft) 100,00 %
16.09.2016 04:26 16,7 C 87 % 1011,0 hPa 0,0 l/m 5,4 km/h (1 Bft) S 184 0 min 0,000 mm 0,0 UV-I 0 W/m 14,5 C 16,7 C 8,0 km/h (2 Bft) 100,00 %
16.09.2016 04:28 16,7 C 87 % 1011,0 hPa 0,0 l/m 5,0 km/h (1 Bft) SW 221 0 min 0,000 mm 0,0 UV-I 0 W/m 14,5 C 16,7 C 8,0 km/h (2 Bft) 100,00 %
16.09.2016 04:30 16,6 C 87 % 1011,0 hPa 0,0 l/m 6,0 km/h (2 Bft) S-SW 200 0 min 0,000 mm 0,0 UV-I 0 W/m 14,4 C 16,6 C 9,7 km/h (2 Bft) 100,00 %
16.09.2016 04:32 16,7 C 87 % 1011,0 hPa 0,0 l/m 6,5 km/h (2 Bft) S-SW 201 0 min 0,000 mm 0,0 UV-I 0 W/m 14,5 C 16,7 C 8,0 km/h (2 Bft) 100,00 %
16.09.2016 04:34 16,7 C 87 % 1011,0 hPa 0,0 l/m 5,1 km/h (1 Bft) SW 220 0 min 0,000 mm 0,0 UV-I 0 W/m 14,5 C 16,7 C 8,0 km/h (2 Bft) 100,00 %
16.09.2016 04:36 16,6 C 87 % 1011,0 hPa 0,0 l/m 4,4 km/h (1 Bft) S-SW 206 0 min 0,000 mm 0,0 UV-I 0 W/m 14,4 C 16,6 C 6,4 km/h (2 Bft) 95,74 %
16.09.2016 04:38 16,6 C 87 % 1011,1 hPa 0,0 l/m 5,1 km/h (1 Bft) SW 214 0 min 0,000 mm 0,0 UV-I 0 W/m 14,4 C 16,6 C 6,4 km/h (2 Bft) 100,00 %
16.09.2016 04:40 16,6 C 88 % 1011,2 hPa 0,0 l/m 5,6 km/h (1 Bft) SW 234 0 min 0,000 mm 0,0 UV-I 0 W/m 14,6 C 16,6 C 8,0 km/h (2 Bft) 97,87 %
16.09.2016 04:42 16,5 C 88 % 1011,2 hPa 0,0 l/m 6,4 km/h (2 Bft) SW 234 0 min 0,000 mm 0,0 UV-I 0 W/m 14,5 C 16,5 C 9,7 km/h (2 Bft) 97,92 %
16.09.2016 04:44 16,4 C 88 % 1011,2 hPa 0,0 l/m 5,6 km/h (1 Bft) SW 231 0 min 0,000 mm 0,0 UV-I 0 W/m 14,4 C 16,4 C 6,4 km/h (2 Bft) 100,00 %
16.09.2016 04:46 16,4 C 88 % 1011,2 hPa 0,0 l/m 5,9 km/h (2 Bft) SW 214 0 min 0,000 mm 0,0 UV-I 0 W/m 14,4 C 16,4 C 8,0 km/h (2 Bft) 100,00 %
16.09.2016 04:48 16,4 C 88 % 1011,2 hPa 0,0 l/m 7,4 km/h (2 Bft) S-SW 211 0 min 0,000 mm 0,0 UV-I 0 W/m 14,4 C 15,9 C 9,7 km/h (2 Bft) 100,00 %
16.09.2016 04:50 16,4 C 88 % 1011,2 hPa 0,0 l/m 6,7 km/h (2 Bft) SW 223 0 min 0,000 mm 0,0 UV-I 0 W/m 14,4 C 16,3 C 8,0 km/h (2 Bft) 100,00 %
16.09.2016 04:52 16,4 C 88 % 1011,2 hPa 0,0 l/m 6,4 km/h (2 Bft) SW 236 0 min 0,000 mm 0,0 UV-I 0 W/m 14,4 C 16,4 C 9,7 km/h (2 Bft) 95,74 %
16.09.2016 04:54 16,4 C 88 % 1011,3 hPa 0,0 l/m 6,1 km/h (2 Bft) SW 229 0 min 0,000 mm 0,0 UV-I 0 W/m 14,4 C 16,4 C 8,0 km/h (2 Bft) 100,00 %
16.09.2016 04:56 16,4 C 88 % 1011,3 hPa 0,0 l/m 5,3 km/h (1 Bft) SW 229 0 min 0,000 mm 0,0 UV-I 0 W/m 14,4 C 16,4 C 6,4 km/h (2 Bft) 97,87 %
16.09.2016 04:58 16,4 C 88 % 1011,3 hPa 0,0 l/m 4,5 km/h (1 Bft) W-SW 238 0 min 0,000 mm 0,0 UV-I 0 W/m 14,4 C 16,4 C 6,4 km/h (2 Bft) 100,00 %
16.09.2016 05:00 16,4 C 88 % 1011,2 hPa 0,0 l/m 4,9 km/h (1 Bft) SW 234 0 min 0,000 mm 0,0 UV-I 0 W/m 14,4 C 16,4 C 6,4 km/h (2 Bft) 100,00 %
16.09.2016 05:02 16,3 C 88 % 1011,3 hPa 0,0 l/m 4,9 km/h (1 Bft) W-SW 247 0 min 0,026 mm 0,0 UV-I 0 W/m 14,3 C 16,3 C 8,0 km/h (2 Bft) 96,00 %
16.09.2016 05:04 16,3 C 88 % 1011,3 hPa 0,0 l/m 5,0 km/h (1 Bft) S-SW 213 0 min 0,000 mm 0,0 UV-I 0 W/m 14,3 C 16,3 C 8,0 km/h (2 Bft) 97,37 %
16.09.2016 05:06 16,3 C 88 % 1011,3 hPa 0,0 l/m 6,2 km/h (2 Bft) SW 226 0 min 0,000 mm 0,0 UV-I 0 W/m 14,3 C 16,3 C 8,0 km/h (2 Bft) 100,00 %
16.09.2016 05:08 16,3 C 89 % 1011,3 hPa 0,0 l/m 6,8 km/h (2 Bft) W-SW 250 0 min 0,000 mm 0,0 UV-I 0 W/m 14,5 C 16,1 C 11,3 km/h (2 Bft) 98,00 %
16.09.2016 05:10 16,3 C 88 % 1011,3 hPa 0,0 l/m 8,0 km/h (2 Bft) W-SW 257 0 min 0,000 mm 0,0 UV-I 0 W/m 14,3 C 15,5 C 11,3 km/h (2 Bft) 100,00 %
16.09.2016 05:12 16,3 C 88 % 1011,4 hPa 0,0 l/m 7,9 km/h (2 Bft) S-SW 208 0 min 0,000 mm 0,0 UV-I 0 W/m 14,3 C 15,5 C 12,9 km/h (3 Bft) 97,87 %
16.09.2016 05:14 16,3 C 88 % 1011,4 hPa 0,0 l/m 7,4 km/h (2 Bft) W-SW 254 0 min 0,000 mm 0,0 UV-I 0 W/m 14,3 C 15,8 C 11,3 km/h (2 Bft) 100,00 %
16.09.2016 05:16 16,3 C 88 % 1011,4 hPa 0,0 l/m 6,7 km/h (2 Bft) W-SW 248 0 min 0,000 mm 0,0 UV-I 0 W/m 14,3 C 16,2 C 11,3 km/h (2 Bft) 97,87 %
16.09.2016 05:18 16,4 C 88 % 1011,4 hPa 0,0 l/m 7,3 km/h (2 Bft) SW 223 0 min 0,000 mm 0,0 UV-I 0 W/m 14,4 C 15,9 C 11,3 km/h (2 Bft) 97,87 %
16.09.2016 05:20 16,4 C 88 % 1011,5 hPa 0,0 l/m 7,6 km/h (2 Bft) W-SW 252 0 min 0,000 mm 0,0 UV-I 0 W/m 14,4 C 15,8 C 12,9 km/h (3 Bft) 100,00 %
16.09.2016 05:22 16,4 C 88 % 1011,4 hPa 0,0 l/m 7,8 km/h (2 Bft) SW 223 0 min 0,000 mm 0,0 UV-I 0 W/m 14,4 C 15,7 C 12,9 km/h (3 Bft) 97,87 %
16.09.2016 05:24 16,4 C 88 % 1011,4 hPa 0,0 l/m 8,0 km/h (2 Bft) SW 215 0 min 0,000 mm 0,0 UV-I 0 W/m 14,4 C 15,6 C 12,9 km/h (3 Bft) 95,83 %
16.09.2016 05:26 16,4 C 88 % 1011,4 hPa 0,0 l/m 10,5 km/h (2 Bft) SW 218 0 min 0,000 mm 0,0 UV-I 0 W/m 14,4 C 14,5 C 16,1 km/h (3 Bft) 100,00 %
16.09.2016 05:28 16,4 C 88 % 1011,5 hPa 0,0 l/m 10,2 km/h (2 Bft) SW 217 0 min 0,000 mm 0,0 UV-I 0 W/m 14,4 C 14,6 C 16,1 km/h (3 Bft) 100,00 %
16.09.2016 05:30 16,5 C 88 % 1011,4 hPa 0,0 l/m 9,0 km/h (2 Bft) SW 221 0 min 0,000 mm 0,0 UV-I 0 W/m 14,5 C 15,2 C 14,5 km/h (3 Bft) 100,00 %
16.09.2016 05:32 16,5 C 88 % 1011,4 hPa 0,0 l/m 7,6 km/h (2 Bft) W-SW 238 0 min 0,000 mm 0,0 UV-I 0 W/m 14,5 C 15,9 C 11,3 km/h (2 Bft) 100,00 %
16.09.2016 05:34 16,5 C 88 % 1011,4 hPa 0,0 l/m 8,3 km/h (2 Bft) SW 236 0 min 0,000 mm 0,0 UV-I 0 W/m 14,5 C 15,5 C 16,1 km/h (3 Bft) 97,87 %
16.09.2016 05:36 16,5 C 88 % 1011,4 hPa 0,0 l/m 10,1 km/h (2 Bft) W-SW 242 0 min 0,000 mm 0,0 UV-I 0 W/m 14,5 C 14,7 C 14,5 km/h (3 Bft) 100,00 %
16.09.2016 05:38 16,5 C 88 % 1011,4 hPa 0,0 l/m 9,9 km/h (2 Bft) W-SW 244 0 min 0,000 mm 0,0 UV-I 0 W/m 14,5 C 14,8 C 12,9 km/h (3 Bft) 100,00 %
16.09.2016 05:40 16,5 C 88 % 1011,5 hPa 0,0 l/m 8,4 km/h (2 Bft) W-SW 252 0 min 0,000 mm 0,0 UV-I 0 W/m 14,5 C 15,5 C 11,3 km/h (2 Bft) 97,87 %
16.09.2016 05:42 16,4 C 88 % 1011,5 hPa 0,0 l/m 6,9 km/h (2 Bft) W-SW 250 0 min 0,000 mm 0,0 UV-I 0 W/m 14,4 C 16,1 C 9,7 km/h (2 Bft) 95,74 %
16.09.2016 05:44 16,4 C 88 % 1011,5 hPa 0,0 l/m 7,2 km/h (2 Bft) SW 221 0 min 0,000 mm 0,0 UV-I 0 W/m 14,4 C 16,0 C 9,7 km/h (2 Bft) 97,87 %
16.09.2016 05:46 16,3 C 88 % 1011,5 hPa 0,0 l/m 7,0 km/h (2 Bft) S-SW 198 0 min 0,000 mm 0,0 UV-I 0 W/m 14,3 C 16,0 C 11,3 km/h (2 Bft) 97,87 %
16.09.2016 05:48 16,3 C 88 % 1011,5 hPa 0,0 l/m 8,7 km/h (2 Bft) W-SW 239 0 min 0,000 mm 0,0 UV-I 0 W/m 14,3 C 15,1 C 11,3 km/h (2 Bft) 94,00 %
16.09.2016 05:50 16,3 C 88 % 1011,6 hPa 0,0 l/m 7,9 km/h (2 Bft) S-SW 209 0 min 0,000 mm 0,0 UV-I 0 W/m 14,3 C 15,5 C 11,3 km/h (2 Bft) 97,37 %
16.09.2016 05:52 16,3 C 88 % 1011,6 hPa 0,0 l/m 6,7 km/h (2 Bft) SW 231 0 min 0,000 mm 0,0 UV-I 0 W/m 14,3 C 16,2 C 9,7 km/h (2 Bft) 97,87 %
16.09.2016 05:54 16,3 C 88 % 1011,6 hPa 0,0 l/m 7,0 km/h (2 Bft) S-SW 210 0 min 0,000 mm 0,0 UV-I 0 W/m 14,3 C 16,0 C 9,7 km/h (2 Bft) 95,74 %
16.09.2016 05:56 16,3 C 88 % 1011,6 hPa 0,0 l/m 8,6 km/h (2 Bft) W-SW 248 0 min 0,000 mm 0,0 UV-I 0 W/m 14,3 C 15,2 C 14,5 km/h (3 Bft) 95,83 %
16.09.2016 05:58 16,3 C 89 % 1011,6 hPa 0,0 l/m 8,2 km/h (2 Bft) SW 219 0 min 0,000 mm 0,0 UV-I 0 W/m 14,5 C 15,4 C 11,3 km/h (2 Bft) 95,92 %
16.09.2016 06:00 16,3 C 88 % 1011,6 hPa 0,0 l/m 8,4 km/h (2 Bft) S-SW 204 0 min 0,025 mm 0,0 UV-I 0 W/m 14,3 C 15,3 C 12,9 km/h (3 Bft) 95,83 %
16.09.2016 06:02 16,3 C 88 % 1011,6 hPa 0,0 l/m 6,3 km/h (2 Bft) SW 232 0 min 0,000 mm 0,0 UV-I 0 W/m 14,3 C 16,3 C 11,3 km/h (2 Bft) 96,00 %
16.09.2016 06:04 16,3 C 88 % 1011,6 hPa 0,0 l/m 7,1 km/h (2 Bft) W-SW 240 0 min 0,000 mm 0,0 UV-I 0 W/m 14,3 C 15,9 C 9,7 km/h (2 Bft) 95,74 %
16.09.2016 06:06 16,3 C 88 % 1011,6 hPa 0,0 l/m 6,1 km/h (2 Bft) SW 225 0 min 0,000 mm 0,0 UV-I 0 W/m 14,3 C 16,3 C 8,0 km/h (2 Bft) 97,87 %
16.09.2016 06:08 16,3 C 89 % 1011,6 hPa 0,0 l/m 5,6 km/h (1 Bft) SW 225 0 min 0,000 mm 0,0 UV-I 0 W/m 14,5 C 16,3 C 9,7 km/h (2 Bft) 95,74 %
16.09.2016 06:10 16,3 C 89 % 1011,7 hPa 0,0 l/m 7,1 km/h (2 Bft) W-SW 240 0 min 0,000 mm 0,0 UV-I 0 W/m 14,5 C 15,9 C 12,9 km/h (3 Bft) 97,37 %
16.09.2016 06:12 16,3 C 89 % 1011,7 hPa 0,0 l/m 8,5 km/h (2 Bft) SW 218 0 min 0,000 mm 0,0 UV-I 0 W/m 14,5 C 15,2 C 12,9 km/h (3 Bft) 97,87 %
16.09.2016 06:14 16,3 C 89 % 1011,7 hPa 0,0 l/m 9,0 km/h (2 Bft) SW 236 0 min 0,000 mm 0,0 UV-I 0 W/m 14,5 C 15,0 C 12,9 km/h (3 Bft) 97,87 %
16.09.2016 06:16 16,2 C 89 % 1011,7 hPa 0,0 l/m 7,9 km/h (2 Bft) SW 230 0 min 0,000 mm 0,0 UV-I 0 W/m 14,4 C 15,4 C 11,3 km/h (2 Bft) 93,62 %
16.09.2016 06:18 16,2 C 89 % 1011,8 hPa 0,0 l/m 8,6 km/h (2 Bft) W-SW 245 0 min 0,000 mm 0,0 UV-I 0 W/m 14,4 C 15,1 C 11,3 km/h (2 Bft) 94,00 %
16.09.2016 06:20 16,2 C 89 % 1011,8 hPa 0,0 l/m 8,5 km/h (2 Bft) SW 221 0 min 0,000 mm 0,0 UV-I 0 W/m 14,4 C 15,1 C 14,5 km/h (3 Bft) 100,00 %
16.09.2016 06:22 16,3 C 90 % 1011,8 hPa 0,0 l/m 8,8 km/h (2 Bft) SW 233 0 min 0,000 mm 0,0 UV-I 0 W/m 14,7 C 15,1 C 14,5 km/h (3 Bft) 100,00 %
16.09.2016 06:24 16,3 C 89 % 1011,8 hPa 0,0 l/m 9,6 km/h (2 Bft) SW 225 0 min 0,000 mm 0,0 UV-I 0 W/m 14,5 C 14,7 C 14,5 km/h (3 Bft) 100,00 %
16.09.2016 06:26 16,4 C 89 % 1011,8 hPa 0,0 l/m 9,7 km/h (2 Bft) SW 221 0 min 0,000 mm 0,0 UV-I 0 W/m 14,6 C 14,8 C 14,5 km/h (3 Bft) 100,00 %
16.09.2016 06:28 16,4 C 89 % 1011,8 hPa 0,0 l/m 10,9 km/h (2 Bft) W-SW 239 0 min 0,000 mm 0,0 UV-I 0 W/m 14,6 C 14,3 C 16,1 km/h (3 Bft) 100,00 %
16.09.2016 06:30 16,4 C 89 % 1011,8 hPa 0,0 l/m 13,3 km/h (3 Bft) SW 226 0 min 0,000 mm 0,0 UV-I 0 W/m 14,6 C 13,4 C 17,7 km/h (3 Bft) 100,00 %
16.09.2016 06:32 16,4 C 89 % 1011,8 hPa 0,0 l/m 9,5 km/h (2 Bft) W-SW 237 0 min 0,000 mm 0,0 UV-I 0 W/m 14,6 C 14,9 C 14,5 km/h (3 Bft) 100,00 %
16.09.2016 06:34 16,5 C 89 % 1011,8 hPa 0,0 l/m 12,4 km/h (3 Bft) S-SW 213 0 min 0,000 mm 0,0 UV-I 0 W/m 14,7 C 13,9 C 16,1 km/h (3 Bft) 100,00 %
16.09.2016 06:36 16,5 C 89 % 1011,9 hPa 0,0 l/m 10,8 km/h (2 Bft) S 190 0 min 0,000 mm 0,0 UV-I 0 W/m 14,7 C 14,5 C 19,3 km/h (3 Bft) 100,00 %
16.09.2016 06:38 16,6 C 89 % 1011,8 hPa 0,0 l/m 12,1 km/h (2 Bft) SW 232 0 min 0,000 mm 0,0 UV-I 0 W/m 14,8 C 14,1 C 17,7 km/h (3 Bft) 100,00 %
16.09.2016 06:40 16,6 C 89 % 1011,8 hPa 0,0 l/m 11,3 km/h (2 Bft) SW 219 0 min 0,000 mm 0,0 UV-I 0 W/m 14,8 C 14,4 C 17,7 km/h (3 Bft) 100,00 %
16.09.2016 06:42 16,6 C 89 % 1011,8 hPa 0,0 l/m 11,0 km/h (2 Bft) W 266 0 min 0,000 mm 0,0 UV-I 1 W/m 14,8 C 14,5 C 16,1 km/h (3 Bft) 100,00 %
16.09.2016 06:44 16,6 C 89 % 1011,8 hPa 0,0 l/m 10,4 km/h (2 Bft) W-SW 248 0 min 0,000 mm 0,0 UV-I 5 W/m 14,8 C 14,7 C 16,1 km/h (3 Bft) 100,00 %
16.09.2016 06:46 16,6 C 89 % 1011,7 hPa 0,0 l/m 8,8 km/h (2 Bft) S-SW 206 0 min 0,000 mm 0,0 UV-I 5 W/m 14,8 C 15,4 C 14,5 km/h (3 Bft) 97,14 %
16.09.2016 06:48 16,6 C 89 % 1011,8 hPa 0,0 l/m 10,1 km/h (2 Bft) SW 226 0 min 0,000 mm 0,0 UV-I 6 W/m 14,8 C 14,8 C 14,5 km/h (3 Bft) 98,08 %
16.09.2016 06:50 16,6 C 89 % 1011,8 hPa 0,0 l/m 9,8 km/h (2 Bft) SW 215 0 min 0,000 mm 0,0 UV-I 7 W/m 14,8 C 15,0 C 16,1 km/h (3 Bft) 100,00 %
16.09.2016 06:52 16,6 C 89 % 1011,8 hPa 0,0 l/m 11,3 km/h (2 Bft) W-SW 246 0 min 0,000 mm 0,0 UV-I 8 W/m 14,8 C 14,4 C 17,7 km/h (3 Bft) 100,00 %
16.09.2016 06:54 16,7 C 89 % 1011,8 hPa 0,0 l/m 10,3 km/h (2 Bft) SW 227 0 min 0,000 mm 0,0 UV-I 9 W/m 14,9 C 14,9 C 16,1 km/h (3 Bft) 100,00 %
16.09.2016 06:56 16,7 C 89 % 1011,9 hPa 0,0 l/m 10,2 km/h (2 Bft) W 262 0 min 0,000 mm 0,0 UV-I 10 W/m 14,9 C 14,9 C 16,1 km/h (3 Bft) 100,00 %
16.09.2016 06:58 16,7 C 89 % 1011,9 hPa 0,0 l/m 12,0 km/h (2 Bft) SW 227 0 min 0,000 mm 0,0 UV-I 11 W/m 14,9 C 14,2 C 19,3 km/h (3 Bft) 97,87 %
16.09.2016 07:00 16,7 C 89 % 1011,9 hPa 0,0 l/m 13,1 km/h (3 Bft) SW 229 0 min 0,026 mm 0,0 UV-I 12 W/m 14,9 C 13,9 C 20,9 km/h (4 Bft) 95,74 %
16.09.2016 07:02 16,8 C 89 % 1012,0 hPa 0,0 l/m 13,2 km/h (3 Bft) SW 214 0 min 0,000 mm 0,0 UV-I 14 W/m 15,0 C 13,9 C 19,3 km/h (3 Bft) 100,00 %
16.09.2016 07:04 16,8 C 89 % 1012,1 hPa 0,0 l/m 13,7 km/h (3 Bft) SW 222 0 min 0,000 mm 0,0 UV-I 16 W/m 15,0 C 13,8 C 19,3 km/h (3 Bft) 97,87 %
16.09.2016 07:06 16,8 C 88 % 1012,1 hPa 0,0 l/m 15,0 km/h (3 Bft) SW 219 0 min 0,000 mm 0,0 UV-I 17 W/m 14,8 C 13,4 C 20,9 km/h (4 Bft) 97,87 %
16.09.2016 07:08 16,9 C 88 % 1012,0 hPa 0,0 l/m 10,3 km/h (2 Bft) W-SW 252 0 min 0,000 mm 0,0 UV-I 19 W/m 14,9 C 15,1 C 16,1 km/h (3 Bft) 100,00 %
16.09.2016 07:10 16,9 C 88 % 1012,0 hPa 0,0 l/m 11,8 km/h (2 Bft) W-SW 252 0 min 0,000 mm 0,0 UV-I 20 W/m 14,9 C 14,5 C 17,7 km/h (3 Bft) 100,00 %
16.09.2016 07:12 16,9 C 88 % 1012,0 hPa 0,0 l/m 10,7 km/h (2 Bft) SW 227 0 min 0,000 mm 0,0 UV-I 22 W/m 14,9 C 14,9 C 16,1 km/h (3 Bft) 95,74 %
16.09.2016 07:14 17,0 C 88 % 1012,0 hPa 0,0 l/m 12,3 km/h (3 Bft) S-SW 207 0 min 0,000 mm 0,0 UV-I 25 W/m 15,0 C 14,5 C 17,7 km/h (3 Bft) 100,00 %
16.09.2016 07:16 17,0 C 88 % 1012,0 hPa 0,0 l/m 11,4 km/h (2 Bft) S-SW 208 0 min 0,000 mm 0,0 UV-I 26 W/m 15,0 C 14,8 C 19,3 km/h (3 Bft) 100,00 %
16.09.2016 07:18 17,0 C 88 % 1012,0 hPa 0,0 l/m 10,4 km/h (2 Bft) W 267 0 min 0,000 mm 0,0 UV-I 28 W/m 15,0 C 15,2 C 14,5 km/h (3 Bft) 97,87 %
16.09.2016 07:20 17,1 C 88 % 1012,0 hPa 0,0 l/m 12,9 km/h (3 Bft) W-SW 246 0 min 0,000 mm 0,0 UV-I 32 W/m 15,1 C 14,4 C 20,9 km/h (4 Bft) 100,00 %
16.09.2016 07:22 17,1 C 88 % 1012,0 hPa 0,0 l/m 10,9 km/h (2 Bft) W-SW 252 0 min 0,000 mm 0,0 UV-I 33 W/m 15,1 C 15,1 C 16,1 km/h (3 Bft) 100,00 %
16.09.2016 07:24 17,1 C 88 % 1012,0 hPa 0,0 l/m 10,9 km/h (2 Bft) W-SW 252 0 min 0,000 mm 0,0 UV-I 35 W/m 15,1 C 15,1 C 14,5 km/h (3 Bft) 97,87 %
16.09.2016 07:26 17,1 C 88 % 1012,0 hPa 0,0 l/m 9,0 km/h (2 Bft) W 261 0 min 0,000 mm 0,0 UV-I 38 W/m 15,1 C 15,9 C 17,7 km/h (3 Bft) 100,00 %
16.09.2016 07:28 17,1 C 87 % 1011,9 hPa 0,0 l/m 10,3 km/h (2 Bft) S-SW 209 0 min 0,000 mm 0,0 UV-I 40 W/m 14,9 C 15,3 C 17,7 km/h (3 Bft) 100,00 %
16.09.2016 07:30 17,1 C 88 % 1012,0 hPa 0,0 l/m 10,5 km/h (2 Bft) W-SW 239 0 min 0,000 mm 0,0 UV-I 43 W/m 15,1 C 15,2 C 19,3 km/h (3 Bft) 95,74 %
16.09.2016 07:32 17,1 C 88 % 1012,0 hPa 0,0 l/m 9,8 km/h (2 Bft) SW 228 0 min 0,000 mm 0,0 UV-I 47 W/m 15,1 C 15,5 C 14,5 km/h (3 Bft) 97,87 %
16.09.2016 07:34 17,1 C 88 % 1012,0 hPa 0,0 l/m 11,5 km/h (2 Bft) SW 233 0 min 0,000 mm 0,0 UV-I 50 W/m 15,1 C 14,9 C 19,3 km/h (3 Bft) 100,00 %
16.09.2016 07:36 17,1 C 88 % 1012,0 hPa 0,0 l/m 9,9 km/h (2 Bft) W-SW 237 0 min 0,000 mm 0,0 UV-I 54 W/m 15,1 C 15,5 C 17,7 km/h (3 Bft) 97,92 %
16.09.2016 07:38 17,2 C 88 % 1012,0 hPa 0,0 l/m 9,8 km/h (2 Bft) SW 223 0 min 0,000 mm 0,0 UV-I 58 W/m 15,2 C 15,6 C 14,5 km/h (3 Bft) 97,87 %
16.09.2016 07:40 17,2 C 88 % 1011,9 hPa 0,0 l/m 10,3 km/h (2 Bft) W-SW 240 0 min 0,000 mm 0,0 UV-I 60 W/m 15,2 C 15,4 C 12,9 km/h (3 Bft) 100,00 %
16.09.2016 07:42 17,2 C 88 % 1011,8 hPa 0,0 l/m 11,8 km/h (2 Bft) SW 221 0 min 0,000 mm 0,0 UV-I 62 W/m 15,2 C 14,9 C 20,9 km/h (4 Bft) 97,87 %
16.09.2016 07:44 17,2 C 88 % 1011,9 hPa 0,0 l/m 11,7 km/h (2 Bft) W-SW 257 0 min 0,000 mm 0,0 UV-I 64 W/m 15,2 C 14,9 C 19,3 km/h (3 Bft) 94,74 %
16.09.2016 07:46 17,2 C 88 % 1011,9 hPa 0,0 l/m 10,7 km/h (2 Bft) SW 229 0 min 0,000 mm 0,0 UV-I 70 W/m 15,2 C 15,3 C 14,5 km/h (3 Bft) 98,00 %
16.09.2016 07:48 17,2 C 88 % 1012,0 hPa 0,0 l/m 10,2 km/h (2 Bft) SW 235 0 min 0,000 mm 0,0 UV-I 74 W/m 15,2 C 15,5 C 16,1 km/h (3 Bft) 97,87 %
16.09.2016 07:50 17,3 C 88 % 1012,0 hPa 0,0 l/m 9,9 km/h (2 Bft) SW 227 0 min 0,000 mm 0,0 UV-I 78 W/m 15,3 C 15,7 C 17,7 km/h (3 Bft) 95,74 %
16.09.2016 07:52 17,3 C 88 % 1012,0 hPa 0,0 l/m 10,9 km/h (2 Bft) W-SW 249 0 min 0,000 mm 0,0 UV-I 82 W/m 15,3 C 15,3 C 17,7 km/h (3 Bft) 97,87 %
16.09.2016 07:54 17,3 C 87 % 1012,0 hPa 0,0 l/m 7,8 km/h (2 Bft) W-SW 244 0 min 0,000 mm 0,0 UV-I 86 W/m 15,1 C 16,6 C 11,3 km/h (2 Bft) 97,92 %
16.09.2016 07:56 17,3 C 87 % 1012,0 hPa 0,0 l/m 8,7 km/h (2 Bft) SW 229 0 min 0,000 mm 0,0 UV-I 92 W/m 15,1 C 16,2 C 14,5 km/h (3 Bft) 95,74 %
16.09.2016 07:58 17,4 C 87 % 1012,0 hPa 0,0 l/m 10,2 km/h (2 Bft) W-SW 244 0 min 0,000 mm 0,0 UV-I 99 W/m 15,2 C 15,7 C 17,7 km/h (3 Bft) 97,87 %
16.09.2016 08:00 17,4 C 87 % 1012,0 hPa 0,0 l/m 11,4 km/h (2 Bft) SW 231 0 min 0,000 mm 0,0 UV-I 100 W/m 15,2 C 15,2 C 19,3 km/h (3 Bft) 96,23 %
16.09.2016 08:02 17,5 C 87 % 1012,0 hPa 0,0 l/m 13,3 km/h (3 Bft) W-SW 250 0 min 0,050 mm 0,0 UV-I 102 W/m 15,3 C 14,7 C 22,5 km/h (4 Bft) 97,37 %
16.09.2016 08:04 17,6 C 87 % 1012,0 hPa 0,0 l/m 12,8 km/h (3 Bft) S-SW 207 0 min 0,000 mm 0,0 UV-I 106 W/m 15,4 C 15,0 C 16,1 km/h (3 Bft) 98,00 %
16.09.2016 08:06 17,7 C 86 % 1012,0 hPa 0,0 l/m 9,6 km/h (2 Bft) W 267 0 min 0,000 mm 0,0 UV-I 115 W/m 15,3 C 16,3 C 16,1 km/h (3 Bft) 93,62 %
16.09.2016 08:08 17,7 C 86 % 1012,1 hPa 0,0 l/m 11,7 km/h (2 Bft) SW 236 2 min 0,000 mm 0,0 UV-I 129 W/m 15,3 C 15,5 C 17,7 km/h (3 Bft) 97,87 %
16.09.2016 08:10 17,7 C 86 % 1012,1 hPa 0,0 l/m 12,1 km/h (2 Bft) W-SW 237 0 min 0,000 mm 0,0 UV-I 126 W/m 15,3 C 15,3 C 19,3 km/h (3 Bft) 95,74 %
16.09.2016 08:12 17,8 C 86 % 1012,1 hPa 0,0 l/m 11,8 km/h (2 Bft) S-SW 209 0 min 0,000 mm 0,0 UV-I 119 W/m 15,4 C 15,6 C 16,1 km/h (3 Bft) 95,74 %
16.09.2016 08:14 17,8 C 86 % 1012,1 hPa 0,0 l/m 11,0 km/h (2 Bft) SW 234 0 min 0,000 mm 0,0 UV-I 103 W/m 15,4 C 15,8 C 17,7 km/h (3 Bft) 97,87 %
16.09.2016 08:16 17,8 C 86 % 1012,0 hPa 0,0 l/m 15,6 km/h (3 Bft) W-SW 242 0 min 0,000 mm 0,0 UV-I 92 W/m 15,4 C 14,4 C 20,9 km/h (4 Bft) 100,00 %
16.09.2016 08:18 17,8 C 86 % 1012,1 hPa 0,0 l/m 13,6 km/h (3 Bft) SW 229 0 min 0,000 mm 0,0 UV-I 90 W/m 15,4 C 15,0 C 20,9 km/h (4 Bft) 100,00 %
16.09.2016 08:20 17,8 C 86 % 1012,0 hPa 0,0 l/m 11,9 km/h (2 Bft) W-SW 251 0 min 0,000 mm 0,0 UV-I 95 W/m 15,4 C 15,5 C 17,7 km/h (3 Bft) 100,00 %
16.09.2016 08:22 17,8 C 86 % 1012,1 hPa 0,0 l/m 12,3 km/h (3 Bft) W-SW 246 0 min 0,000 mm 0,0 UV-I 107 W/m 15,4 C 15,4 C 19,3 km/h (3 Bft) 97,87 %
16.09.2016 08:24 17,8 C 86 % 1012,1 hPa 0,0 l/m 8,6 km/h (2 Bft) W-SW 254 0 min 0,000 mm 0,0 UV-I 109 W/m 15,4 C 16,8 C 17,7 km/h (3 Bft) 100,00 %
16.09.2016 08:26 17,8 C 86 % 1012,1 hPa 0,0 l/m 9,7 km/h (2 Bft) W-SW 250 0 min 0,000 mm 0,0 UV-I 117 W/m 15,4 C 16,3 C 19,3 km/h (3 Bft) 97,87 %
16.09.2016 08:28 17,9 C 86 % 1012,1 hPa 0,0 l/m 11,1 km/h (2 Bft) SW 234 0 min 0,000 mm 0,0 UV-I 115 W/m 15,5 C 15,9 C 16,1 km/h (3 Bft) 100,00 %
16.09.2016 08:30 17,9 C 86 % 1012,1 hPa 0,0 l/m 9,6 km/h (2 Bft) W-SW 248 0 min 0,000 mm 0,0 UV-I 148 W/m 15,5 C 16,5 C 12,9 km/h (3 Bft) 100,00 %
16.09.2016 08:32 17,9 C 86 % 1012,2 hPa 0,0 l/m 10,7 km/h (2 Bft) W-SW 244 0 min 0,000 mm 0,0 UV-I 143 W/m 15,5 C 16,1 C 17,7 km/h (3 Bft) 97,92 %
16.09.2016 08:34 18,0 C 85 % 1012,2 hPa 0,0 l/m 12,1 km/h (2 Bft) W-SW 238 0 min 0,000 mm 0,0 UV-I 136 W/m 15,4 C 15,7 C 17,7 km/h (3 Bft) 100,00 %
16.09.2016 08:36 18,1 C 85 % 1012,3 hPa 0,0 l/m 10,9 km/h (2 Bft) W-SW 254 0 min 0,000 mm 0,0 UV-I 128 W/m 15,5 C 16,2 C 17,7 km/h (3 Bft) 100,00 %
16.09.2016 08:38 18,1 C 85 % 1012,3 hPa 0,0 l/m 10,7 km/h (2 Bft) W-SW 255 0 min 0,000 mm 0,0 UV-I 124 W/m 15,5 C 16,3 C 16,1 km/h (3 Bft) 100,00 %
16.09.2016 08:40 18,1 C 85 % 1012,4 hPa 0,0 l/m 14,4 km/h (3 Bft) W-SW 250 0 min 0,000 mm 0,0 UV-I 125 W/m 15,5 C 15,1 C 22,5 km/h (4 Bft) 100,00 %
16.09.2016 08:42 18,2 C 85 % 1012,4 hPa 0,0 l/m 14,8 km/h (3 Bft) W 267 0 min 0,000 mm 0,0 UV-I 121 W/m 15,6 C 15,1 C 20,9 km/h (4 Bft) 97,87 %
16.09.2016 08:44 18,2 C 85 % 1012,4 hPa 0,0 l/m 15,6 km/h (3 Bft) W-SW 255 0 min 0,000 mm 0,0 UV-I 122 W/m 15,6 C 14,9 C 24,1 km/h (4 Bft) 100,00 %
16.09.2016 08:46 18,2 C 85 % 1012,5 hPa 0,0 l/m 14,1 km/h (3 Bft) W 263 0 min 0,000 mm 0,0 UV-I 125 W/m 15,6 C 15,3 C 20,9 km/h (4 Bft) 97,87 %
16.09.2016 08:48 18,2 C 85 % 1012,5 hPa 0,0 l/m 13,3 km/h (3 Bft) W-SW 248 0 min 0,000 mm 0,0 UV-I 119 W/m 15,6 C 15,6 C 20,9 km/h (4 Bft) 100,00 %
16.09.2016 08:50 18,2 C 85 % 1012,4 hPa 0,0 l/m 10,8 km/h (2 Bft) W 261 0 min 0,000 mm 0,0 UV-I 114 W/m 15,6 C 16,4 C 16,1 km/h (3 Bft) 95,74 %
16.09.2016 08:52 18,3 C 85 % 1012,5 hPa 0,0 l/m 12,8 km/h (3 Bft) W 259 0 min 0,000 mm 0,0 UV-I 117 W/m 15,7 C 15,8 C 22,5 km/h (4 Bft) 95,74 %
16.09.2016 08:54 18,3 C 84 % 1012,5 hPa 0,0 l/m 15,9 km/h (3 Bft) W-SW 250 0 min 0,000 mm 0,0 UV-I 119 W/m 15,5 C 15,0 C 22,5 km/h (4 Bft) 97,87 %
16.09.2016 08:56 18,3 C 84 % 1012,5 hPa 0,0 l/m 14,6 km/h (3 Bft) W-SW 240 0 min 0,000 mm 0,4 UV-I 129 W/m 15,5 C 15,3 C 22,5 km/h (4 Bft) 100,00 %
16.09.2016 08:58 18,3 C 84 % 1012,5 hPa 0,0 l/m 13,2 km/h (3 Bft) W-SW 254 0 min 0,000 mm 0,5 UV-I 147 W/m 15,5 C 15,7 C 24,1 km/h (4 Bft) 100,00 %
16.09.2016 09:00 18,3 C 84 % 1012,5 hPa 0,0 l/m 13,6 km/h (3 Bft) W 261 0 min 0,102 mm 0,5 UV-I 152 W/m 15,5 C 15,6 C 19,3 km/h (3 Bft) 100,00 %
16.09.2016 09:02 18,4 C 84 % 1012,6 hPa 0,0 l/m 16,6 km/h (3 Bft) W-SW 253 0 min 0,000 mm 0,1 UV-I 133 W/m 15,6 C 14,9 C 22,5 km/h (4 Bft) 97,87 %
16.09.2016 09:04 18,4 C 84 % 1012,6 hPa 0,0 l/m 15,9 km/h (3 Bft) W 263 0 min 0,000 mm 0,0 UV-I 122 W/m 15,6 C 15,1 C 20,9 km/h (4 Bft) 100,00 %
16.09.2016 09:06 18,4 C 84 % 1012,6 hPa 0,0 l/m 15,5 km/h (3 Bft) W-SW 252 0 min 0,000 mm 0,0 UV-I 112 W/m 15,6 C 15,2 C 20,9 km/h (4 Bft) 100,00 %
16.09.2016 09:08 18,4 C 84 % 1012,6 hPa 0,0 l/m 13,7 km/h (3 Bft) W-SW 248 0 min 0,000 mm 0,0 UV-I 112 W/m 15,6 C 15,7 C 20,9 km/h (4 Bft) 100,00 %
16.09.2016 09:10 18,4 C 84 % 1012,6 hPa 0,0 l/m 14,1 km/h (3 Bft) W-SW 250 0 min 0,000 mm 0,5 UV-I 128 W/m 15,6 C 15,6 C 20,9 km/h (4 Bft) 100,00 %
16.09.2016 09:12 18,5 C 83 % 1012,5 hPa 0,0 l/m 17,0 km/h (3 Bft) W-SW 239 0 min 0,000 mm 0,5 UV-I 138 W/m 15,6 C 14,9 C 22,5 km/h (4 Bft) 100,00 %
16.09.2016 09:14 18,5 C 84 % 1012,6 hPa 0,0 l/m 11,9 km/h (2 Bft) S 181 0 min 0,000 mm 0,5 UV-I 141 W/m 15,7 C 16,3 C 17,7 km/h (3 Bft) 98,00 %
16.09.2016 09:16 18,6 C 83 % 1012,6 hPa 0,0 l/m 14,6 km/h (3 Bft) W-NW 303 0 min 0,000 mm 0,5 UV-I 149 W/m 15,7 C 15,7 C 22,5 km/h (4 Bft) 100,00 %
16.09.2016 09:18 18,7 C 83 % 1012,5 hPa 0,0 l/m 13,1 km/h (3 Bft) W-SW 244 0 min 0,000 mm 0,6 UV-I 162 W/m 15,8 C 16,2 C 17,7 km/h (3 Bft) 100,00 %
16.09.2016 09:20 18,7 C 83 % 1012,5 hPa 0,0 l/m 10,6 km/h (2 Bft) SW 234 0 min 0,000 mm 0,6 UV-I 177 W/m 15,8 C 17,0 C 16,1 km/h (3 Bft) 100,00 %
16.09.2016 09:22 18,8 C 83 % 1012,5 hPa 0,0 l/m 6,2 km/h (2 Bft) W-SW 257 0 min 0,000 mm 0,7 UV-I 185 W/m 15,8 C 18,8 C 11,3 km/h (2 Bft) 97,87 %
16.09.2016 09:24 18,8 C 82 % 1012,5 hPa 0,0 l/m 13,0 km/h (3 Bft) W-SW 254 0 min 0,000 mm 0,7 UV-I 192 W/m 15,7 C 16,3 C 20,9 km/h (4 Bft) 100,00 %
16.09.2016 09:26 18,9 C 82 % 1012,6 hPa 0,0 l/m 13,8 km/h (3 Bft) W 261 0 min 0,000 mm 0,8 UV-I 198 W/m 15,8 C 16,2 C 19,3 km/h (3 Bft) 100,00 %
16.09.2016 09:28 18,9 C 82 % 1012,5 hPa 0,0 l/m 10,1 km/h (2 Bft) W-SW 252 0 min 0,000 mm 0,8 UV-I 214 W/m 15,8 C 17,4 C 16,1 km/h (3 Bft) 97,87 %
16.09.2016 09:30 19,2 C 82 % 1012,6 hPa 0,0 l/m 8,4 km/h (2 Bft) W-SW 253 2 min 0,000 mm 0,9 UV-I 263 W/m 16,0 C 18,4 C 14,5 km/h (3 Bft) 97,87 %
16.09.2016 09:32 19,3 C 82 % 1012,6 hPa 0,0 l/m 8,9 km/h (2 Bft) W-SW 252 2 min 0,000 mm 1,0 UV-I 324 W/m 16,1 C 18,3 C 14,5 km/h (3 Bft) 100,00 %
16.09.2016 09:34 19,6 C 81 % 1012,6 hPa 0,0 l/m 9,0 km/h (2 Bft) W 262 2 min 0,000 mm 1,1 UV-I 370 W/m 16,2 C 18,6 C 14,5 km/h (3 Bft) 97,87 %
16.09.2016 09:36 19,7 C 80 % 1012,6 hPa 0,0 l/m 9,9 km/h (2 Bft) W-SW 254 2 min 0,000 mm 1,1 UV-I 372 W/m 16,1 C 18,3 C 17,7 km/h (3 Bft) 100,00 %
16.09.2016 09:38 19,8 C 80 % 1012,5 hPa 0,0 l/m 6,9 km/h (2 Bft) NW 304 2 min 0,000 mm 1,2 UV-I 373 W/m 16,2 C 19,6 C 14,5 km/h (3 Bft) 95,74 %
16.09.2016 09:40 19,8 C 79 % 1012,5 hPa 0,0 l/m 9,8 km/h (2 Bft) W-SW 258 2 min 0,000 mm 1,2 UV-I 329 W/m 16,0 C 18,5 C 14,5 km/h (3 Bft) 97,87 %
16.09.2016 09:42 19,8 C 78 % 1012,5 hPa 0,0 l/m 12,6 km/h (3 Bft) W 278 2 min 0,000 mm 1,2 UV-I 301 W/m 15,8 C 17,6 C 22,5 km/h (4 Bft) 98,11 %
16.09.2016 09:44 19,7 C 79 % 1012,5 hPa 0,0 l/m 11,9 km/h (2 Bft) W 264 2 min 0,000 mm 1,3 UV-I 335 W/m 16,0 C 17,7 C 19,3 km/h (3 Bft) 95,74 %
16.09.2016 09:46 19,7 C 79 % 1012,6 hPa 0,0 l/m 9,6 km/h (2 Bft) W-NW 290 2 min 0,000 mm 1,4 UV-I 379 W/m 16,0 C 18,4 C 19,3 km/h (3 Bft) 95,74 %
16.09.2016 09:48 19,8 C 78 % 1012,6 hPa 0,0 l/m 9,6 km/h (2 Bft) SW 234 2 min 0,000 mm 1,4 UV-I 355 W/m 15,8 C 18,6 C 14,5 km/h (3 Bft) 93,62 %
16.09.2016 09:50 19,8 C 79 % 1012,7 hPa 0,0 l/m 8,7 km/h (2 Bft) W-SW 243 2 min 0,000 mm 1,4 UV-I 360 W/m 16,0 C 18,9 C 16,1 km/h (3 Bft) 100,00 %
16.09.2016 09:52 19,8 C 79 % 1012,6 hPa 0,0 l/m 10,7 km/h (2 Bft) W-SW 257 2 min 0,000 mm 1,4 UV-I 382 W/m 16,0 C 18,2 C 19,3 km/h (3 Bft) 96,23 %
16.09.2016 09:54 20,0 C 78 % 1012,7 hPa 0,0 l/m 10,0 km/h (2 Bft) W-SW 242 2 min 0,000 mm 1,4 UV-I 407 W/m 16,0 C 18,6 C 17,7 km/h (3 Bft) 97,87 %
16.09.2016 09:56 20,1 C 78 % 1012,6 hPa 0,0 l/m 10,6 km/h (2 Bft) W-SW 241 2 min 0,000 mm 1,4 UV-I 362 W/m 16,1 C 18,6 C 17,7 km/h (3 Bft) 97,87 %
16.09.2016 09:58 20,1 C 78 % 1012,7 hPa 0,0 l/m 7,7 km/h (2 Bft) SW 234 2 min 0,000 mm 1,4 UV-I 345 W/m 16,1 C 19,6 C 16,1 km/h (3 Bft) 97,87 %
16.09.2016 10:00 20,1 C 77 % 1012,7 hPa 0,0 l/m 7,4 km/h (2 Bft) W-NW 284 2 min 0,178 mm 1,4 UV-I 328 W/m 15,9 C 19,7 C 12,9 km/h (3 Bft) 97,87 %
16.09.2016 10:02 20,1 C 77 % 1012,7 hPa 0,0 l/m 9,1 km/h (2 Bft) W 259 2 min 0,000 mm 1,4 UV-I 344 W/m 15,9 C 19,1 C 14,5 km/h (3 Bft) 97,87 %
16.09.2016 10:04 20,1 C 77 % 1012,7 hPa 0,0 l/m 9,5 km/h (2 Bft) W-SW 242 2 min 0,000 mm 1,5 UV-I 389 W/m 15,9 C 18,9 C 14,5 km/h (3 Bft) 95,74 %
16.09.2016 10:06 19,9 C 77 % 1012,7 hPa 0,0 l/m 11,4 km/h (2 Bft) W-SW 246 2 min 0,000 mm 1,6 UV-I 370 W/m 15,7 C 18,1 C 19,3 km/h (3 Bft) 97,87 %
16.09.2016 10:08 20,1 C 79 % 1012,7 hPa 0,0 l/m 10,3 km/h (2 Bft) W 270 2 min 0,000 mm 1,5 UV-I 359 W/m 16,3 C 18,7 C 22,5 km/h (4 Bft) 97,87 %
16.09.2016 10:10 20,1 C 77 % 1012,7 hPa 0,0 l/m 10,3 km/h (2 Bft) W-SW 257 2 min 0,000 mm 1,5 UV-I 331 W/m 15,9 C 18,7 C 17,7 km/h (3 Bft) 100,00 %
16.09.2016 10:12 20,0 C 77 % 1012,6 hPa 0,0 l/m 8,9 km/h (2 Bft) W-SW 248 2 min 0,000 mm 1,6 UV-I 360 W/m 15,8 C 19,0 C 16,1 km/h (3 Bft) 91,49 %
16.09.2016 10:14 20,0 C 77 % 1012,5 hPa 0,0 l/m 10,1 km/h (2 Bft) W 261 2 min 0,000 mm 1,6 UV-I 363 W/m 15,8 C 18,6 C 20,9 km/h (4 Bft) 97,87 %
16.09.2016 10:16 20,1 C 77 % 1012,5 hPa 0,0 l/m 9,5 km/h (2 Bft) W-SW 251 2 min 0,000 mm 1,6 UV-I 390 W/m 15,9 C 18,9 C 14,5 km/h (3 Bft) 100,00 %
16.09.2016 10:18 20,1 C 77 % 1012,5 hPa 0,0 l/m 6,5 km/h (2 Bft) W-SW 252 2 min 0,000 mm 1,6 UV-I 395 W/m 15,9 C 20,1 C 12,9 km/h (3 Bft) 100,00 %
16.09.2016 10:20 20,3 C 77 % 1012,5 hPa 0,0 l/m 3,7 km/h (1 Bft) W 268 2 min 0,000 mm 1,8 UV-I 418 W/m 16,1 C 20,3 C 11,3 km/h (2 Bft) 100,00 %
16.09.2016 10:22 20,4 C 77 % 1012,4 hPa 0,0 l/m 8,7 km/h (2 Bft) W 275 2 min 0,000 mm 1,8 UV-I 420 W/m 16,2 C 19,5 C 14,5 km/h (3 Bft) 100,00 %
16.09.2016 10:24 20,6 C 76 % 1012,3 hPa 0,0 l/m 9,1 km/h (2 Bft) W 278 2 min 0,000 mm 1,8 UV-I 382 W/m 16,2 C 19,6 C 14,5 km/h (3 Bft) 95,74 %
16.09.2016 10:26 20,5 C 76 % 1012,2 hPa 0,0 l/m 7,5 km/h (2 Bft) W 263 2 min 0,000 mm 1,8 UV-I 359 W/m 16,1 C 20,1 C 12,9 km/h (3 Bft) 100,00 %
16.09.2016 10:28 20,4 C 77 % 1012,2 hPa 0,0 l/m 6,3 km/h (2 Bft) W 265 2 min 0,000 mm 1,8 UV-I 364 W/m 16,2 C 20,4 C 11,3 km/h (2 Bft) 100,00 %
16.09.2016 10:30 20,4 C 76 % 1012,2 hPa 0,0 l/m 3,2 km/h (1 Bft) W-SW 246 2 min 0,000 mm 1,9 UV-I 395 W/m 16,0 C 20,4 C 11,3 km/h (2 Bft) 97,92 %
16.09.2016 10:32 20,5 C 76 % 1012,2 hPa 0,0 l/m 4,5 km/h (1 Bft) W-SW 258 2 min 0,000 mm 2,0 UV-I 406 W/m 16,1 C 20,5 C 6,4 km/h (2 Bft) 100,00 %
16.09.2016 10:34 20,5 C 76 % 1012,2 hPa 0,0 l/m 5,6 km/h (1 Bft) W-SW 245 2 min 0,000 mm 2,0 UV-I 412 W/m 16,1 C 20,5 C 11,3 km/h (2 Bft) 100,00 %
16.09.2016 10:36 20,6 C 76 % 1012,2 hPa 0,0 l/m 5,6 km/h (1 Bft) W-SW 244 2 min 0,000 mm 2,0 UV-I 405 W/m 16,2 C 20,6 C 12,9 km/h (3 Bft) 100,00 %
16.09.2016 10:38 20,6 C 75 % 1012,1 hPa 0,0 l/m 3,0 km/h (1 Bft) W 278 2 min 0,000 mm 2,0 UV-I 395 W/m 16,0 C 20,6 C 6,4 km/h (2 Bft) 100,00 %
16.09.2016 10:40 20,7 C 75 % 1012,2 hPa 0,0 l/m 5,1 km/h (1 Bft) NW 324 2 min 0,000 mm 1,9 UV-I 347 W/m 16,1 C 20,7 C 9,7 km/h (2 Bft) 100,00 %
16.09.2016 10:42 20,6 C 76 % 1012,2 hPa 0,0 l/m 2,6 km/h (1 Bft) W-SW 241 2 min 0,000 mm 2,0 UV-I 333 W/m 16,2 C 20,6 C 6,4 km/h (2 Bft) 100,00 %
16.09.2016 10:44 20,7 C 77 % 1012,1 hPa 0,0 l/m 2,5 km/h (1 Bft) W-SW 248 2 min 0,000 mm 2,2 UV-I 395 W/m 16,5 C 20,7 C 4,8 km/h (1 Bft) 100,00 %
16.09.2016 10:46 20,7 C 75 % 1012,1 hPa 0,0 l/m 2,5 km/h (1 Bft) W-SW 245 2 min 0,000 mm 2,4 UV-I 520 W/m 16,1 C 20,7 C 6,4 km/h (2 Bft) 97,87 %
16.09.2016 10:48 21,0 C 76 % 1012,1 hPa 0,0 l/m 2,6 km/h (1 Bft) SW 234 2 min 0,000 mm 2,5 UV-I 566 W/m 16,6 C 21,0 C 4,8 km/h (1 Bft) 97,87 %
16.09.2016 10:50 21,1 C 75 % 1012,2 hPa 0,0 l/m 5,4 km/h (1 Bft) W-NW 292 2 min 0,000 mm 2,3 UV-I 431 W/m 16,5 C 21,1 C 9,7 km/h (2 Bft) 100,00 %
16.09.2016 10:52 21,2 C 75 % 1012,2 hPa 0,0 l/m 9,1 km/h (2 Bft) W-SW 251 2 min 0,000 mm 2,3 UV-I 430 W/m 16,6 C 20,2 C 14,5 km/h (3 Bft) 100,00 %
16.09.2016 10:54 21,3 C 75 % 1012,2 hPa 0,0 l/m 8,0 km/h (2 Bft) W-SW 252 2 min 0,000 mm 2,4 UV-I 523 W/m 16,7 C 20,7 C 12,9 km/h (3 Bft) 100,00 %
16.09.2016 10:56 21,3 C 74 % 1012,2 hPa 0,0 l/m 6,3 km/h (2 Bft) W 259 2 min 0,000 mm 2,2 UV-I 442 W/m 16,5 C 21,3 C 9,7 km/h (2 Bft) 100,00 %
16.09.2016 10:58 21,4 C 75 % 1012,3 hPa 0,0 l/m 3,9 km/h (1 Bft) W 269 2 min 0,000 mm 2,2 UV-I 409 W/m 16,8 C 21,4 C 8,0 km/h (2 Bft) 100,00 %
16.09.2016 11:00 21,4 C 74 % 1012,3 hPa 0,0 l/m 6,1 km/h (2 Bft) SW 228 2 min 0,000 mm 2,1 UV-I 450 W/m 16,6 C 21,4 C 11,3 km/h (2 Bft) 100,00 %
16.09.2016 11:02 21,4 C 74 % 1012,3 hPa 0,0 l/m 4,7 km/h (1 Bft) W-NW 292 2 min 0,254 mm 2,0 UV-I 381 W/m 16,6 C 21,4 C 9,7 km/h (2 Bft) 97,87 %
16.09.2016 11:04 21,2 C 73 % 1012,3 hPa 0,0 l/m 5,0 km/h (1 Bft) W 274 2 min 0,000 mm 2,0 UV-I 369 W/m 16,2 C 21,2 C 9,7 km/h (2 Bft) 97,87 %
16.09.2016 11:06 20,9 C 74 % 1012,3 hPa 0,0 l/m 1,6 km/h (1 Bft) W 271 2 min 0,000 mm 1,9 UV-I 371 W/m 16,1 C 20,9 C 3,2 km/h (1 Bft) 100,00 %
16.09.2016 11:08 20,9 C 75 % 1012,2 hPa 0,0 l/m 3,4 km/h (1 Bft) N-NW 342 2 min 0,000 mm 2,0 UV-I 397 W/m 16,3 C 20,9 C 8,0 km/h (2 Bft) 100,00 %
16.09.2016 11:10 20,9 C 75 % 1012,2 hPa 0,0 l/m 4,4 km/h (1 Bft) W-NW 288 2 min 0,000 mm 2,2 UV-I 399 W/m 16,3 C 20,9 C 9,7 km/h (2 Bft) 97,92 %
16.09.2016 11:12 21,0 C 76 % 1012,2 hPa 0,0 l/m 2,1 km/h (1 Bft) W-SW 258 2 min 0,000 mm 2,3 UV-I 461 W/m 16,6 C 21,0 C 6,4 km/h (2 Bft) 100,00 %
16.09.2016 11:14 20,9 C 75 % 1012,2 hPa 0,0 l/m 5,1 km/h (1 Bft) W-NW 284 2 min 0,000 mm 2,2 UV-I 396 W/m 16,3 C 20,9 C 9,7 km/h (2 Bft) 98,00 %
16.09.2016 11:16 20,8 C 75 % 1012,2 hPa 0,0 l/m 4,1 km/h (1 Bft) SW 214 2 min 0,000 mm 2,3 UV-I 436 W/m 16,2 C 20,8 C 8,0 km/h (2 Bft) 97,87 %
16.09.2016 11:18 20,8 C 76 % 1012,2 hPa 0,0 l/m 0,9 km/h (0 Bft) SW 214 2 min 0,000 mm 2,4 UV-I 427 W/m 16,4 C 20,8 C 3,2 km/h (1 Bft) 100,00 %
16.09.2016 11:20 20,9 C 75 % 1012,2 hPa 0,0 l/m 3,0 km/h (1 Bft) W 281 2 min 0,000 mm 2,4 UV-I 459 W/m 16,3 C 20,9 C 6,4 km/h (2 Bft) 100,00 %
16.09.2016 11:22 20,8 C 74 % 1012,2 hPa 0,0 l/m 5,9 km/h (2 Bft) W-NW 290 2 min 0,000 mm 2,4 UV-I 434 W/m 16,0 C 20,8 C 11,3 km/h (2 Bft) 100,00 %
16.09.2016 11:24 20,7 C 74 % 1012,3 hPa 0,0 l/m 3,8 km/h (1 Bft) W-SW 257 2 min 0,000 mm 2,5 UV-I 465 W/m 15,9 C 20,7 C 8,0 km/h (2 Bft) 100,00 %
16.09.2016 11:26 20,7 C 76 % 1012,1 hPa 0,0 l/m 4,0 km/h (1 Bft) W-SW 246 2 min 0,000 mm 2,4 UV-I 422 W/m 16,3 C 20,7 C 8,0 km/h (2 Bft) 100,00 %
16.09.2016 11:28 20,8 C 76 % 1012,1 hPa 0,0 l/m 3,7 km/h (1 Bft) N-NW 337 2 min 0,000 mm 2,3 UV-I 395 W/m 16,4 C 20,8 C 11,3 km/h (2 Bft) 100,00 %
16.09.2016 11:30 20,8 C 75 % 1012,0 hPa 0,0 l/m 2,5 km/h (1 Bft) W-NW 286 0 min 0,000 mm 2,0 UV-I 313 W/m 16,2 C 20,8 C 6,4 km/h (2 Bft) 100,00 %
16.09.2016 11:32 20,8 C 74 % 1012,0 hPa 0,0 l/m 2,9 km/h (1 Bft) W-NW 300 0 min 0,000 mm 2,0 UV-I 282 W/m 16,0 C 20,8 C 6,4 km/h (2 Bft) 98,00 %
16.09.2016 11:34 20,7 C 74 % 1012,0 hPa 0,0 l/m 4,0 km/h (1 Bft) W 271 0 min 0,000 mm 2,1 UV-I 268 W/m 15,9 C 20,7 C 8,0 km/h (2 Bft) 97,87 %
16.09.2016 11:36 20,7 C 76 % 1011,9 hPa 0,0 l/m 2,0 km/h (1 Bft) N-NW 337 0 min 0,000 mm 2,3 UV-I 321 W/m 16,3 C 20,7 C 4,8 km/h (1 Bft) 95,74 %
16.09.2016 11:38 20,8 C 75 % 1011,9 hPa 0,0 l/m 2,2 km/h (1 Bft) N-NW 328 2 min 0,000 mm 2,6 UV-I 417 W/m 16,2 C 20,8 C 6,4 km/h (2 Bft) 97,87 %
16.09.2016 11:40 20,9 C 76 % 1011,9 hPa 0,0 l/m 1,6 km/h (1 Bft) N-NW 336 2 min 0,000 mm 2,7 UV-I 467 W/m 16,5 C 20,9 C 3,2 km/h (1 Bft) 95,92 %
16.09.2016 11:42 21,1 C 76 % 1011,8 hPa 0,0 l/m 1,9 km/h (1 Bft) N-NW 333 2 min 0,000 mm 2,9 UV-I 480 W/m 16,7 C 21,1 C 4,8 km/h (1 Bft) 95,74 %
16.09.2016 11:44 21,3 C 74 % 1011,8 hPa 0,0 l/m 3,4 km/h (1 Bft) NW 308 2 min 0,000 mm 2,8 UV-I 468 W/m 16,5 C 21,3 C 8,0 km/h (2 Bft) 97,87 %
16.09.2016 11:46 21,2 C 75 % 1011,8 hPa 0,0 l/m 2,3 km/h (1 Bft) W-NW 288 2 min 0,000 mm 2,9 UV-I 496 W/m 16,6 C 21,2 C 4,8 km/h (1 Bft) 95,74 %
16.09.2016 11:48 21,3 C 74 % 1011,7 hPa 0,0 l/m 2,5 km/h (1 Bft) W-NW 302 2 min 0,000 mm 3,0 UV-I 521 W/m 16,5 C 21,3 C 6,4 km/h (2 Bft) 95,74 %
16.09.2016 11:50 21,3 C 74 % 1011,7 hPa 0,0 l/m 4,6 km/h (1 Bft) NW 304 2 min 0,000 mm 3,1 UV-I 562 W/m 16,5 C 21,3 C 9,7 km/h (2 Bft) 95,74 %
16.09.2016 11:52 21,2 C 73 % 1011,7 hPa 0,0 l/m 4,7 km/h (1 Bft) W-SW 255 2 min 0,000 mm 3,2 UV-I 592 W/m 16,2 C 21,2 C 11,3 km/h (2 Bft) 95,83 %
16.09.2016 11:54 21,2 C 75 % 1011,7 hPa 0,0 l/m 3,9 km/h (1 Bft) N-NO 21 2 min 0,000 mm 3,3 UV-I 594 W/m 16,6 C 21,2 C 8,0 km/h (2 Bft) 97,87 %
16.09.2016 11:56 21,4 C 75 % 1011,7 hPa 0,0 l/m 4,1 km/h (1 Bft) NW 313 2 min 0,000 mm 3,3 UV-I 615 W/m 16,8 C 21,4 C 8,0 km/h (2 Bft) 97,87 %
16.09.2016 11:58 21,3 C 73 % 1011,8 hPa 0,0 l/m 4,5 km/h (1 Bft) N-NW 335 2 min 0,000 mm 3,3 UV-I 639 W/m 16,3 C 21,3 C 9,7 km/h (2 Bft) 95,74 %
16.09.2016 12:00 21,4 C 73 % 1011,8 hPa 0,0 l/m 2,4 km/h (1 Bft) NW 309 2 min 0,279 mm 3,4 UV-I 677 W/m 16,4 C 21,4 C 6,4 km/h (2 Bft) 97,87 %
16.09.2016 12:02 21,4 C 76 % 1011,7 hPa 0,0 l/m 5,7 km/h (1 Bft) W-NW 298 2 min 0,000 mm 3,3 UV-I 628 W/m 17,0 C 21,4 C 12,9 km/h (3 Bft) 97,87 %
16.09.2016 12:04 21,6 C 73 % 1011,7 hPa 0,0 l/m 3,3 km/h (1 Bft) NW 309 2 min 0,000 mm 3,1 UV-I 584 W/m 16,5 C 21,6 C 8,0 km/h (2 Bft) 95,74 %
16.09.2016 12:06 21,7 C 73 % 1011,7 hPa 0,0 l/m 3,1 km/h (1 Bft) W-SW 240 2 min 0,000 mm 2,9 UV-I 422 W/m 16,6 C 21,7 C 6,4 km/h (2 Bft) 97,37 %
16.09.2016 12:08 21,7 C 72 % 1011,8 hPa 0,0 l/m 3,4 km/h (1 Bft) W-NW 303 0 min 0,000 mm 2,4 UV-I 335 W/m 16,4 C 21,7 C 6,4 km/h (2 Bft) 100,00 %
16.09.2016 12:10 21,4 C 73 % 1011,8 hPa 0,0 l/m 2,9 km/h (1 Bft) NW 325 0 min 0,000 mm 2,2 UV-I 311 W/m 16,4 C 21,4 C 6,4 km/h (2 Bft) 100,00 %
16.09.2016 12:12 21,3 C 73 % 1011,8 hPa 0,0 l/m 3,0 km/h (1 Bft) W-NW 298 0 min 0,000 mm 2,2 UV-I 315 W/m 16,3 C 21,3 C 4,8 km/h (1 Bft) 97,87 %
16.09.2016 12:14 21,4 C 76 % 1011,8 hPa 0,0 l/m 3,0 km/h (1 Bft) N 5 0 min 0,000 mm 2,2 UV-I 334 W/m 17,0 C 21,4 C 4,8 km/h (1 Bft) 97,87 %
16.09.2016 12:16 21,4 C 73 % 1011,8 hPa 0,0 l/m 1,2 km/h (1 Bft) NW 323 2 min 0,000 mm 2,5 UV-I 405 W/m 16,4 C 21,4 C 3,2 km/h (1 Bft) 97,87 %
16.09.2016 12:18 21,3 C 74 % 1011,7 hPa 0,0 l/m 1,8 km/h (1 Bft) W-SW 253 2 min 0,000 mm 2,7 UV-I 404 W/m 16,5 C 21,3 C 3,2 km/h (1 Bft) 100,00 %
16.09.2016 12:20 21,3 C 73 % 1011,6 hPa 0,0 l/m 4,0 km/h (1 Bft) NW 319 2 min 0,000 mm 3,3 UV-I 423 W/m 16,3 C 21,3 C 6,4 km/h (2 Bft) 100,00 %
16.09.2016 12:22 21,4 C 76 % 1011,6 hPa 0,0 l/m 3,0 km/h (1 Bft) NW 304 2 min 0,000 mm 3,7 UV-I 718 W/m 17,0 C 21,4 C 8,0 km/h (2 Bft) 100,00 %
16.09.2016 12:24 21,5 C 73 % 1011,6 hPa 0,0 l/m 3,3 km/h (1 Bft) NW 309 2 min 0,000 mm 3,6 UV-I 699 W/m 16,4 C 21,5 C 6,4 km/h (2 Bft) 100,00 %
16.09.2016 12:26 21,5 C 74 % 1011,6 hPa 0,0 l/m 3,6 km/h (1 Bft) NO 37 2 min 0,000 mm 3,6 UV-I 671 W/m 16,7 C 21,5 C 6,4 km/h (2 Bft) 100,00 %
16.09.2016 12:28 21,4 C 73 % 1011,5 hPa 0,0 l/m 2,6 km/h (1 Bft) NO 37 2 min 0,000 mm 3,6 UV-I 657 W/m 16,4 C 21,4 C 4,8 km/h (1 Bft) 100,00 %
16.09.2016 12:30 21,7 C 74 % 1011,5 hPa 0,0 l/m 3,7 km/h (1 Bft) N 11 2 min 0,000 mm 3,6 UV-I 643 W/m 16,9 C 21,7 C 8,0 km/h (2 Bft) 100,00 %
16.09.2016 12:32 21,8 C 73 % 1011,5 hPa 0,0 l/m 4,3 km/h (1 Bft) W-NW 298 2 min 0,000 mm 3,4 UV-I 650 W/m 16,7 C 21,8 C 11,3 km/h (2 Bft) 100,00 %
16.09.2016 12:34 21,7 C 71 % 1011,5 hPa 0,0 l/m 3,2 km/h (1 Bft) NW 326 2 min 0,000 mm 3,5 UV-I 621 W/m 16,2 C 21,7 C 6,4 km/h (2 Bft) 100,00 %
16.09.2016 12:36 21,7 C 72 % 1011,5 hPa 0,0 l/m 2,7 km/h (1 Bft) N 355 2 min 0,000 mm 3,5 UV-I 626 W/m 16,4 C 21,7 C 4,8 km/h (1 Bft) 97,37 %
16.09.2016 12:38 21,8 C 74 % 1011,4 hPa 0,0 l/m 4,6 km/h (1 Bft) W 271 2 min 0,000 mm 3,1 UV-I 615 W/m 17,0 C 21,8 C 9,7 km/h (2 Bft) 95,74 %
16.09.2016 12:40 21,9 C 73 % 1011,5 hPa 0,0 l/m 5,4 km/h (1 Bft) N 9 2 min 0,000 mm 3,5 UV-I 619 W/m 16,8 C 21,9 C 9,7 km/h (2 Bft) 100,00 %
16.09.2016 12:42 21,9 C 71 % 1011,5 hPa 0,0 l/m 3,3 km/h (1 Bft) N-NW 332 2 min 0,000 mm 3,7 UV-I 648 W/m 16,4 C 21,9 C 6,4 km/h (2 Bft) 97,87 %
16.09.2016 12:44 21,9 C 73 % 1011,4 hPa 0,0 l/m 2,6 km/h (1 Bft) W-NW 302 2 min 0,000 mm 3,7 UV-I 637 W/m 16,8 C 21,9 C 11,3 km/h (2 Bft) 93,62 %
16.09.2016 12:46 22,0 C 72 % 1011,3 hPa 0,0 l/m 5,0 km/h (1 Bft) NW 304 2 min 0,000 mm 3,7 UV-I 624 W/m 16,7 C 22,0 C 9,7 km/h (2 Bft) 100,00 %
16.09.2016 12:48 21,8 C 73 % 1011,4 hPa 0,0 l/m 2,0 km/h (1 Bft) NW 317 2 min 0,000 mm 3,7 UV-I 618 W/m 16,7 C 21,8 C 6,4 km/h (2 Bft) 100,00 %
16.09.2016 12:50 22,1 C 71 % 1011,4 hPa 0,0 l/m 2,5 km/h (1 Bft) N-NW 342 2 min 0,000 mm 3,7 UV-I 631 W/m 16,6 C 22,1 C 6,4 km/h (2 Bft) 97,87 %
16.09.2016 12:52 22,1 C 72 % 1011,3 hPa 0,0 l/m 1,2 km/h (1 Bft) N-NW 348 2 min 0,000 mm 3,6 UV-I 624 W/m 16,8 C 22,1 C 4,8 km/h (1 Bft) 97,87 %
16.09.2016 12:54 22,1 C 74 % 1011,3 hPa 0,0 l/m 1,9 km/h (1 Bft) N-NW 329 2 min 0,000 mm 3,5 UV-I 590 W/m 17,2 C 22,1 C 3,2 km/h (1 Bft) 100,00 %
16.09.2016 12:56 22,2 C 72 % 1011,3 hPa 0,0 l/m 3,4 km/h (1 Bft) NW 308 2 min 0,000 mm 3,4 UV-I 570 W/m 16,9 C 22,2 C 6,4 km/h (2 Bft) 100,00 %
16.09.2016 12:58 22,2 C 70 % 1011,2 hPa 0,0 l/m 3,0 km/h (1 Bft) N-NW 333 2 min 0,000 mm 3,4 UV-I 572 W/m 16,5 C 22,2 C 4,8 km/h (1 Bft) 100,00 %
16.09.2016 13:00 22,3 C 73 % 1011,2 hPa 0,0 l/m 1,9 km/h (1 Bft) NW 323 2 min 0,000 mm 3,4 UV-I 569 W/m 17,2 C 22,3 C 6,4 km/h (2 Bft) 97,87 %
16.09.2016 13:02 22,3 C 71 % 1011,2 hPa 0,0 l/m 2,4 km/h (1 Bft) W-NW 298 2 min 0,330 mm 3,3 UV-I 559 W/m 16,8 C 22,3 C 4,8 km/h (1 Bft) 97,87 %
16.09.2016 13:04 22,3 C 71 % 1011,2 hPa 0,0 l/m 4,8 km/h (1 Bft) NO 36 2 min 0,000 mm 3,1 UV-I 552 W/m 16,8 C 22,3 C 9,7 km/h (2 Bft) 100,00 %
16.09.2016 13:06 22,2 C 70 % 1011,1 hPa 0,0 l/m 3,6 km/h (1 Bft) N-NO 22 2 min 0,000 mm 3,5 UV-I 608 W/m 16,5 C 22,2 C 6,4 km/h (2 Bft) 100,00 %
16.09.2016 13:08 22,3 C 71 % 1011,1 hPa 0,0 l/m 2,6 km/h (1 Bft) N 9 2 min 0,000 mm 3,6 UV-I 639 W/m 16,8 C 22,3 C 4,8 km/h (1 Bft) 100,00 %
16.09.2016 13:10 22,3 C 71 % 1011,0 hPa 0,0 l/m 2,9 km/h (1 Bft) N-NO 15 2 min 0,000 mm 3,7 UV-I 633 W/m 16,8 C 22,3 C 6,4 km/h (2 Bft) 100,00 %
16.09.2016 13:12 22,7 C 72 % 1011,0 hPa 0,0 l/m 3,0 km/h (1 Bft) NW 319 2 min 0,000 mm 3,7 UV-I 627 W/m 17,4 C 22,7 C 6,4 km/h (2 Bft) 100,00 %
16.09.2016 13:14 22,9 C 70 % 1010,9 hPa 0,0 l/m 3,5 km/h (1 Bft) W-NW 286 2 min 0,000 mm 3,6 UV-I 550 W/m 17,1 C 22,9 C 6,4 km/h (2 Bft) 100,00 %
16.09.2016 13:16 22,9 C 69 % 1011,0 hPa 0,0 l/m 4,6 km/h (1 Bft) NW 324 2 min 0,000 mm 3,7 UV-I 639 W/m 16,9 C 22,9 C 8,0 km/h (2 Bft) 100,00 %
16.09.2016 13:18 22,8 C 69 % 1011,0 hPa 0,0 l/m 4,5 km/h (1 Bft) NW 326 2 min 0,000 mm 3,7 UV-I 656 W/m 16,8 C 22,8 C 11,3 km/h (2 Bft) 97,87 %
16.09.2016 13:20 22,6 C 69 % 1011,1 hPa 0,0 l/m 4,4 km/h (1 Bft) NW 312 2 min 0,000 mm 3,7 UV-I 630 W/m 16,6 C 22,6 C 6,4 km/h (2 Bft) 100,00 %
16.09.2016 13:22 22,4 C 71 % 1011,1 hPa 0,0 l/m 4,5 km/h (1 Bft) N 11 2 min 0,000 mm 3,6 UV-I 619 W/m 16,9 C 22,4 C 8,0 km/h (2 Bft) 98,00 %
16.09.2016 13:24 22,5 C 70 % 1011,1 hPa 0,0 l/m 3,9 km/h (1 Bft) N-NO 15 2 min 0,000 mm 3,6 UV-I 625 W/m 16,7 C 22,5 C 8,0 km/h (2 Bft) 97,92 %
16.09.2016 13:26 22,7 C 71 % 1011,0 hPa 0,0 l/m 2,7 km/h (1 Bft) N 351 2 min 0,000 mm 3,6 UV-I 633 W/m 17,2 C 22,7 C 6,4 km/h (2 Bft) 98,00 %
16.09.2016 13:28 22,7 C 70 % 1011,1 hPa 0,0 l/m 2,3 km/h (1 Bft) N-NO 22 2 min 0,000 mm 3,6 UV-I 638 W/m 16,9 C 22,7 C 6,4 km/h (2 Bft) 97,87 %
16.09.2016 13:30 22,8 C 69 % 1011,1 hPa 0,0 l/m 2,2 km/h (1 Bft) NO 43 2 min 0,000 mm 3,5 UV-I 598 W/m 16,8 C 22,8 C 4,8 km/h (1 Bft) 97,87 %
16.09.2016 13:32 22,8 C 70 % 1011,0 hPa 0,0 l/m 1,6 km/h (1 Bft) NO 43 2 min 0,000 mm 3,3 UV-I 538 W/m 17,0 C 22,8 C 4,8 km/h (1 Bft) 95,74 %
16.09.2016 13:34 22,8 C 72 % 1011,1 hPa 0,0 l/m 1,6 km/h (1 Bft) NW 320 2 min 0,000 mm 3,1 UV-I 524 W/m 17,5 C 22,8 C 4,8 km/h (1 Bft) 97,37 %
16.09.2016 13:36 22,8 C 69 % 1011,1 hPa 0,0 l/m 1,7 km/h (1 Bft) NW 307 2 min 0,000 mm 3,1 UV-I 504 W/m 16,8 C 22,8 C 4,8 km/h (1 Bft) 95,74 %
16.09.2016 13:38 22,8 C 70 % 1011,0 hPa 0,0 l/m 3,3 km/h (1 Bft) N-NO 26 2 min 0,000 mm 3,0 UV-I 496 W/m 17,0 C 22,8 C 6,4 km/h (2 Bft) 97,87 %
16.09.2016 13:40 23,0 C 71 % 1011,0 hPa 0,0 l/m 3,3 km/h (1 Bft) N 5 2 min 0,000 mm 3,0 UV-I 473 W/m 17,4 C 23,0 C 8,0 km/h (2 Bft) 95,74 %
16.09.2016 13:42 23,1 C 69 % 1011,0 hPa 0,0 l/m 2,3 km/h (1 Bft) N-NO 19 2 min 0,000 mm 2,9 UV-I 462 W/m 17,1 C 23,1 C 4,8 km/h (1 Bft) 95,74 %
16.09.2016 13:44 23,0 C 69 % 1011,0 hPa 0,0 l/m 2,3 km/h (1 Bft) N-NW 341 2 min 0,000 mm 2,9 UV-I 446 W/m 17,0 C 23,0 C 6,4 km/h (2 Bft) 98,00 %
16.09.2016 13:46 22,8 C 69 % 1011,0 hPa 0,0 l/m 3,0 km/h (1 Bft) NW 317 2 min 0,000 mm 2,8 UV-I 444 W/m 16,8 C 22,8 C 6,4 km/h (2 Bft) 97,87 %
16.09.2016 13:48 22,8 C 70 % 1010,9 hPa 0,0 l/m 4,0 km/h (1 Bft) NW 313 2 min 0,000 mm 2,8 UV-I 450 W/m 17,0 C 22,8 C 6,4 km/h (2 Bft) 93,75 %
16.09.2016 13:50 22,8 C 71 % 1010,9 hPa 0,0 l/m 3,3 km/h (1 Bft) N-NW 327 2 min 0,000 mm 2,7 UV-I 406 W/m 17,3 C 22,8 C 8,0 km/h (2 Bft) 97,87 %
16.09.2016 13:52 22,8 C 69 % 1010,9 hPa 0,0 l/m 2,9 km/h (1 Bft) N-NW 348 0 min 0,000 mm 2,5 UV-I 366 W/m 16,8 C 22,8 C 4,8 km/h (1 Bft) 95,74 %
16.09.2016 13:54 22,8 C 69 % 1010,9 hPa 0,0 l/m 3,5 km/h (1 Bft) N-NW 344 0 min 0,000 mm 2,5 UV-I 354 W/m 16,8 C 22,8 C 9,7 km/h (2 Bft) 97,87 %
16.09.2016 13:56 22,6 C 69 % 1010,9 hPa 0,0 l/m 2,8 km/h (1 Bft) N-NW 343 0 min 0,000 mm 2,5 UV-I 368 W/m 16,6 C 22,6 C 6,4 km/h (2 Bft) 97,87 %
16.09.2016 13:58 22,6 C 69 % 1010,8 hPa 0,0 l/m 2,6 km/h (1 Bft) N-NW 337 2 min 0,000 mm 2,6 UV-I 396 W/m 16,6 C 22,6 C 4,8 km/h (1 Bft) 100,00 %
16.09.2016 14:00 22,7 C 71 % 1010,7 hPa 0,0 l/m 1,8 km/h (1 Bft) N-NO 18 2 min 0,331 mm 2,7 UV-I 475 W/m 17,2 C 22,7 C 4,8 km/h (1 Bft) 97,87 %
16.09.2016 14:02 22,8 C 70 % 1010,7 hPa 0,0 l/m 3,5 km/h (1 Bft) N-NO 27 2 min 0,000 mm 3,1 UV-I 551 W/m 17,0 C 22,8 C 9,7 km/h (2 Bft) 100,00 %
16.09.2016 14:04 22,8 C 69 % 1010,7 hPa 0,0 l/m 3,7 km/h (1 Bft) N 5 2 min 0,000 mm 3,1 UV-I 557 W/m 16,8 C 22,8 C 11,3 km/h (2 Bft) 100,00 %
16.09.2016 14:06 22,8 C 69 % 1010,7 hPa 0,0 l/m 3,9 km/h (1 Bft) N-NW 337 2 min 0,000 mm 3,1 UV-I 559 W/m 16,8 C 22,8 C 8,0 km/h (2 Bft) 100,00 %
16.09.2016 14:08 22,9 C 70 % 1010,6 hPa 0,0 l/m 3,1 km/h (1 Bft) N-NW 344 2 min 0,000 mm 3,2 UV-I 584 W/m 17,1 C 22,9 C 8,0 km/h (2 Bft) 100,00 %
16.09.2016 14:10 23,1 C 70 % 1010,6 hPa 0,0 l/m 3,4 km/h (1 Bft) NW 319 2 min 0,000 mm 3,3 UV-I 601 W/m 17,3 C 23,1 C 8,0 km/h (2 Bft) 100,00 %
16.09.2016 14:12 23,1 C 68 % 1010,6 hPa 0,0 l/m 2,6 km/h (1 Bft) NO 35 2 min 0,000 mm 3,3 UV-I 611 W/m 16,9 C 23,1 C 6,4 km/h (2 Bft) 100,00 %
16.09.2016 14:14 23,3 C 69 % 1010,6 hPa 0,0 l/m 1,9 km/h (1 Bft) NW 309 2 min 0,000 mm 3,2 UV-I 596 W/m 17,3 C 23,3 C 4,8 km/h (1 Bft) 100,00 %
16.09.2016 14:16 23,4 C 69 % 1010,6 hPa 0,0 l/m 1,9 km/h (1 Bft) N-NW 338 2 min 0,000 mm 3,1 UV-I 586 W/m 17,4 C 23,4 C 3,2 km/h (1 Bft) 97,87 %
16.09.2016 14:18 23,3 C 67 % 1010,6 hPa 0,0 l/m 1,1 km/h (1 Bft) N-NW 340 2 min 0,000 mm 2,8 UV-I 532 W/m 16,8 C 23,3 C 3,2 km/h (1 Bft) 100,00 %
16.09.2016 14:20 23,1 C 67 % 1010,5 hPa 0,0 l/m 2,8 km/h (1 Bft) W-NW 299 0 min 0,000 mm 2,5 UV-I 296 W/m 16,6 C 23,1 C 4,8 km/h (1 Bft) 100,00 %
16.09.2016 14:22 22,9 C 68 % 1010,5 hPa 0,0 l/m 3,6 km/h (1 Bft) N-NW 327 2 min 0,000 mm 2,5 UV-I 386 W/m 16,7 C 22,9 C 8,0 km/h (2 Bft) 100,00 %
16.09.2016 14:24 22,7 C 69 % 1010,5 hPa 0,0 l/m 2,1 km/h (1 Bft) W-NW 282 2 min 0,000 mm 2,3 UV-I 359 W/m 16,7 C 22,7 C 6,4 km/h (2 Bft) 100,00 %
16.09.2016 14:26 22,8 C 70 % 1010,5 hPa 0,0 l/m 2,4 km/h (1 Bft) N-NW 338 0 min 0,000 mm 2,2 UV-I 325 W/m 17,0 C 22,8 C 4,8 km/h (1 Bft) 97,87 %
16.09.2016 14:28 22,8 C 69 % 1010,4 hPa 0,0 l/m 3,2 km/h (1 Bft) NW 325 0 min 0,000 mm 2,2 UV-I 348 W/m 16,8 C 22,8 C 6,4 km/h (2 Bft) 100,00 %
16.09.2016 14:30 22,7 C 69 % 1010,5 hPa 0,0 l/m 4,2 km/h (1 Bft) N 5 2 min 0,000 mm 2,2 UV-I 358 W/m 16,7 C 22,7 C 11,3 km/h (2 Bft) 97,87 %
16.09.2016 14:32 22,7 C 70 % 1010,4 hPa 0,0 l/m 2,3 km/h (1 Bft) NW 319 0 min 0,000 mm 2,2 UV-I 351 W/m 16,9 C 22,7 C 4,8 km/h (1 Bft) 100,00 %
16.09.2016 14:34 22,7 C 70 % 1010,4 hPa 0,0 l/m 2,2 km/h (1 Bft) NW 315 0 min 0,000 mm 2,1 UV-I 330 W/m 16,9 C 22,7 C 4,8 km/h (1 Bft) 100,00 %
16.09.2016 14:36 22,7 C 70 % 1010,4 hPa 0,0 l/m 0,9 km/h (0 Bft) NW 315 0 min 0,000 mm 2,1 UV-I 323 W/m 16,9 C 22,7 C 3,2 km/h (1 Bft) 97,87 %
16.09.2016 14:38 22,8 C 70 % 1010,4 hPa 0,0 l/m 1,9 km/h (1 Bft) N-NW 331 0 min 0,000 mm 2,0 UV-I 324 W/m 17,0 C 22,8 C 3,2 km/h (1 Bft) 97,87 %
16.09.2016 14:40 22,8 C 70 % 1010,4 hPa 0,0 l/m 1,2 km/h (1 Bft) N 349 0 min 0,000 mm 2,0 UV-I 330 W/m 17,0 C 22,8 C 3,2 km/h (1 Bft) 97,87 %
16.09.2016 14:42 22,9 C 70 % 1010,4 hPa 0,0 l/m 2,5 km/h (1 Bft) N-NW 333 0 min 0,000 mm 2,0 UV-I 333 W/m 17,1 C 22,9 C 4,8 km/h (1 Bft) 100,00 %
16.09.2016 14:44 22,9 C 70 % 1010,4 hPa 0,0 l/m 1,5 km/h (1 Bft) N 5 0 min 0,000 mm 2,0 UV-I 336 W/m 17,1 C 22,9 C 3,2 km/h (1 Bft) 100,00 %
16.09.2016 14:46 22,8 C 69 % 1010,4 hPa 0,0 l/m 1,2 km/h (1 Bft) N 355 2 min 0,000 mm 2,0 UV-I 346 W/m 16,8 C 22,8 C 3,2 km/h (1 Bft) 97,87 %
16.09.2016 14:48 22,7 C 69 % 1010,3 hPa 0,0 l/m 1,9 km/h (1 Bft) N-NW 327 0 min 0,000 mm 1,9 UV-I 329 W/m 16,7 C 22,7 C 4,8 km/h (1 Bft) 100,00 %
16.09.2016 14:50 22,7 C 71 % 1010,3 hPa 0,0 l/m 1,4 km/h (1 Bft) N-NO 22 0 min 0,000 mm 1,9 UV-I 324 W/m 17,2 C 22,7 C 3,2 km/h (1 Bft) 97,87 %
16.09.2016 14:52 22,8 C 70 % 1010,3 hPa 0,0 l/m 1,4 km/h (1 Bft) N 355 0 min 0,000 mm 1,8 UV-I 318 W/m 17,0 C 22,8 C 4,8 km/h (1 Bft) 97,87 %
16.09.2016 14:54 22,9 C 70 % 1010,3 hPa 0,0 l/m 5,6 km/h (1 Bft) NO 36 0 min 0,000 mm 1,8 UV-I 307 W/m 17,1 C 22,9 C 8,0 km/h (2 Bft) 100,00 %
16.09.2016 14:56 22,9 C 71 % 1010,3 hPa 0,0 l/m 3,8 km/h (1 Bft) N 355 0 min 0,000 mm 1,7 UV-I 298 W/m 17,4 C 22,9 C 6,4 km/h (2 Bft) 97,96 %
16.09.2016 14:58 22,9 C 71 % 1010,3 hPa 0,0 l/m 2,1 km/h (1 Bft) N-NW 339 0 min 0,000 mm 1,7 UV-I 290 W/m 17,4 C 22,9 C 6,4 km/h (2 Bft) 100,00 %
16.09.2016 15:00 22,9 C 70 % 1010,2 hPa 0,0 l/m 4,1 km/h (1 Bft) N 5 0 min 0,254 mm 1,6 UV-I 281 W/m 17,1 C 22,9 C 6,4 km/h (2 Bft) 97,87 %
16.09.2016 15:02 22,8 C 70 % 1010,2 hPa 0,0 l/m 2,2 km/h (1 Bft) N-NW 346 0 min 0,000 mm 1,6 UV-I 276 W/m 17,0 C 22,8 C 4,8 km/h (1 Bft) 100,00 %
16.09.2016 15:04 22,8 C 70 % 1010,2 hPa 0,0 l/m 4,6 km/h (1 Bft) N 11 0 min 0,000 mm 1,5 UV-I 271 W/m 17,0 C 22,8 C 11,3 km/h (2 Bft) 97,44 %
16.09.2016 15:06 22,7 C 71 % 1010,2 hPa 0,0 l/m 2,1 km/h (1 Bft) SW 215 0 min 0,000 mm 1,5 UV-I 262 W/m 17,2 C 22,7 C 4,8 km/h (1 Bft) 100,00 %
16.09.2016 15:08 22,7 C 70 % 1010,1 hPa 0,0 l/m 2,3 km/h (1 Bft) W-NW 299 0 min 0,000 mm 1,4 UV-I 257 W/m 16,9 C 22,7 C 6,4 km/h (2 Bft) 100,00 %
16.09.2016 15:10 22,6 C 71 % 1010,2 hPa 0,0 l/m 1,8 km/h (1 Bft) NW 325 0 min 0,000 mm 1,4 UV-I 252 W/m 17,1 C 22,6 C 6,4 km/h (2 Bft) 95,74 %
16.09.2016 15:12 22,6 C 71 % 1010,2 hPa 0,0 l/m 4,0 km/h (1 Bft) W-NW 300 0 min 0,000 mm 1,4 UV-I 249 W/m 17,1 C 22,6 C 8,0 km/h (2 Bft) 97,87 %
16.09.2016 15:14 22,5 C 71 % 1010,2 hPa 0,0 l/m 2,5 km/h (1 Bft) NW 325 0 min 0,000 mm 1,4 UV-I 244 W/m 17,0 C 22,5 C 4,8 km/h (1 Bft) 97,87 %
16.09.2016 15:16 22,5 C 70 % 1010,2 hPa 0,0 l/m 2,1 km/h (1 Bft) N-NW 332 0 min 0,000 mm 1,3 UV-I 239 W/m 16,7 C 22,5 C 4,8 km/h (1 Bft) 96,00 %
16.09.2016 15:18 22,4 C 71 % 1010,2 hPa 0,0 l/m 0,6 km/h (0 Bft) N-NW 332 0 min 0,000 mm 1,3 UV-I 233 W/m 16,9 C 22,4 C 1,6 km/h (1 Bft) 100,00 %
16.09.2016 15:20 22,4 C 71 % 1010,3 hPa 0,0 l/m 1,2 km/h (1 Bft) N 355 0 min 0,000 mm 1,3 UV-I 228 W/m 16,9 C 22,4 C 4,8 km/h (1 Bft) 95,74 %
16.09.2016 15:22 22,5 C 71 % 1010,3 hPa 0,0 l/m 2,0 km/h (1 Bft) N 355 0 min 0,000 mm 1,2 UV-I 221 W/m 17,0 C 22,5 C 4,8 km/h (1 Bft) 98,00 %
16.09.2016 15:24 22,6 C 72 % 1010,3 hPa 0,0 l/m 0,6 km/h (0 Bft) N 5 0 min 0,000 mm 1,2 UV-I 218 W/m 17,3 C 22,6 C 3,2 km/h (1 Bft) 97,30 %
16.09.2016 15:26 22,6 C 71 % 1010,2 hPa 0,0 l/m 1,7 km/h (1 Bft) N 5 0 min 0,000 mm 1,2 UV-I 216 W/m 17,1 C 22,6 C 4,8 km/h (1 Bft) 97,87 %
16.09.2016 15:28 22,6 C 71 % 1010,2 hPa 0,0 l/m 3,4 km/h (1 Bft) N 5 0 min 0,000 mm 1,2 UV-I 218 W/m 17,1 C 22,6 C 8,0 km/h (2 Bft) 97,87 %
16.09.2016 15:30 22,6 C 72 % 1010,2 hPa 0,0 l/m 2,7 km/h (1 Bft) NW 322 0 min 0,000 mm 1,2 UV-I 220 W/m 17,3 C 22,6 C 4,8 km/h (1 Bft) 97,87 %
16.09.2016 15:32 22,6 C 70 % 1010,2 hPa 0,0 l/m 2,0 km/h (1 Bft) N-NW 341 0 min 0,000 mm 1,2 UV-I 224 W/m 16,8 C 22,6 C 3,2 km/h (1 Bft) 97,87 %
16.09.2016 15:34 22,5 C 71 % 1010,1 hPa 0,0 l/m 1,0 km/h (0 Bft) N-NW 340 0 min 0,000 mm 1,2 UV-I 225 W/m 17,0 C 22,5 C 4,8 km/h (1 Bft) 98,00 %
16.09.2016 15:36 22,5 C 71 % 1010,1 hPa 0,0 l/m 2,1 km/h (1 Bft) NW 321 0 min 0,000 mm 1,2 UV-I 223 W/m 17,0 C 22,5 C 4,8 km/h (1 Bft) 93,62 %
16.09.2016 15:38 22,4 C 70 % 1010,1 hPa 0,0 l/m 0,9 km/h (0 Bft) NW 321 0 min 0,000 mm 1,2 UV-I 219 W/m 16,7 C 22,4 C 1,6 km/h (1 Bft) 94,34 %
16.09.2016 15:40 22,6 C 71 % 1010,1 hPa 0,0 l/m 2,0 km/h (1 Bft) N 349 0 min 0,000 mm 1,1 UV-I 212 W/m 17,1 C 22,6 C 4,8 km/h (1 Bft) 97,22 %
16.09.2016 15:42 22,6 C 71 % 1010,1 hPa 0,0 l/m 1,9 km/h (1 Bft) N 351 0 min 0,000 mm 1,1 UV-I 206 W/m 17,1 C 22,6 C 4,8 km/h (1 Bft) 95,74 %
16.09.2016 15:44 22,6 C 70 % 1010,0 hPa 0,0 l/m 1,8 km/h (1 Bft) N-NW 348 0 min 0,000 mm 1,1 UV-I 202 W/m 16,8 C 22,6 C 3,2 km/h (1 Bft) 98,00 %
16.09.2016 15:46 22,6 C 71 % 1010,0 hPa 0,0 l/m 1,7 km/h (1 Bft) N-NW 345 0 min 0,000 mm 1,1 UV-I 198 W/m 17,1 C 22,6 C 3,2 km/h (1 Bft) 97,87 %
16.09.2016 15:48 22,6 C 71 % 1010,0 hPa 0,0 l/m 2,1 km/h (1 Bft) N 360 0 min 0,000 mm 1,0 UV-I 196 W/m 17,1 C 22,6 C 4,8 km/h (1 Bft) 96,00 %
16.09.2016 15:50 22,6 C 70 % 1009,9 hPa 0,0 l/m 2,3 km/h (1 Bft) N-NW 333 0 min 0,000 mm 1,0 UV-I 193 W/m 16,8 C 22,6 C 4,8 km/h (1 Bft) 97,87 %
16.09.2016 15:52 22,6 C 71 % 1009,9 hPa 0,0 l/m 1,2 km/h (1 Bft) NW 323 0 min 0,000 mm 1,0 UV-I 194 W/m 17,1 C 22,6 C 6,4 km/h (2 Bft) 97,87 %
16.09.2016 15:54 22,5 C 71 % 1009,9 hPa 0,0 l/m 3,0 km/h (1 Bft) N 11 0 min 0,000 mm 1,0 UV-I 200 W/m 17,0 C 22,5 C 6,4 km/h (2 Bft) 100,00 %
16.09.2016 15:56 22,4 C 71 % 1009,8 hPa 0,0 l/m 2,4 km/h (1 Bft) NW 319 0 min 0,000 mm 1,0 UV-I 207 W/m 16,9 C 22,4 C 4,8 km/h (1 Bft) 97,87 %
16.09.2016 15:58 22,4 C 71 % 1009,8 hPa 0,0 l/m 1,2 km/h (1 Bft) NW 318 0 min 0,000 mm 1,0 UV-I 214 W/m 16,9 C 22,4 C 4,8 km/h (1 Bft) 97,87 %
16.09.2016 16:00 22,4 C 71 % 1009,9 hPa 0,0 l/m 0,7 km/h (0 Bft) NW 318 0 min 0,000 mm 1,0 UV-I 219 W/m 16,9 C 22,4 C 3,2 km/h (1 Bft) 100,00 %
16.09.2016 16:02 22,4 C 70 % 1009,9 hPa 0,0 l/m 1,3 km/h (1 Bft) NW 305 0 min 0,152 mm 1,0 UV-I 220 W/m 16,7 C 22,4 C 3,2 km/h (1 Bft) 95,74 %
16.09.2016 16:04 22,4 C 71 % 1009,9 hPa 0,0 l/m 2,2 km/h (1 Bft) N 5 0 min 0,000 mm 1,0 UV-I 221 W/m 16,9 C 22,4 C 4,8 km/h (1 Bft) 100,00 %
16.09.2016 16:06 22,5 C 71 % 1009,9 hPa 0,0 l/m 2,8 km/h (1 Bft) N-NW 329 0 min 0,000 mm 1,0 UV-I 223 W/m 17,0 C 22,5 C 8,0 km/h (2 Bft) 100,00 %
16.09.2016 16:08 22,5 C 70 % 1009,8 hPa 0,0 l/m 2,8 km/h (1 Bft) N 355 0 min 0,000 mm 1,0 UV-I 219 W/m 16,7 C 22,5 C 6,4 km/h (2 Bft) 97,87 %
16.09.2016 16:10 22,6 C 70 % 1009,8 hPa 0,0 l/m 1,8 km/h (1 Bft) W-NW 294 0 min 0,000 mm 1,0 UV-I 205 W/m 16,8 C 22,6 C 4,8 km/h (1 Bft) 100,00 %
16.09.2016 16:12 22,5 C 71 % 1009,9 hPa 0,0 l/m 1,7 km/h (1 Bft) W-NW 296 0 min 0,000 mm 0,9 UV-I 189 W/m 17,0 C 22,5 C 3,2 km/h (1 Bft) 100,00 %
16.09.2016 16:14 22,4 C 69 % 1010,0 hPa 0,0 l/m 2,7 km/h (1 Bft) N-NW 337 0 min 0,000 mm 0,9 UV-I 178 W/m 16,4 C 22,4 C 4,8 km/h (1 Bft) 97,87 %
16.09.2016 16:16 22,4 C 70 % 1009,8 hPa 0,0 l/m 2,3 km/h (1 Bft) N-NW 329 0 min 0,000 mm 0,8 UV-I 175 W/m 16,7 C 22,4 C 6,4 km/h (2 Bft) 100,00 %
16.09.2016 16:18 22,4 C 70 % 1009,8 hPa 0,0 l/m 1,2 km/h (1 Bft) W-NW 302 0 min 0,000 mm 0,8 UV-I 177 W/m 16,7 C 22,4 C 4,8 km/h (1 Bft) 100,00 %
16.09.2016 16:20 22,4 C 69 % 1009,8 hPa 0,0 l/m 1,1 km/h (1 Bft) N-NW 344 0 min 0,000 mm 0,8 UV-I 175 W/m 16,4 C 22,4 C 4,8 km/h (1 Bft) 100,00 %
16.09.2016 16:22 22,4 C 71 % 1009,8 hPa 0,0 l/m 2,0 km/h (1 Bft) NW 317 0 min 0,000 mm 0,7 UV-I 168 W/m 16,9 C 22,4 C 4,8 km/h (1 Bft) 100,00 %
16.09.2016 16:24 22,4 C 70 % 1009,9 hPa 0,0 l/m 1,8 km/h (1 Bft) NW 316 0 min 0,000 mm 0,7 UV-I 158 W/m 16,7 C 22,4 C 3,2 km/h (1 Bft) 100,00 %
16.09.2016 16:26 22,4 C 72 % 1009,8 hPa 0,0 l/m 1,8 km/h (1 Bft) N-NW 338 0 min 0,000 mm 0,7 UV-I 152 W/m 17,1 C 22,4 C 4,8 km/h (1 Bft) 97,92 %
16.09.2016 16:28 22,4 C 72 % 1009,8 hPa 0,0 l/m 1,9 km/h (1 Bft) N-NW 336 0 min 0,000 mm 0,6 UV-I 151 W/m 17,1 C 22,4 C 3,2 km/h (1 Bft) 100,00 %
16.09.2016 16:30 22,4 C 71 % 1009,9 hPa 0,0 l/m 1,4 km/h (1 Bft) N-NW 336 0 min 0,000 mm 0,6 UV-I 151 W/m 16,9 C 22,4 C 3,2 km/h (1 Bft) 100,00 %
16.09.2016 16:32 22,3 C 71 % 1009,9 hPa 0,0 l/m 1,3 km/h (1 Bft) N-NW 336 0 min 0,000 mm 0,6 UV-I 147 W/m 16,8 C 22,3 C 3,2 km/h (1 Bft) 100,00 %
16.09.2016 16:34 22,3 C 71 % 1009,8 hPa 0,0 l/m 2,5 km/h (1 Bft) N-NW 329 0 min 0,000 mm 0,6 UV-I 141 W/m 16,8 C 22,3 C 4,8 km/h (1 Bft) 100,00 %
16.09.2016 16:36 22,3 C 72 % 1009,8 hPa 0,0 l/m 1,2 km/h (1 Bft) N-NW 329 0 min 0,000 mm 0,6 UV-I 138 W/m 17,0 C 22,3 C 3,2 km/h (1 Bft) 97,87 %
16.09.2016 16:38 22,2 C 70 % 1009,8 hPa 0,0 l/m 0,4 km/h (0 Bft) N-NW 329 0 min 0,000 mm 0,5 UV-I 136 W/m 16,5 C 22,2 C 1,6 km/h (1 Bft) 97,87 %
16.09.2016 16:40 22,2 C 71 % 1009,8 hPa 0,0 l/m 1,4 km/h (1 Bft) N-NW 343 0 min 0,000 mm 0,5 UV-I 135 W/m 16,7 C 22,2 C 3,2 km/h (1 Bft) 97,87 %
16.09.2016 16:42 22,2 C 71 % 1009,9 hPa 0,0 l/m 1,2 km/h (1 Bft) N-NW 329 0 min 0,000 mm 0,5 UV-I 133 W/m 16,7 C 22,2 C 4,8 km/h (1 Bft) 100,00 %
16.09.2016 16:44 22,2 C 72 % 1009,9 hPa 0,0 l/m 1,5 km/h (1 Bft) N-NW 328 0 min 0,000 mm 0,5 UV-I 129 W/m 16,9 C 22,2 C 3,2 km/h (1 Bft) 100,00 %
16.09.2016 16:46 22,2 C 72 % 1009,8 hPa 0,0 l/m 0,9 km/h (0 Bft) NW 325 0 min 0,000 mm 0,5 UV-I 120 W/m 16,9 C 22,2 C 3,2 km/h (1 Bft) 97,87 %
16.09.2016 16:48 22,1 C 72 % 1009,8 hPa 0,0 l/m 2,7 km/h (1 Bft) N 350 0 min 0,000 mm 0,2 UV-I 113 W/m 16,8 C 22,1 C 4,8 km/h (1 Bft) 100,00 %
16.09.2016 16:50 22,1 C 72 % 1009,7 hPa 0,0 l/m 1,9 km/h (1 Bft) N-NW 328 0 min 0,000 mm 0,0 UV-I 108 W/m 16,8 C 22,1 C 4,8 km/h (1 Bft) 100,00 %
16.09.2016 16:52 22,0 C 72 % 1009,7 hPa 0,0 l/m 1,0 km/h (0 Bft) NW 325 0 min 0,000 mm 0,0 UV-I 107 W/m 16,7 C 22,0 C 4,8 km/h (1 Bft) 100,00 %
16.09.2016 16:54 21,9 C 73 % 1009,7 hPa 0,0 l/m 1,0 km/h (0 Bft) N 355 0 min 0,000 mm 0,0 UV-I 107 W/m 16,8 C 21,9 C 3,2 km/h (1 Bft) 100,00 %
16.09.2016 16:56 21,9 C 72 % 1009,7 hPa 0,0 l/m 1,7 km/h (1 Bft) N 355 0 min 0,000 mm 0,0 UV-I 107 W/m 16,6 C 21,9 C 3,2 km/h (1 Bft) 95,74 %
16.09.2016 16:58 21,8 C 72 % 1009,7 hPa 0,0 l/m 0,9 km/h (0 Bft) N 355 0 min 0,000 mm 0,0 UV-I 103 W/m 16,5 C 21,8 C 3,2 km/h (1 Bft) 100,00 %
16.09.2016 17:00 21,8 C 72 % 1009,7 hPa 0,0 l/m 0,4 km/h (0 Bft) N 355 0 min 0,102 mm 0,0 UV-I 98 W/m 16,5 C 21,8 C 1,6 km/h (1 Bft) 98,00 %
16.09.2016 17:02 21,8 C 73 % 1009,7 hPa 0,0 l/m 0,9 km/h (0 Bft) N 355 0 min 0,000 mm 0,0 UV-I 96 W/m 16,7 C 21,8 C 1,6 km/h (1 Bft) 100,00 %
16.09.2016 17:04 21,8 C 72 % 1009,7 hPa 0,0 l/m 1,3 km/h (1 Bft) N-NW 332 0 min 0,000 mm 0,0 UV-I 91 W/m 16,5 C 21,8 C 4,8 km/h (1 Bft) 95,74 %
16.09.2016 17:06 21,8 C 73 % 1009,6 hPa 0,0 l/m 0,4 km/h (0 Bft) N-NW 332 0 min 0,000 mm 0,0 UV-I 86 W/m 16,7 C 21,8 C 1,6 km/h (1 Bft) 97,87 %
16.09.2016 17:08 21,8 C 73 % 1009,6 hPa 0,0 l/m 0,2 km/h (0 Bft) N-NW 332 0 min 0,000 mm 0,0 UV-I 82 W/m 16,7 C 21,8 C 1,6 km/h (1 Bft) 100,00 %
16.09.2016 17:10 21,8 C 73 % 1009,6 hPa 0,0 l/m 0,0 km/h (0 Bft) N-NW 332 0 min 0,000 mm 0,0 UV-I 78 W/m 16,7 C 21,8 C 1,6 km/h (1 Bft) 100,00 %
16.09.2016 17:12 21,8 C 73 % 1009,5 hPa 0,0 l/m 0,9 km/h (0 Bft) N-NW 332 0 min 0,000 mm 0,0 UV-I 75 W/m 16,7 C 21,8 C 3,2 km/h (1 Bft) 97,87 %
16.09.2016 17:14 21,8 C 74 % 1009,5 hPa 0,0 l/m 1,5 km/h (1 Bft) N-NW 338 0 min 0,000 mm 0,0 UV-I 72 W/m 17,0 C 21,8 C 3,2 km/h (1 Bft) 100,00 %
16.09.2016 17:16 21,8 C 73 % 1009,5 hPa 0,0 l/m 0,8 km/h (0 Bft) N-NW 338 0 min 0,000 mm 0,0 UV-I 70 W/m 16,7 C 21,8 C 1,6 km/h (1 Bft) 97,87 %
16.09.2016 17:18 21,8 C 74 % 1009,5 hPa 0,0 l/m 0,4 km/h (0 Bft) N-NW 338 0 min 0,000 mm 0,0 UV-I 69 W/m 17,0 C 21,8 C 1,6 km/h (1 Bft) 95,74 %
16.09.2016 17:20 21,8 C 73 % 1009,5 hPa 0,0 l/m 0,2 km/h (0 Bft) N-NW 338 0 min 0,000 mm 0,0 UV-I 67 W/m 16,7 C 21,8 C 1,6 km/h (1 Bft) 97,87 %
16.09.2016 17:22 21,7 C 73 % 1009,5 hPa 0,0 l/m 0,0 km/h (0 Bft) N-NW 338 0 min 0,000 mm 0,0 UV-I 64 W/m 16,6 C 21,7 C 1,6 km/h (1 Bft) 93,62 %
16.09.2016 17:24 21,8 C 74 % 1009,5 hPa 0,0 l/m 1,7 km/h (1 Bft) N-NW 338 0 min 0,000 mm 0,0 UV-I 63 W/m 17,0 C 21,8 C 3,2 km/h (1 Bft) 93,62 %
16.09.2016 17:26 21,7 C 73 % 1009,5 hPa 0,0 l/m 1,3 km/h (1 Bft) N-NW 338 0 min 0,000 mm 0,0 UV-I 61 W/m 16,6 C 21,7 C 3,2 km/h (1 Bft) 97,87 %
16.09.2016 17:28 21,7 C 74 % 1009,5 hPa 0,0 l/m 0,4 km/h (0 Bft) N-NW 338 0 min 0,000 mm 0,0 UV-I 59 W/m 16,9 C 21,7 C 1,6 km/h (1 Bft) 97,87 %
16.09.2016 17:30 21,7 C 74 % 1009,5 hPa 0,0 l/m 0,2 km/h (0 Bft) N-NW 338 0 min 0,000 mm 0,0 UV-I 58 W/m 16,9 C 21,7 C 1,6 km/h (1 Bft) 95,74 %
16.09.2016 17:32 21,6 C 74 % 1009,5 hPa 0,0 l/m 0,0 km/h (0 Bft) N-NW 338 0 min 0,000 mm 0,0 UV-I 56 W/m 16,8 C 21,6 C 0,0 km/h (0 Bft) 95,74 %
16.09.2016 17:34 21,6 C 74 % 1009,5 hPa 0,0 l/m 0,1 km/h (0 Bft) N-NW 338 0 min 0,000 mm 0,0 UV-I 55 W/m 16,8 C 21,6 C 1,6 km/h (1 Bft) 98,00 %
16.09.2016 17:36 21,6 C 74 % 1009,4 hPa 0,0 l/m 0,0 km/h (0 Bft) N-NW 338 0 min 0,000 mm 0,0 UV-I 54 W/m 16,8 C 21,6 C 1,6 km/h (1 Bft) 95,74 %
16.09.2016 17:38 21,6 C 75 % 1009,4 hPa 0,0 l/m 0,3 km/h (0 Bft) N-NW 338 0 min 0,000 mm 0,0 UV-I 53 W/m 17,0 C 21,6 C 1,6 km/h (1 Bft) 97,87 %
16.09.2016 17:40 21,6 C 74 % 1009,4 hPa 0,0 l/m 0,6 km/h (0 Bft) N-NW 338 0 min 0,000 mm 0,0 UV-I 53 W/m 16,8 C 21,6 C 1,6 km/h (1 Bft) 100,00 %
16.09.2016 17:42 21,6 C 75 % 1009,4 hPa 0,0 l/m 1,0 km/h (0 Bft) N-NW 338 0 min 0,000 mm 0,0 UV-I 53 W/m 17,0 C 21,6 C 1,6 km/h (1 Bft) 96,00 %
16.09.2016 17:44 21,6 C 75 % 1009,4 hPa 0,0 l/m 0,0 km/h (0 Bft) N-NW 338 0 min 0,000 mm 0,0 UV-I 53 W/m 17,0 C 21,6 C 0,0 km/h (0 Bft) 98,00 %
16.09.2016 17:46 21,6 C 74 % 1009,4 hPa 0,0 l/m 0,0 km/h (0 Bft) N-NW 338 0 min 0,000 mm 0,0 UV-I 52 W/m 16,8 C 21,6 C 0,0 km/h (0 Bft) 97,87 %
16.09.2016 17:48 21,6 C 74 % 1009,4 hPa 0,0 l/m 0,0 km/h (0 Bft) N-NW 338 0 min 0,000 mm 0,0 UV-I 51 W/m 16,8 C 21,6 C 0,0 km/h (0 Bft) 98,00 %
16.09.2016 17:50 21,6 C 75 % 1009,4 hPa 0,0 l/m 0,0 km/h (0 Bft) N-NW 338 0 min 0,000 mm 0,0 UV-I 51 W/m 17,0 C 21,6 C 0,0 km/h (0 Bft) 93,62 %
16.09.2016 17:52 21,6 C 75 % 1009,4 hPa 0,0 l/m 0,0 km/h (0 Bft) N-NW 338 0 min 0,000 mm 0,0 UV-I 48 W/m 17,0 C 21,6 C 1,6 km/h (1 Bft) 91,49 %
16.09.2016 17:54 21,6 C 75 % 1009,4 hPa 0,0 l/m 0,0 km/h (0 Bft) N-NW 338 0 min 0,000 mm 0,0 UV-I 46 W/m 17,0 C 21,6 C 0,0 km/h (0 Bft) 97,87 %
16.09.2016 17:56 21,5 C 75 % 1009,3 hPa 0,0 l/m 0,0 km/h (0 Bft) N-NW 338 0 min 0,000 mm 0,0 UV-I 44 W/m 16,9 C 21,5 C 0,0 km/h (0 Bft) 98,00 %
16.09.2016 17:58 21,5 C 75 % 1009,3 hPa 0,0 l/m 0,0 km/h (0 Bft) N-NW 338 0 min 0,000 mm 0,0 UV-I 40 W/m 16,9 C 21,5 C 0,0 km/h (0 Bft) 91,43 %
16.09.2016 18:00 21,5 C 76 % 1009,3 hPa 0,0 l/m 0,2 km/h (0 Bft) N-NW 338 0 min 0,000 mm 0,0 UV-I 39 W/m 17,1 C 21,5 C 1,6 km/h (1 Bft) 97,87 %
16.09.2016 18:02 21,4 C 76 % 1009,3 hPa 0,0 l/m 1,0 km/h (0 Bft) N-NW 338 0 min 0,050 mm 0,0 UV-I 37 W/m 17,0 C 21,4 C 1,6 km/h (1 Bft) 100,00 %
16.09.2016 18:04 21,4 C 77 % 1009,3 hPa 0,0 l/m 0,9 km/h (0 Bft) N-NW 338 0 min 0,000 mm 0,0 UV-I 35 W/m 17,2 C 21,4 C 1,6 km/h (1 Bft) 100,00 %
16.09.2016 18:06 21,4 C 76 % 1009,2 hPa 0,0 l/m 0,0 km/h (0 Bft) N-NW 338 0 min 0,000 mm 0,0 UV-I 34 W/m 17,0 C 21,4 C 1,6 km/h (1 Bft) 100,00 %
16.09.2016 18:08 21,3 C 76 % 1009,2 hPa 0,0 l/m 0,0 km/h (0 Bft) N-NW 338 0 min 0,000 mm 0,0 UV-I 33 W/m 16,9 C 21,3 C 0,0 km/h (0 Bft) 100,00 %
16.09.2016 18:10 21,3 C 76 % 1009,2 hPa 0,0 l/m 0,1 km/h (0 Bft) N-NW 338 0 min 0,000 mm 0,0 UV-I 33 W/m 16,9 C 21,3 C 1,6 km/h (1 Bft) 100,00 %
16.09.2016 18:12 21,3 C 76 % 1009,1 hPa 0,0 l/m 0,4 km/h (0 Bft) N-NW 338 0 min 0,000 mm 0,0 UV-I 32 W/m 16,9 C 21,3 C 1,6 km/h (1 Bft) 100,00 %
16.09.2016 18:14 21,3 C 77 % 1009,1 hPa 0,0 l/m 0,9 km/h (0 Bft) N-NW 338 0 min 0,000 mm 0,0 UV-I 31 W/m 17,1 C 21,3 C 1,6 km/h (1 Bft) 100,00 %
16.09.2016 18:16 21,2 C 78 % 1009,2 hPa 0,0 l/m 1,6 km/h (1 Bft) N-NW 338 0 min 0,000 mm 0,0 UV-I 29 W/m 17,2 C 21,2 C 3,2 km/h (1 Bft) 100,00 %
16.09.2016 18:18 21,2 C 79 % 1009,1 hPa 0,0 l/m 0,6 km/h (0 Bft) N-NW 338 0 min 0,000 mm 0,0 UV-I 28 W/m 17,4 C 21,2 C 1,6 km/h (1 Bft) 100,00 %
16.09.2016 18:20 21,1 C 79 % 1009,1 hPa 0,0 l/m 0,7 km/h (0 Bft) N-NW 338 0 min 0,000 mm 0,0 UV-I 26 W/m 17,3 C 21,1 C 1,6 km/h (1 Bft) 100,00 %
16.09.2016 18:22 21,1 C 78 % 1009,1 hPa 0,0 l/m 1,1 km/h (1 Bft) N-NW 338 0 min 0,000 mm 0,0 UV-I 26 W/m 17,1 C 21,1 C 3,2 km/h (1 Bft) 97,87 %
16.09.2016 18:24 21,1 C 78 % 1009,0 hPa 0,0 l/m 0,1 km/h (0 Bft) N-NW 338 0 min 0,000 mm 0,0 UV-I 26 W/m 17,1 C 21,1 C 1,6 km/h (1 Bft) 97,87 %
16.09.2016 18:26 21,0 C 77 % 1009,0 hPa 0,0 l/m 0,1 km/h (0 Bft) N-NW 338 0 min 0,000 mm 0,0 UV-I 26 W/m 16,8 C 21,0 C 1,6 km/h (1 Bft) 93,62 %
16.09.2016 18:28 20,9 C 77 % 1009,0 hPa 0,0 l/m 0,8 km/h (0 Bft) N-NW 338 0 min 0,000 mm 0,0 UV-I 29 W/m 16,7 C 20,9 C 3,2 km/h (1 Bft) 100,00 %
16.09.2016 18:30 20,9 C 76 % 1008,9 hPa 0,0 l/m 0,6 km/h (0 Bft) N-NW 338 0 min 0,000 mm 0,0 UV-I 30 W/m 16,5 C 20,9 C 4,8 km/h (1 Bft) 97,87 %
16.09.2016 18:32 20,9 C 76 % 1009,0 hPa 0,0 l/m 0,5 km/h (0 Bft) N-NW 338 0 min 0,000 mm 0,0 UV-I 32 W/m 16,5 C 20,9 C 3,2 km/h (1 Bft) 97,96 %
16.09.2016 18:34 20,9 C 77 % 1008,9 hPa 0,0 l/m 1,6 km/h (1 Bft) N-NW 338 0 min 0,000 mm 0,0 UV-I 29 W/m 16,7 C 20,9 C 3,2 km/h (1 Bft) 100,00 %
16.09.2016 18:36 20,9 C 77 % 1009,0 hPa 0,0 l/m 0,2 km/h (0 Bft) N-NW 338 0 min 0,000 mm 0,0 UV-I 27 W/m 16,7 C 20,9 C 1,6 km/h (1 Bft) 100,00 %
16.09.2016 18:38 20,9 C 77 % 1008,9 hPa 0,0 l/m 0,0 km/h (0 Bft) N-NW 338 0 min 0,000 mm 0,0 UV-I 25 W/m 16,7 C 20,9 C 1,6 km/h (1 Bft) 100,00 %
16.09.2016 18:40 20,8 C 78 % 1008,9 hPa 0,0 l/m 0,5 km/h (0 Bft) N-NW 338 0 min 0,000 mm 0,0 UV-I 21 W/m 16,8 C 20,8 C 1,6 km/h (1 Bft) 100,00 %
16.09.2016 18:42 20,8 C 78 % 1008,9 hPa 0,0 l/m 0,3 km/h (0 Bft) N-NW 338 0 min 0,000 mm 0,0 UV-I 19 W/m 16,8 C 20,8 C 1,6 km/h (1 Bft) 100,00 %
16.09.2016 18:44 20,7 C 78 % 1008,9 hPa 0,0 l/m 0,2 km/h (0 Bft) N-NW 338 0 min 0,000 mm 0,0 UV-I 18 W/m 16,7 C 20,7 C 1,6 km/h (1 Bft) 100,00 %
16.09.2016 18:46 20,7 C 79 % 1008,8 hPa 0,0 l/m 0,1 km/h (0 Bft) N-NW 338 0 min 0,000 mm 0,0 UV-I 14 W/m 16,9 C 20,7 C 1,6 km/h (1 Bft) 100,00 %
16.09.2016 18:48 20,6 C 79 % 1008,8 hPa 0,0 l/m 0,3 km/h (0 Bft) N-NW 338 0 min 0,000 mm 0,0 UV-I 12 W/m 16,8 C 20,6 C 1,6 km/h (1 Bft) 100,00 %
16.09.2016 18:50 20,6 C 79 % 1008,8 hPa 0,0 l/m 0,9 km/h (0 Bft) N-NW 338 0 min 0,000 mm 0,0 UV-I 11 W/m 16,8 C 20,6 C 3,2 km/h (1 Bft) 97,96 %
16.09.2016 18:52 20,5 C 79 % 1008,8 hPa 0,0 l/m 0,6 km/h (0 Bft) N-NW 338 0 min 0,000 mm 0,0 UV-I 11 W/m 16,7 C 20,5 C 3,2 km/h (1 Bft) 100,00 %
16.09.2016 18:54 20,5 C 79 % 1008,8 hPa 0,0 l/m 0,2 km/h (0 Bft) N-NW 338 0 min 0,000 mm 0,0 UV-I 9 W/m 16,7 C 20,5 C 1,6 km/h (1 Bft) 100,00 %
16.09.2016 18:56 20,4 C 79 % 1008,8 hPa 0,0 l/m 0,4 km/h (0 Bft) N-NW 338 0 min 0,000 mm 0,0 UV-I 8 W/m 16,6 C 20,4 C 1,6 km/h (1 Bft) 100,00 %
16.09.2016 18:58 20,4 C 78 % 1008,8 hPa 0,0 l/m 0,2 km/h (0 Bft) N-NW 338 0 min 0,000 mm 0,0 UV-I 5 W/m 16,4 C 20,4 C 1,6 km/h (1 Bft) 100,00 %
16.09.2016 19:00 20,4 C 78 % 1008,8 hPa 0,0 l/m 0,1 km/h (0 Bft) N-NW 338 0 min 0,000 mm 0,0 UV-I 2 W/m 16,4 C 20,4 C 1,6 km/h (1 Bft) 100,00 %
16.09.2016 19:02 20,4 C 79 % 1008,8 hPa 0,0 l/m 0,0 km/h (0 Bft) N-NW 338 0 min 0,026 mm 0,0 UV-I 0 W/m 16,6 C 20,4 C 0,0 km/h (0 Bft) 100,00 %
16.09.2016 19:04 20,4 C 78 % 1008,8 hPa 0,0 l/m 0,0 km/h (0 Bft) N-NW 338 0 min 0,000 mm 0,0 UV-I 0 W/m 16,4 C 20,4 C 0,0 km/h (0 Bft) 100,00 %
16.09.2016 19:06 20,4 C 78 % 1008,9 hPa 0,0 l/m 0,4 km/h (0 Bft) N-NW 338 0 min 0,000 mm 0,0 UV-I 0 W/m 16,4 C 20,4 C 1,6 km/h (1 Bft) 100,00 %
16.09.2016 19:08 20,4 C 80 % 1008,8 hPa 0,0 l/m 1,3 km/h (1 Bft) N-NW 338 0 min 0,000 mm 0,0 UV-I 0 W/m 16,8 C 20,4 C 3,2 km/h (1 Bft) 95,74 %
16.09.2016 19:10 20,3 C 80 % 1008,8 hPa 0,0 l/m 1,5 km/h (1 Bft) N-NW 338 0 min 0,000 mm 0,0 UV-I 0 W/m 16,7 C 20,3 C 1,6 km/h (1 Bft) 100,00 %
16.09.2016 19:12 20,2 C 80 % 1008,8 hPa 0,0 l/m 1,9 km/h (1 Bft) N-NW 338 0 min 0,000 mm 0,0 UV-I 0 W/m 16,6 C 20,2 C 3,2 km/h (1 Bft) 100,00 %
16.09.2016 19:14 20,2 C 79 % 1008,8 hPa 0,0 l/m 1,0 km/h (0 Bft) N-NW 338 0 min 0,000 mm 0,0 UV-I 0 W/m 16,4 C 20,2 C 3,2 km/h (1 Bft) 97,87 %
16.09.2016 19:16 20,2 C 80 % 1008,8 hPa 0,0 l/m 2,5 km/h (1 Bft) N-NW 338 0 min 0,000 mm 0,0 UV-I 0 W/m 16,6 C 20,2 C 3,2 km/h (1 Bft) 97,37 %
16.09.2016 19:18 20,2 C 79 % 1008,8 hPa 0,0 l/m 2,6 km/h (1 Bft) N-NW 338 0 min 0,000 mm 0,0 UV-I 0 W/m 16,4 C 20,2 C 4,8 km/h (1 Bft) 97,96 %
16.09.2016 19:20 20,2 C 79 % 1008,8 hPa 0,0 l/m 3,6 km/h (1 Bft) NO 53 0 min 0,000 mm 0,0 UV-I 0 W/m 16,4 C 20,2 C 6,4 km/h (2 Bft) 97,96 %
16.09.2016 19:22 20,2 C 81 % 1008,8 hPa 0,0 l/m 4,5 km/h (1 Bft) NO 53 0 min 0,000 mm 0,0 UV-I 0 W/m 16,8 C 20,2 C 6,4 km/h (2 Bft) 95,74 %
16.09.2016 19:24 20,1 C 81 % 1008,8 hPa 0,0 l/m 4,7 km/h (1 Bft) O-NO 59 0 min 0,000 mm 0,0 UV-I 0 W/m 16,7 C 20,1 C 6,4 km/h (2 Bft) 96,00 %
16.09.2016 19:26 20,0 C 81 % 1008,8 hPa 0,0 l/m 4,7 km/h (1 Bft) O-NO 76 0 min 0,000 mm 0,0 UV-I 0 W/m 16,6 C 20,0 C 6,4 km/h (2 Bft) 97,56 %
16.09.2016 19:28 20,0 C 81 % 1008,9 hPa 0,0 l/m 4,4 km/h (1 Bft) O-NO 77 0 min 0,000 mm 0,0 UV-I 0 W/m 16,6 C 20,0 C 6,4 km/h (2 Bft) 97,96 %
16.09.2016 19:30 19,9 C 81 % 1008,9 hPa 0,0 l/m 4,3 km/h (1 Bft) O 80 0 min 0,000 mm 0,0 UV-I 0 W/m 16,5 C 19,9 C 6,4 km/h (2 Bft) 97,87 %
16.09.2016 19:32 19,8 C 81 % 1008,9 hPa 0,0 l/m 3,7 km/h (1 Bft) O 80 0 min 0,000 mm 0,0 UV-I 0 W/m 16,4 C 19,8 C 4,8 km/h (1 Bft) 97,87 %
16.09.2016 19:34 19,8 C 81 % 1008,9 hPa 0,0 l/m 4,1 km/h (1 Bft) O-NO 71 0 min 0,000 mm 0,0 UV-I 0 W/m 16,4 C 19,8 C 6,4 km/h (2 Bft) 97,87 %
16.09.2016 19:36 19,9 C 81 % 1009,0 hPa 0,0 l/m 4,3 km/h (1 Bft) O 81 0 min 0,000 mm 0,0 UV-I 0 W/m 16,5 C 19,9 C 6,4 km/h (2 Bft) 95,74 %
16.09.2016 19:38 19,9 C 81 % 1009,0 hPa 0,0 l/m 3,3 km/h (1 Bft) O 81 0 min 0,000 mm 0,0 UV-I 0 W/m 16,5 C 19,9 C 4,8 km/h (1 Bft) 95,83 %
16.09.2016 19:40 19,9 C 81 % 1009,0 hPa 0,0 l/m 3,1 km/h (1 Bft) O 81 0 min 0,000 mm 0,0 UV-I 0 W/m 16,5 C 19,9 C 4,8 km/h (1 Bft) 96,00 %
16.09.2016 19:42 19,9 C 80 % 1008,9 hPa 0,0 l/m 2,2 km/h (1 Bft) O 81 0 min 0,000 mm 0,0 UV-I 0 W/m 16,3 C 19,9 C 3,2 km/h (1 Bft) 97,87 %
16.09.2016 19:44 20,0 C 80 % 1009,0 hPa 0,0 l/m 0,4 km/h (0 Bft) O 81 0 min 0,000 mm 0,0 UV-I 0 W/m 16,4 C 20,0 C 1,6 km/h (1 Bft) 100,00 %
16.09.2016 19:46 20,1 C 80 % 1008,9 hPa 0,0 l/m 0,0 km/h (0 Bft) O 81 0 min 0,000 mm 0,0 UV-I 0 W/m 16,5 C 20,1 C 1,6 km/h (1 Bft) 93,62 %
16.09.2016 19:48 20,1 C 80 % 1009,0 hPa 0,0 l/m 0,0 km/h (0 Bft) O 81 0 min 0,000 mm 0,0 UV-I 0 W/m 16,5 C 20,1 C 0,0 km/h (0 Bft) 97,87 %
16.09.2016 19:50 20,1 C 80 % 1008,9 hPa 0,0 l/m 0,0 km/h (0 Bft) O 81 0 min 0,000 mm 0,0 UV-I 0 W/m 16,5 C 20,1 C 0,0 km/h (0 Bft) 95,74 %
16.09.2016 19:52 20,1 C 80 % 1008,9 hPa 0,0 l/m 0,0 km/h (0 Bft) O 81 0 min 0,000 mm 0,0 UV-I 0 W/m 16,5 C 20,1 C 0,0 km/h (0 Bft) 97,87 %
16.09.2016 19:54 20,0 C 81 % 1008,9 hPa 0,0 l/m 0,0 km/h (0 Bft) O 81 0 min 0,000 mm 0,0 UV-I 0 W/m 16,6 C 20,0 C 0,0 km/h (0 Bft) 97,87 %
16.09.2016 19:56 19,9 C 82 % 1008,9 hPa 0,0 l/m 0,0 km/h (0 Bft) O 81 0 min 0,000 mm 0,0 UV-I 0 W/m 16,7 C 19,9 C 0,0 km/h (0 Bft) 95,74 %
16.09.2016 19:58 19,9 C 82 % 1008,9 hPa 0,0 l/m 0,0 km/h (0 Bft) O 81 0 min 0,000 mm 0,0 UV-I 0 W/m 16,7 C 19,9 C 0,0 km/h (0 Bft) 95,74 %
16.09.2016 20:00 19,8 C 82 % 1008,9 hPa 0,0 l/m 0,0 km/h (0 Bft) O 81 0 min 0,000 mm 0,0 UV-I 0 W/m 16,6 C 19,8 C 0,0 km/h (0 Bft) 94,29 %
16.09.2016 20:02 19,8 C 83 % 1009,0 hPa 0,0 l/m 0,0 km/h (0 Bft) O 81 0 min 0,000 mm 0,0 UV-I 0 W/m 16,8 C 19,8 C 0,0 km/h (0 Bft) 100,00 %
16.09.2016 20:04 19,8 C 84 % 1008,9 hPa 0,0 l/m 0,0 km/h (0 Bft) O 81 0 min 0,000 mm 0,0 UV-I 0 W/m 17,0 C 19,8 C 0,0 km/h (0 Bft) 100,00 %
16.09.2016 20:06 19,7 C 83 % 1009,0 hPa 0,0 l/m 0,0 km/h (0 Bft) O 81 0 min 0,000 mm 0,0 UV-I 0 W/m 16,7 C 19,7 C 0,0 km/h (0 Bft) 97,87 %
16.09.2016 20:08 19,6 C 84 % 1008,9 hPa 0,0 l/m 0,0 km/h (0 Bft) O 81 0 min 0,000 mm 0,0 UV-I 0 W/m 16,8 C 19,6 C 0,0 km/h (0 Bft) 100,00 %
16.09.2016 20:10 19,6 C 84 % 1008,8 hPa 0,0 l/m 0,0 km/h (0 Bft) O 81 0 min 0,000 mm 0,0 UV-I 0 W/m 16,8 C 19,6 C 0,0 km/h (0 Bft) 98,00 %
16.09.2016 20:12 19,6 C 84 % 1008,8 hPa 0,0 l/m 0,0 km/h (0 Bft) O 81 0 min 0,000 mm 0,0 UV-I 0 W/m 16,8 C 19,6 C 0,0 km/h (0 Bft) 100,00 %
16.09.2016 20:14 19,5 C 84 % 1008,7 hPa 0,0 l/m 0,0 km/h (0 Bft) O 81 0 min 0,000 mm 0,0 UV-I 0 W/m 16,7 C 19,5 C 0,0 km/h (0 Bft) 97,87 %
16.09.2016 20:16 19,5 C 84 % 1008,7 hPa 0,0 l/m 0,0 km/h (0 Bft) O 81 0 min 0,000 mm 0,0 UV-I 0 W/m 16,7 C 19,5 C 0,0 km/h (0 Bft) 100,00 %
16.09.2016 20:18 19,4 C 84 % 1008,7 hPa 0,0 l/m 0,0 km/h (0 Bft) O 81 0 min 0,000 mm 0,0 UV-I 0 W/m 16,6 C 19,4 C 0,0 km/h (0 Bft) 100,00 %
16.09.2016 20:20 19,4 C 84 % 1008,7 hPa 0,0 l/m 0,0 km/h (0 Bft) O 81 0 min 0,000 mm 0,0 UV-I 0 W/m 16,6 C 19,4 C 0,0 km/h (0 Bft) 100,00 %
16.09.2016 20:22 19,3 C 85 % 1008,7 hPa 0,0 l/m 0,0 km/h (0 Bft) O 81 0 min 0,000 mm 0,0 UV-I 0 W/m 16,7 C 19,3 C 0,0 km/h (0 Bft) 100,00 %
16.09.2016 20:24 19,3 C 85 % 1008,6 hPa 0,0 l/m 0,0 km/h (0 Bft) O 81 0 min 0,000 mm 0,0 UV-I 0 W/m 16,7 C 19,3 C 0,0 km/h (0 Bft) 100,00 %
16.09.2016 20:26 19,3 C 85 % 1008,6 hPa 0,0 l/m 0,0 km/h (0 Bft) O 81 0 min 0,000 mm 0,0 UV-I 0 W/m 16,7 C 19,3 C 0,0 km/h (0 Bft) 100,00 %
16.09.2016 20:28 19,3 C 85 % 1008,6 hPa 0,0 l/m 0,0 km/h (0 Bft) O 81 0 min 0,000 mm 0,0 UV-I 0 W/m 16,7 C 19,3 C 0,0 km/h (0 Bft) 97,87 %
16.09.2016 20:30 19,3 C 85 % 1008,6 hPa 0,0 l/m 0,0 km/h (0 Bft) O 81 0 min 0,000 mm 0,0 UV-I 0 W/m 16,7 C 19,3 C 0,0 km/h (0 Bft) 100,00 %
16.09.2016 20:32 19,3 C 85 % 1008,6 hPa 0,0 l/m 0,5 km/h (0 Bft) O-NO 57 0 min 0,000 mm 0,0 UV-I 0 W/m 16,7 C 19,3 C 3,2 km/h (1 Bft) 100,00 %
16.09.2016 20:34 19,3 C 85 % 1008,6 hPa 0,0 l/m 2,1 km/h (1 Bft) N 9 0 min 0,000 mm 0,0 UV-I 0 W/m 16,7 C 19,3 C 3,2 km/h (1 Bft) 100,00 %
16.09.2016 20:36 19,3 C 85 % 1008,7 hPa 0,0 l/m 2,5 km/h (1 Bft) N 9 0 min 0,000 mm 0,0 UV-I 0 W/m 16,7 C 19,3 C 3,2 km/h (1 Bft) 100,00 %
16.09.2016 20:38 19,3 C 84 % 1008,7 hPa 0,0 l/m 1,9 km/h (1 Bft) N 9 0 min 0,000 mm 0,0 UV-I 0 W/m 16,5 C 19,3 C 3,2 km/h (1 Bft) 100,00 %
16.09.2016 20:40 19,4 C 84 % 1008,7 hPa 0,0 l/m 1,4 km/h (1 Bft) N 9 0 min 0,000 mm 0,0 UV-I 0 W/m 16,6 C 19,4 C 3,2 km/h (1 Bft) 100,00 %
16.09.2016 20:42 19,4 C 83 % 1008,6 hPa 0,0 l/m 2,4 km/h (1 Bft) N 9 0 min 0,000 mm 0,0 UV-I 0 W/m 16,4 C 19,4 C 4,8 km/h (1 Bft) 100,00 %
16.09.2016 20:44 19,4 C 83 % 1008,5 hPa 0,0 l/m 0,6 km/h (0 Bft) N 9 0 min 0,000 mm 0,0 UV-I 0 W/m 16,4 C 19,4 C 1,6 km/h (1 Bft) 100,00 %
16.09.2016 20:46 19,4 C 83 % 1008,5 hPa 0,0 l/m 0,5 km/h (0 Bft) N 9 0 min 0,000 mm 0,0 UV-I 0 W/m 16,4 C 19,4 C 1,6 km/h (1 Bft) 97,87 %
16.09.2016 20:48 19,5 C 83 % 1008,5 hPa 0,0 l/m 0,5 km/h (0 Bft) N 9 0 min 0,000 mm 0,0 UV-I 0 W/m 16,5 C 19,5 C 1,6 km/h (1 Bft) 100,00 %
16.09.2016 20:50 19,5 C 83 % 1008,5 hPa 0,0 l/m 0,1 km/h (0 Bft) N 9 0 min 0,000 mm 0,0 UV-I 0 W/m 16,5 C 19,5 C 1,6 km/h (1 Bft) 97,87 %
16.09.2016 20:52 19,5 C 83 % 1008,6 hPa 0,0 l/m 0,5 km/h (0 Bft) N 9 0 min 0,000 mm 0,0 UV-I 0 W/m 16,5 C 19,5 C 1,6 km/h (1 Bft) 98,00 %
16.09.2016 20:54 19,5 C 84 % 1008,6 hPa 0,0 l/m 0,0 km/h (0 Bft) N 9 0 min 0,000 mm 0,0 UV-I 0 W/m 16,7 C 19,5 C 1,6 km/h (1 Bft) 97,87 %
16.09.2016 20:56 19,5 C 84 % 1008,6 hPa 0,0 l/m 1,1 km/h (1 Bft) N 9 0 min 0,000 mm 0,0 UV-I 0 W/m 16,7 C 19,5 C 3,2 km/h (1 Bft) 97,92 %
16.09.2016 20:58 19,4 C 85 % 1008,7 hPa 0,0 l/m 0,8 km/h (0 Bft) N 9 0 min 0,000 mm 0,0 UV-I 0 W/m 16,8 C 19,4 C 1,6 km/h (1 Bft) 97,87 %
16.09.2016 21:00 19,4 C 85 % 1008,7 hPa 0,0 l/m 0,3 km/h (0 Bft) N 9 0 min 0,000 mm 0,0 UV-I 0 W/m 16,8 C 19,4 C 1,6 km/h (1 Bft) 100,00 %
16.09.2016 21:02 19,3 C 85 % 1008,6 hPa 0,0 l/m 0,1 km/h (0 Bft) N 9 0 min 0,000 mm 0,0 UV-I 0 W/m 16,7 C 19,3 C 1,6 km/h (1 Bft) 98,00 %
16.09.2016 21:04 19,3 C 85 % 1008,6 hPa 0,0 l/m 0,3 km/h (0 Bft) N 9 0 min 0,000 mm 0,0 UV-I 0 W/m 16,7 C 19,3 C 1,6 km/h (1 Bft) 97,87 %
16.09.2016 21:06 19,3 C 85 % 1008,7 hPa 0,0 l/m 1,8 km/h (1 Bft) N 9 0 min 0,000 mm 0,0 UV-I 0 W/m 16,7 C 19,3 C 3,2 km/h (1 Bft) 97,87 %
16.09.2016 21:08 19,3 C 85 % 1008,7 hPa 0,0 l/m 3,3 km/h (1 Bft) N 9 0 min 0,000 mm 0,0 UV-I 0 W/m 16,7 C 19,3 C 4,8 km/h (1 Bft) 100,00 %
16.09.2016 21:10 19,3 C 85 % 1008,7 hPa 0,0 l/m 1,8 km/h (1 Bft) N 9 0 min 0,000 mm 0,0 UV-I 0 W/m 16,7 C 19,3 C 3,2 km/h (1 Bft) 100,00 %
16.09.2016 21:12 19,2 C 85 % 1008,7 hPa 0,0 l/m 0,7 km/h (0 Bft) O-SO 107 0 min 0,000 mm 0,0 UV-I 0 W/m 16,6 C 19,2 C 3,2 km/h (1 Bft) 100,00 %
16.09.2016 21:14 19,2 C 85 % 1008,5 hPa 0,0 l/m 0,4 km/h (0 Bft) O-SO 107 0 min 0,000 mm 0,0 UV-I 0 W/m 16,6 C 19,2 C 1,6 km/h (1 Bft) 100,00 %
16.09.2016 21:16 19,2 C 85 % 1008,5 hPa 0,0 l/m 1,0 km/h (0 Bft) O-SO 107 0 min 0,000 mm 0,0 UV-I 0 W/m 16,6 C 19,2 C 3,2 km/h (1 Bft) 100,00 %
16.09.2016 21:18 19,2 C 86 % 1008,5 hPa 0,0 l/m 1,1 km/h (1 Bft) O-SO 116 0 min 0,000 mm 0,0 UV-I 0 W/m 16,8 C 19,2 C 3,2 km/h (1 Bft) 100,00 %
16.09.2016 21:20 19,1 C 86 % 1008,7 hPa 0,0 l/m 2,9 km/h (1 Bft) O-SO 120 0 min 0,000 mm 0,0 UV-I 0 W/m 16,7 C 19,1 C 4,8 km/h (1 Bft) 97,87 %
16.09.2016 21:22 19,1 C 86 % 1008,7 hPa 0,0 l/m 3,2 km/h (1 Bft) O-SO 121 0 min 0,000 mm 0,0 UV-I 0 W/m 16,7 C 19,1 C 4,8 km/h (1 Bft) 95,74 %
16.09.2016 21:24 19,2 C 86 % 1008,6 hPa 0,0 l/m 1,7 km/h (1 Bft) O-SO 121 0 min 0,000 mm 0,0 UV-I 0 W/m 16,8 C 19,2 C 3,2 km/h (1 Bft) 96,00 %
16.09.2016 21:26 19,2 C 86 % 1008,4 hPa 0,0 l/m 0,0 km/h (0 Bft) O-SO 121 0 min 0,000 mm 0,0 UV-I 0 W/m 16,8 C 19,2 C 0,0 km/h (0 Bft) 97,87 %
16.09.2016 21:28 19,2 C 85 % 1008,4 hPa 0,0 l/m 0,0 km/h (0 Bft) O-SO 121 0 min 0,000 mm 0,0 UV-I 0 W/m 16,6 C 19,2 C 0,0 km/h (0 Bft) 97,87 %
16.09.2016 21:30 19,2 C 85 % 1008,4 hPa 0,0 l/m 0,3 km/h (0 Bft) O-SO 121 0 min 0,000 mm 0,0 UV-I 0 W/m 16,6 C 19,2 C 1,6 km/h (1 Bft) 93,62 %
16.09.2016 21:32 19,3 C 85 % 1008,4 hPa 0,0 l/m 0,2 km/h (0 Bft) O-SO 121 0 min 0,000 mm 0,0 UV-I 0 W/m 16,7 C 19,3 C 1,6 km/h (1 Bft) 97,87 %
16.09.2016 21:34 19,2 C 85 % 1008,4 hPa 0,0 l/m 0,0 km/h (0 Bft) O-SO 121 0 min 0,000 mm 0,0 UV-I 0 W/m 16,6 C 19,2 C 0,0 km/h (0 Bft) 97,87 %
16.09.2016 21:36 19,1 C 86 % 1008,4 hPa 0,0 l/m 0,0 km/h (0 Bft) O-SO 121 0 min 0,000 mm 0,0 UV-I 0 W/m 16,7 C 19,1 C 1,6 km/h (1 Bft) 97,92 %
16.09.2016 21:38 19,1 C 86 % 1008,4 hPa 0,0 l/m 0,0 km/h (0 Bft) O-SO 121 0 min 0,000 mm 0,0 UV-I 0 W/m 16,7 C 19,1 C 0,0 km/h (0 Bft) 95,74 %
16.09.2016 21:40 19,0 C 86 % 1008,3 hPa 0,0 l/m 0,0 km/h (0 Bft) O-SO 121 0 min 0,000 mm 0,0 UV-I 0 W/m 16,6 C 19,0 C 0,0 km/h (0 Bft) 95,74 %
16.09.2016 21:42 19,0 C 86 % 1008,3 hPa 0,0 l/m 0,0 km/h (0 Bft) O-SO 121 0 min 0,000 mm 0,0 UV-I 0 W/m 16,6 C 19,0 C 0,0 km/h (0 Bft) 95,74 %
16.09.2016 21:44 19,1 C 86 % 1008,2 hPa 0,0 l/m 0,0 km/h (0 Bft) O-SO 121 0 min 0,000 mm 0,0 UV-I 0 W/m 16,7 C 19,1 C 0,0 km/h (0 Bft) 97,87 %
16.09.2016 21:46 19,1 C 86 % 1008,2 hPa 0,0 l/m 0,3 km/h (0 Bft) O-SO 121 0 min 0,000 mm 0,0 UV-I 0 W/m 16,7 C 19,1 C 1,6 km/h (1 Bft) 95,74 %
16.09.2016 21:48 19,1 C 86 % 1008,1 hPa 0,0 l/m 0,0 km/h (0 Bft) O-SO 121 0 min 0,000 mm 0,0 UV-I 0 W/m 16,7 C 19,1 C 0,0 km/h (0 Bft) 97,87 %
16.09.2016 21:50 19,1 C 86 % 1008,1 hPa 0,0 l/m 1,0 km/h (0 Bft) O-SO 121 0 min 0,000 mm 0,0 UV-I 0 W/m 16,7 C 19,1 C 1,6 km/h (1 Bft) 97,87 %
16.09.2016 21:52 19,0 C 86 % 1008,1 hPa 0,0 l/m 0,9 km/h (0 Bft) O-SO 121 0 min 0,000 mm 0,0 UV-I 0 W/m 16,6 C 19,0 C 1,6 km/h (1 Bft) 97,87 %
16.09.2016 21:54 19,0 C 87 % 1008,1 hPa 0,0 l/m 0,8 km/h (0 Bft) O-SO 121 0 min 0,000 mm 0,0 UV-I 0 W/m 16,8 C 19,0 C 1,6 km/h (1 Bft) 97,87 %
16.09.2016 21:56 18,9 C 87 % 1008,2 hPa 0,0 l/m 0,2 km/h (0 Bft) O-SO 121 0 min 0,000 mm 0,0 UV-I 0 W/m 16,7 C 18,9 C 1,6 km/h (1 Bft) 97,87 %
16.09.2016 21:58 18,9 C 87 % 1008,2 hPa 0,0 l/m 0,4 km/h (0 Bft) O-SO 121 0 min 0,000 mm 0,0 UV-I 0 W/m 16,7 C 18,9 C 1,6 km/h (1 Bft) 95,74 %
16.09.2016 22:00 18,8 C 87 % 1008,3 hPa 0,0 l/m 0,6 km/h (0 Bft) O-SO 121 0 min 0,000 mm 0,0 UV-I 0 W/m 16,6 C 18,8 C 1,6 km/h (1 Bft) 100,00 %
16.09.2016 22:02 18,8 C 87 % 1008,3 hPa 0,0 l/m 0,4 km/h (0 Bft) O-SO 121 0 min 0,000 mm 0,0 UV-I 0 W/m 16,6 C 18,8 C 1,6 km/h (1 Bft) 100,00 %
16.09.2016 22:04 18,7 C 87 % 1008,3 hPa 0,0 l/m 1,4 km/h (1 Bft) O-SO 121 0 min 0,000 mm 0,0 UV-I 0 W/m 16,5 C 18,7 C 4,8 km/h (1 Bft) 97,87 %
16.09.2016 22:06 18,7 C 87 % 1008,3 hPa 0,0 l/m 1,4 km/h (1 Bft) O-SO 121 0 min 0,000 mm 0,0 UV-I 0 W/m 16,5 C 18,7 C 3,2 km/h (1 Bft) 97,87 %
16.09.2016 22:08 18,7 C 87 % 1008,3 hPa 0,0 l/m 2,1 km/h (1 Bft) O-SO 121 0 min 0,000 mm 0,0 UV-I 0 W/m 16,5 C 18,7 C 3,2 km/h (1 Bft) 95,74 %
16.09.2016 22:10 18,7 C 87 % 1008,3 hPa 0,0 l/m 3,3 km/h (1 Bft) O-SO 121 0 min 0,000 mm 0,0 UV-I 0 W/m 16,5 C 18,7 C 4,8 km/h (1 Bft) 100,00 %
16.09.2016 22:12 18,8 C 87 % 1008,3 hPa 0,0 l/m 3,4 km/h (1 Bft) O-SO 121 0 min 0,000 mm 0,0 UV-I 0 W/m 16,6 C 18,8 C 4,8 km/h (1 Bft) 97,87 %
16.09.2016 22:14 18,7 C 87 % 1008,3 hPa 0,0 l/m 2,5 km/h (1 Bft) O-SO 121 0 min 0,000 mm 0,0 UV-I 0 W/m 16,5 C 18,7 C 4,8 km/h (1 Bft) 97,87 %
16.09.2016 22:16 18,8 C 87 % 1008,4 hPa 0,0 l/m 1,7 km/h (1 Bft) O-SO 121 0 min 0,000 mm 0,0 UV-I 0 W/m 16,6 C 18,8 C 3,2 km/h (1 Bft) 97,87 %
16.09.2016 22:18 18,8 C 87 % 1008,3 hPa 0,0 l/m 1,2 km/h (1 Bft) O-SO 121 0 min 0,000 mm 0,0 UV-I 0 W/m 16,6 C 18,8 C 3,2 km/h (1 Bft) 98,00 %
16.09.2016 22:20 18,8 C 87 % 1008,3 hPa 0,0 l/m 2,3 km/h (1 Bft) O-SO 121 0 min 0,000 mm 0,0 UV-I 0 W/m 16,6 C 18,8 C 4,8 km/h (1 Bft) 100,00 %
16.09.2016 22:22 18,8 C 87 % 1008,3 hPa 0,0 l/m 3,2 km/h (1 Bft) O-SO 121 0 min 0,000 mm 0,0 UV-I 0 W/m 16,6 C 18,8 C 4,8 km/h (1 Bft) 100,00 %
16.09.2016 22:24 18,7 C 87 % 1008,3 hPa 0,0 l/m 2,6 km/h (1 Bft) O-SO 121 0 min 0,000 mm 0,0 UV-I 0 W/m 16,5 C 18,7 C 4,8 km/h (1 Bft) 100,00 %
16.09.2016 22:26 18,8 C 88 % 1008,3 hPa 0,0 l/m 3,1 km/h (1 Bft) O-SO 122 0 min 0,000 mm 0,0 UV-I 0 W/m 16,8 C 18,8 C 4,8 km/h (1 Bft) 100,00 %
16.09.2016 22:28 18,7 C 88 % 1008,3 hPa 0,0 l/m 3,9 km/h (1 Bft) S-SO 154 0 min 0,000 mm 0,0 UV-I 0 W/m 16,7 C 18,7 C 6,4 km/h (2 Bft) 97,87 %
16.09.2016 22:30 18,7 C 88 % 1008,3 hPa 0,0 l/m 3,8 km/h (1 Bft) S-SO 158 0 min 0,000 mm 0,0 UV-I 0 W/m 16,7 C 18,7 C 8,0 km/h (2 Bft) 97,87 %
16.09.2016 22:32 18,6 C 88 % 1008,3 hPa 0,0 l/m 2,2 km/h (1 Bft) S-SO 158 0 min 0,000 mm 0,0 UV-I 0 W/m 16,6 C 18,6 C 4,8 km/h (1 Bft) 98,00 %
16.09.2016 22:34 18,6 C 89 % 1008,2 hPa 0,0 l/m 2,0 km/h (1 Bft) S-SO 158 0 min 0,000 mm 0,0 UV-I 0 W/m 16,7 C 18,6 C 3,2 km/h (1 Bft) 100,00 %
16.09.2016 22:36 18,6 C 89 % 1008,3 hPa 0,0 l/m 1,1 km/h (1 Bft) S-SO 158 0 min 0,000 mm 0,0 UV-I 0 W/m 16,7 C 18,6 C 3,2 km/h (1 Bft) 97,87 %
16.09.2016 22:38 18,6 C 89 % 1008,2 hPa 0,0 l/m 1,9 km/h (1 Bft) S-SO 158 0 min 0,000 mm 0,0 UV-I 0 W/m 16,7 C 18,6 C 4,8 km/h (1 Bft) 97,87 %
16.09.2016 22:40 18,6 C 89 % 1008,2 hPa 0,0 l/m 3,3 km/h (1 Bft) S-SO 161 0 min 0,000 mm 0,0 UV-I 0 W/m 16,7 C 18,6 C 8,0 km/h (2 Bft) 100,00 %
16.09.2016 22:42 18,6 C 89 % 1008,2 hPa 0,0 l/m 3,9 km/h (1 Bft) S-SO 165 0 min 0,000 mm 0,0 UV-I 0 W/m 16,7 C 18,6 C 6,4 km/h (2 Bft) 100,00 %
16.09.2016 22:44 18,7 C 89 % 1008,2 hPa 0,0 l/m 2,4 km/h (1 Bft) S-SO 165 0 min 0,000 mm 0,0 UV-I 0 W/m 16,8 C 18,7 C 6,4 km/h (2 Bft) 100,00 %
16.09.2016 22:46 18,7 C 89 % 1008,2 hPa 0,0 l/m 2,2 km/h (1 Bft) S-SO 165 0 min 0,000 mm 0,0 UV-I 0 W/m 16,8 C 18,7 C 3,2 km/h (1 Bft) 97,87 %
16.09.2016 22:48 18,7 C 89 % 1008,2 hPa 0,0 l/m 4,6 km/h (1 Bft) S 172 0 min 0,000 mm 0,0 UV-I 0 W/m 16,8 C 18,7 C 6,4 km/h (2 Bft) 100,00 %
16.09.2016 22:50 18,6 C 89 % 1008,1 hPa 0,0 l/m 3,8 km/h (1 Bft) S 176 0 min 0,000 mm 0,0 UV-I 0 W/m 16,7 C 18,6 C 4,8 km/h (1 Bft) 100,00 %
16.09.2016 22:52 18,6 C 89 % 1008,0 hPa 0,0 l/m 3,0 km/h (1 Bft) S 176 0 min 0,000 mm 0,0 UV-I 0 W/m 16,7 C 18,6 C 4,8 km/h (1 Bft) 100,00 %
16.09.2016 22:54 18,6 C 89 % 1008,0 hPa 0,0 l/m 2,4 km/h (1 Bft) S 176 0 min 0,000 mm 0,0 UV-I 0 W/m 16,7 C 18,6 C 3,2 km/h (1 Bft) 97,87 %
16.09.2016 22:56 18,4 C 89 % 1008,0 hPa 0,0 l/m 2,2 km/h (1 Bft) S 176 0 min 0,000 mm 0,0 UV-I 0 W/m 16,6 C 18,4 C 3,2 km/h (1 Bft) 97,87 %
16.09.2016 22:58 18,4 C 89 % 1007,9 hPa 0,0 l/m 2,8 km/h (1 Bft) S 176 0 min 0,000 mm 0,0 UV-I 0 W/m 16,6 C 18,4 C 4,8 km/h (1 Bft) 100,00 %
16.09.2016 23:00 18,4 C 89 % 1007,9 hPa 0,0 l/m 3,1 km/h (1 Bft) S 176 0 min 0,000 mm 0,0 UV-I 0 W/m 16,6 C 18,4 C 4,8 km/h (1 Bft) 97,14 %
16.09.2016 23:02 18,4 C 90 % 1007,9 hPa 0,0 l/m 2,3 km/h (1 Bft) S 176 0 min 0,000 mm 0,0 UV-I 0 W/m 16,7 C 18,4 C 3,2 km/h (1 Bft) 97,87 %
16.09.2016 23:04 18,4 C 90 % 1008,0 hPa 0,0 l/m 2,3 km/h (1 Bft) S 176 0 min 0,000 mm 0,0 UV-I 0 W/m 16,7 C 18,4 C 3,2 km/h (1 Bft) 98,31 %
16.09.2016 23:06 18,4 C 90 % 1007,9 hPa 0,0 l/m 2,7 km/h (1 Bft) S 176 0 min 0,000 mm 0,0 UV-I 0 W/m 16,7 C 18,4 C 4,8 km/h (1 Bft) 100,00 %
16.09.2016 23:08 18,3 C 90 % 1007,8 hPa 0,0 l/m 1,5 km/h (1 Bft) S 176 0 min 0,000 mm 0,0 UV-I 0 W/m 16,6 C 18,3 C 3,2 km/h (1 Bft) 97,87 %
16.09.2016 23:10 18,3 C 90 % 1007,9 hPa 0,0 l/m 1,8 km/h (1 Bft) S 176 0 min 0,000 mm 0,0 UV-I 0 W/m 16,6 C 18,3 C 3,2 km/h (1 Bft) 98,00 %
16.09.2016 23:12 18,3 C 90 % 1007,9 hPa 0,0 l/m 0,7 km/h (0 Bft) S 176 0 min 0,000 mm 0,0 UV-I 0 W/m 16,6 C 18,3 C 1,6 km/h (1 Bft) 100,00 %
16.09.2016 23:14 18,3 C 90 % 1007,9 hPa 0,0 l/m 0,2 km/h (0 Bft) S 176 0 min 0,000 mm 0,0 UV-I 0 W/m 16,6 C 18,3 C 1,6 km/h (1 Bft) 97,87 %
16.09.2016 23:16 18,3 C 89 % 1007,8 hPa 0,0 l/m 0,0 km/h (0 Bft) S 176 0 min 0,000 mm 0,0 UV-I 0 W/m 16,5 C 18,3 C 0,0 km/h (0 Bft) 97,87 %
16.09.2016 23:18 18,3 C 89 % 1007,8 hPa 0,0 l/m 0,7 km/h (0 Bft) S 176 0 min 0,000 mm 0,0 UV-I 0 W/m 16,5 C 18,3 C 1,6 km/h (1 Bft) 97,87 %
16.09.2016 23:20 18,3 C 90 % 1007,8 hPa 0,0 l/m 0,2 km/h (0 Bft) S 176 0 min 0,000 mm 0,0 UV-I 0 W/m 16,6 C 18,3 C 1,6 km/h (1 Bft) 95,74 %
16.09.2016 23:22 18,3 C 90 % 1007,8 hPa 0,0 l/m 0,3 km/h (0 Bft) S 176 0 min 0,000 mm 0,0 UV-I 0 W/m 16,6 C 18,3 C 1,6 km/h (1 Bft) 96,00 %
16.09.2016 23:24 18,3 C 90 % 1007,7 hPa 0,0 l/m 0,3 km/h (0 Bft) S 176 0 min 0,000 mm 0,0 UV-I 0 W/m 16,6 C 18,3 C 1,6 km/h (1 Bft) 97,87 %
16.09.2016 23:26 18,3 C 90 % 1007,7 hPa 0,0 l/m 0,5 km/h (0 Bft) S 176 0 min 0,000 mm 0,0 UV-I 0 W/m 16,6 C 18,3 C 1,6 km/h (1 Bft) 97,87 %
16.09.2016 23:28 18,2 C 90 % 1007,7 hPa 0,0 l/m 0,5 km/h (0 Bft) S 176 0 min 0,000 mm 0,0 UV-I 0 W/m 16,5 C 18,2 C 1,6 km/h (1 Bft) 97,87 %
16.09.2016 23:30 18,2 C 90 % 1007,7 hPa 0,0 l/m 0,3 km/h (0 Bft) S 176 0 min 0,000 mm 0,0 UV-I 0 W/m 16,5 C 18,2 C 1,6 km/h (1 Bft) 97,22 %
16.09.2016 23:32 18,2 C 90 % 1007,6 hPa 0,0 l/m 1,5 km/h (1 Bft) S 176 0 min 0,000 mm 0,0 UV-I 0 W/m 16,5 C 18,2 C 3,2 km/h (1 Bft) 98,00 %
16.09.2016 23:34 18,2 C 90 % 1007,7 hPa 0,0 l/m 2,9 km/h (1 Bft) S 176 0 min 0,000 mm 0,0 UV-I 0 W/m 16,5 C 18,2 C 4,8 km/h (1 Bft) 97,87 %
16.09.2016 23:36 18,2 C 90 % 1007,7 hPa 0,0 l/m 3,2 km/h (1 Bft) S 176 0 min 0,000 mm 0,0 UV-I 0 W/m 16,5 C 18,2 C 4,8 km/h (1 Bft) 97,87 %
16.09.2016 23:38 18,2 C 90 % 1007,7 hPa 0,0 l/m 2,8 km/h (1 Bft) S 176 0 min 0,000 mm 0,0 UV-I 0 W/m 16,5 C 18,2 C 4,8 km/h (1 Bft) 95,74 %
16.09.2016 23:40 18,2 C 90 % 1007,6 hPa 0,0 l/m 2,3 km/h (1 Bft) S 176 0 min 0,000 mm 0,0 UV-I 0 W/m 16,5 C 18,2 C 4,8 km/h (1 Bft) 96,23 %
16.09.2016 23:42 18,3 C 90 % 1007,6 hPa 0,0 l/m 1,4 km/h (1 Bft) S 176 0 min 0,000 mm 0,0 UV-I 0 W/m 16,6 C 18,3 C 3,2 km/h (1 Bft) 97,87 %
16.09.2016 23:44 18,3 C 90 % 1007,5 hPa 0,0 l/m 2,0 km/h (1 Bft) S 176 0 min 0,000 mm 0,0 UV-I 0 W/m 16,6 C 18,3 C 3,2 km/h (1 Bft) 97,87 %
16.09.2016 23:46 18,2 C 90 % 1007,6 hPa 0,0 l/m 3,0 km/h (1 Bft) S 176 0 min 0,000 mm 0,0 UV-I 0 W/m 16,5 C 18,2 C 4,8 km/h (1 Bft) 97,37 %
16.09.2016 23:48 18,2 C 90 % 1007,6 hPa 0,0 l/m 3,6 km/h (1 Bft) S 176 0 min 0,000 mm 0,0 UV-I 0 W/m 16,5 C 18,2 C 4,8 km/h (1 Bft) 97,87 %
16.09.2016 23:50 18,2 C 90 % 1007,7 hPa 0,0 l/m 4,3 km/h (1 Bft) S 177 0 min 0,000 mm 0,0 UV-I 0 W/m 16,5 C 18,2 C 4,8 km/h (1 Bft) 100,00 %
16.09.2016 23:52 18,1 C 91 % 1007,7 hPa 0,0 l/m 4,4 km/h (1 Bft) S 178 0 min 0,000 mm 0,0 UV-I 0 W/m 16,6 C 18,1 C 6,4 km/h (2 Bft) 97,87 %
16.09.2016 23:54 18,1 C 91 % 1007,7 hPa 0,0 l/m 4,5 km/h (1 Bft) S 188 0 min 0,000 mm 0,0 UV-I 0 W/m 16,6 C 18,1 C 6,4 km/h (2 Bft) 97,87 %
16.09.2016 23:56 18,0 C 91 % 1007,6 hPa 0,0 l/m 3,5 km/h (1 Bft) S-SW 193 0 min 0,000 mm 0,0 UV-I 0 W/m 16,5 C 18,0 C 6,4 km/h (2 Bft) 98,00 %
16.09.2016 23:58 18,0 C 91 % 1007,6 hPa 0,0 l/m 4,3 km/h (1 Bft) S-SW 193 0 min 0,000 mm 0,0 UV-I 0 W/m 16,5 C 18,0 C 6,4 km/h (2 Bft) 100,00 %
_ Min-Zeit 02:38 14:18 23:44 - 00:00 - - - - - - 05:02 07:06 00:00 17:58
Minimum _ 15,9 C 67 % 1007,5 hPa - 0,0 km/h (0 Bft) - - - - - - 14,3 C 13,4 C 0,0 km/h (0 Bft) 91,43 %
_ Max-Zeit 14:16 01:46 09:50 00:00 09:12 - - 08:08 14:00 12:22 12:22 13:34 14:16 08:44 00:00
Maximum _ 23,4 C 94 % 1012,7 hPa 0,0 l/m 17,0 km/h
W-SW (3 Bft)
- - 2 min 0,331 mm 3,7 UV-I 718 W/m 17,5 C 23,4 C 24,1 km/h
W-SW (4 Bft)
100,00 %
Durchschnitt _ 19,3 C 82 % 1010,4 hPa #0,0 l/m 4,3 km/h (1 Bft) W-SW - #4:38 h #2,210 mm 2,0 UV-I 262 W/m 16,0 C 18,8 C 7,4 km/h (2 Bft) 98,41 %